GEFSNGP_prec_meanprecacc_132.txt.gz
Total_Precipitation_Accumulation
0.01 0.01 0.01 0.01 0.00 0.00 0.00 0.00 0.00 0.00 0.00 0.00 0.00 0.00 0.00 0.00 0.00 0.00 0.00 0.00 0.00 0.00 0.01 0.02 0.02 0.03 0.05 0.05 0.06 0.06 0.08 0.12 0.16 0.21 0.24 0.25 0.26 0.27 0.29 0.33 0.38 0.41 0.43 0.44
0.01 0.01 0.01 0.01 0.01 0.01 0.01 0.00 0.00 0.00 0.00 0.00 0.00 0.00 0.00 0.00 0.00 0.01 0.01 0.01 0.01 0.01 0.02 0.04 0.06 0.09 0.10 0.10 0.12 0.16 0.22 0.27 0.30 0.30 0.31 0.33 0.33 0.34 0.36 0.39 0.40 0.41 0.43 0.42
0.02 0.01 0.01 0.01 0.00 0.00 0.00 0.00 0.00 0.00 0.00 0.00 0.00 0.00 0.00 0.00 0.01 0.02 0.02 0.02 0.02 0.03 0.04 0.06 0.15 0.20 0.17 0.14 0.17 0.23 0.29 0.31 0.30 0.28 0.28 0.28 0.29 0.32 0.34 0.32 0.29 0.27 0.27 0.27
0.02 0.02 0.03 0.01 0.00 0.00 0.00 0.00 0.00 0.00 0.00 0.00 0.00 0.00 0.00 0.01 0.02 0.02 0.04 0.05 0.05 0.05 0.05 0.07 0.13 0.15 0.14 0.14 0.17 0.20 0.25 0.29 0.30 0.29 0.28 0.25 0.22 0.22 0.22 0.19 0.17 0.15 0.13 0.11
0.04 0.02 0.01 0.00 0.00 0.00 0.00 0.00 0.00 0.00 0.00 0.00 0.00 0.00 0.01 0.03 0.02 0.03 0.04 0.05 0.05 0.05 0.05 0.06 0.07 0.08 0.09 0.11 0.14 0.18 0.23 0.25 0.25 0.24 0.25 0.24 0.19 0.16 0.14 0.12 0.11 0.08 0.06 0.05
0.05 0.03 0.01 0.00 0.00 0.00 0.00 0.00 0.00 0.00 0.00 0.02 0.05 0.16 0.08 0.06 0.03 0.03 0.03 0.02 0.03 0.03 0.03 0.04 0.05 0.07 0.06 0.07 0.09 0.12 0.15 0.15 0.13 0.12 0.13 0.12 0.08 0.06 0.06 0.06 0.07 0.05 0.04 0.03
0.04 0.02 0.00 0.00 0.00 0.00 0.00 0.00 0.00 0.00 0.02 0.06 0.13 0.21 0.11 0.05 0.04 0.03 0.02 0.01 0.01 0.03 0.04 0.06 0.06 0.06 0.04 0.04 0.07 0.07 0.06 0.05 0.04 0.04 0.04 0.03 0.02 0.02 0.02 0.03 0.04 0.04 0.03 0.02
0.03 0.02 0.00 0.00 0.00 0.00 0.00 0.00 0.00 0.01 0.03 0.07 0.06 0.02 0.01 0.02 0.02 0.01 0.01 0.01 0.02 0.03 0.05 0.06 0.06 0.03 0.02 0.03 0.04 0.03 0.02 0.02 0.01 0.01 0.01 0.01 0.02 0.02 0.02 0.03 0.04 0.04 0.03 0.03
0.02 0.02 0.00 0.00 0.00 0.00 0.00 0.01 0.02 0.05 0.05 0.08 0.07 0.03 0.02 0.02 0.01 0.01 0.01 0.02 0.04 0.06 0.07 0.05 0.03 0.01 0.01 0.01 0.01 0.01 0.00 0.00 0.00 0.01 0.01 0.02 0.02 0.03 0.03 0.04 0.06 0.07 0.07 0.06
0.01 0.01 0.00 0.00 0.00 0.00 0.00 0.01 0.02 0.03 0.07 0.10 0.08 0.04 0.02 0.01 0.01 0.01 0.02 0.03 0.06 0.06 0.05 0.03 0.01 0.00 0.00 0.00 0.00 0.00 0.00 0.00 0.00 0.01 0.01 0.02 0.02 0.03 0.04 0.07 0.17 0.22 0.18 0.14
0.00 0.00 0.00 0.00 0.00 0.00 0.00 0.00 0.01 0.01 0.03 0.06 0.05 0.03 0.02 0.01 0.01 0.02 0.03 0.04 0.04 0.04 0.03 0.02 0.00 0.00 0.00 0.00 0.00 0.00 0.00 0.00 0.01 0.02 0.02 0.03 0.03 0.03 0.05 0.08 0.23 0.39 0.33 0.30
0.00 0.00 0.00 0.00 0.00 0.00 0.01 0.02 0.03 0.04 0.02 0.02 0.03 0.03 0.02 0.02 0.02 0.03 0.03 0.03 0.03 0.03 0.01 0.00 0.00 0.00 0.00 0.00 0.00 0.00 0.01 0.01 0.02 0.03 0.03 0.03 0.04 0.04 0.04 0.06 0.12 0.16 0.20 0.28
0.00 0.00 0.00 0.00 0.00 0.00 0.01 0.03 0.05 0.05 0.03 0.02 0.02 0.02 0.02 0.02 0.02 0.02 0.02 0.02 0.02 0.01 0.00 0.00 0.00 0.00 0.00 0.00 0.00 0.01 0.02 0.03 0.04 0.04 0.05 0.06 0.07 0.09 0.08 0.05 0.05 0.06 0.09 0.16
0.00 0.00 0.00 0.00 0.00 0.01 0.02 0.03 0.04 0.04 0.02 0.01 0.01 0.01 0.01 0.01 0.01 0.01 0.02 0.02 0.01 0.01 0.00 0.00 0.00 0.00 0.00 0.00 0.00 0.01 0.02 0.03 0.05 0.06 0.08 0.09 0.10 0.12 0.13 0.14 0.10 0.06 0.05 0.09
0.00 0.00 0.00 0.00 0.01 0.01 0.02 0.02 0.02 0.02 0.01 0.00 0.00 0.01 0.01 0.01 0.01 0.02 0.02 0.01 0.01 0.00 0.00 0.00 0.00 0.00 0.00 0.00 0.01 0.01 0.02 0.04 0.07 0.09 0.09 0.10 0.11 0.13 0.14 0.14 0.13 0.11 0.08 0.07
0.01 0.01 0.00 0.00 0.00 0.01 0.01 0.01 0.02 0.01 0.01 0.00 0.01 0.01 0.01 0.01 0.01 0.01 0.00 0.00 0.00 0.00 0.00 0.00 0.00 0.00 0.00 0.01 0.02 0.02 0.03 0.06 0.09 0.11 0.11 0.12 0.13 0.16 0.17 0.18 0.17 0.16 0.15 0.14
0.01 0.01 0.00 0.00 0.00 0.01 0.02 0.02 0.02 0.01 0.01 0.01 0.00 0.00 0.00 0.00 0.00 0.00 0.00 0.00 0.00 0.00 0.00 0.00 0.01 0.01 0.01 0.01 0.03 0.04 0.05 0.06 0.09 0.11 0.13 0.15 0.18 0.21 0.22 0.24 0.24 0.21 0.16 0.15
0.00 0.01 0.00 0.01 0.02 0.02 0.02 0.02 0.01 0.01 0.00 0.00 0.00 0.00 0.00 0.00 0.00 0.00 0.00 0.00 0.00 0.00 0.00 0.00 0.02 0.02 0.01 0.02 0.04 0.05 0.08 0.10 0.12 0.16 0.17 0.17 0.21 0.23 0.24 0.27 0.25 0.22 0.16 0.12
0.00 0.00 0.00 0.01 0.02 0.03 0.03 0.01 0.01 0.00 0.00 0.00 0.00 0.00 0.00 0.00 0.00 0.00 0.00 0.00 0.00 0.01 0.00 0.01 0.03 0.02 0.01 0.03 0.07 0.10 0.14 0.17 0.17 0.16 0.16 0.18 0.20 0.19 0.21 0.23 0.23 0.20 0.18 0.16
0.00 0.00 0.01 0.02 0.03 0.02 0.01 0.01 0.00 0.00 0.00 0.00 0.00 0.00 0.00 0.00 0.00 0.00 0.00 0.00 0.00 0.02 0.01 0.02 0.03 0.03 0.04 0.07 0.14 0.18 0.19 0.19 0.19 0.19 0.19 0.20 0.22 0.21 0.21 0.22 0.22 0.21 0.19 0.18
0.00 0.01 0.02 0.03 0.02 0.01 0.01 0.01 0.00 0.00 0.00 0.00 0.00 0.00 0.00 0.00 0.00 0.00 0.00 0.00 0.00 0.01 0.01 0.02 0.04 0.09 0.12 0.17 0.19 0.17 0.17 0.19 0.21 0.23 0.24 0.25 0.25 0.23 0.22 0.22 0.23 0.23 0.22 0.21
0.01 0.01 0.03 0.03 0.02 0.01 0.00 0.00 0.00 0.00 0.00 0.00 0.00 0.00 0.00 0.00 0.00 0.00 0.00 0.00 0.01 0.03 0.03 0.02 0.06 0.14 0.17 0.18 0.15 0.14 0.16 0.19 0.22 0.24 0.26 0.27 0.29 0.29 0.26 0.26 0.27 0.26 0.25 0.23
0.01 0.02 0.03 0.02 0.01 0.00 0.00 0.00 0.00 0.01 0.00 0.00 0.00 0.00 0.00 0.01 0.01 0.01 0.01 0.01 0.02 0.04 0.03 0.03 0.08 0.14 0.16 0.13 0.12 0.13 0.17 0.21 0.24 0.27 0.28 0.29 0.31 0.33 0.33 0.30 0.30 0.29 0.29 0.26
0.03 0.03 0.03 0.01 0.01 0.00 0.00 0.00 0.00 0.01 0.01 0.01 0.01 0.01 0.01 0.02 0.02 0.02 0.02 0.03 0.04 0.05 0.04 0.04 0.08 0.11 0.13 0.12 0.12 0.16 0.21 0.26 0.31 0.34 0.32 0.32 0.32 0.32 0.33 0.33 0.33 0.30 0.28 0.26
0.04 0.04 0.03 0.02 0.01 0.01 0.01 0.01 0.01 0.01 0.02 0.02 0.02 0.02 0.02 0.02 0.03 0.04 0.04 0.04 0.05 0.06 0.05 0.05 0.08 0.11 0.11 0.13 0.17 0.22 0.27 0.31 0.38 0.43 0.40 0.36 0.33 0.32 0.32 0.33 0.34 0.33 0.30 0.27
0.07 0.06 0.04 0.03 0.03 0.02 0.02 0.02 0.03 0.03 0.03 0.03 0.03 0.03 0.03 0.04 0.04 0.05 0.05 0.04 0.05 0.06 0.06 0.07 0.08 0.11 0.13 0.16 0.21 0.26 0.29 0.31 0.35 0.38 0.36 0.35 0.34 0.33 0.33 0.34 0.35 0.34 0.31 0.27
0.07 0.06 0.05 0.05 0.04 0.04 0.04 0.04 0.04 0.05 0.04 0.05 0.05 0.04 0.04 0.05 0.05 0.05 0.05 0.05 0.06 0.06 0.07 0.09 0.10 0.13 0.16 0.21 0.25 0.27 0.29 0.31 0.36 0.43 0.44 0.41 0.37 0.36 0.35 0.36 0.36 0.34 0.31 0.28

GEFSNGP_prec_meanprecacc_138.txt.gz
Total_Precipitation_Accumulation
0.03 0.02 0.03 0.03 0.02 0.01 0.01 0.01 0.01 0.00 0.00 0.00 0.00 0.00 0.00 0.00 0.00 0.00 0.00 0.00 0.00 0.00 0.01 0.02 0.02 0.03 0.05 0.05 0.06 0.06 0.08 0.12 0.16 0.21 0.24 0.25 0.26 0.27 0.29 0.33 0.38 0.41 0.43 0.44
0.02 0.01 0.02 0.02 0.01 0.01 0.01 0.01 0.00 0.00 0.00 0.00 0.00 0.00 0.00 0.00 0.00 0.01 0.01 0.01 0.01 0.01 0.02 0.04 0.06 0.09 0.10 0.10 0.12 0.16 0.22 0.27 0.30 0.30 0.31 0.33 0.33 0.34 0.37 0.39 0.40 0.41 0.43 0.43
0.03 0.01 0.03 0.03 0.01 0.00 0.00 0.00 0.00 0.00 0.00 0.00 0.00 0.00 0.00 0.01 0.01 0.02 0.02 0.02 0.02 0.03 0.04 0.06 0.15 0.20 0.17 0.14 0.17 0.23 0.29 0.31 0.30 0.28 0.28 0.28 0.29 0.32 0.34 0.32 0.29 0.27 0.27 0.27
0.05 0.05 0.08 0.02 0.00 0.00 0.00 0.00 0.00 0.00 0.00 0.00 0.00 0.00 0.00 0.01 0.02 0.02 0.04 0.05 0.05 0.05 0.05 0.07 0.13 0.15 0.14 0.14 0.17 0.20 0.25 0.29 0.30 0.29 0.28 0.25 0.22 0.22 0.22 0.20 0.17 0.15 0.13 0.11
0.09 0.07 0.04 0.01 0.00 0.01 0.00 0.00 0.00 0.00 0.00 0.00 0.00 0.00 0.01 0.03 0.02 0.03 0.04 0.05 0.05 0.05 0.05 0.06 0.07 0.08 0.09 0.11 0.14 0.18 0.23 0.25 0.25 0.24 0.25 0.24 0.19 0.16 0.14 0.12 0.11 0.09 0.07 0.05
0.11 0.07 0.03 0.00 0.00 0.00 0.00 0.01 0.01 0.01 0.01 0.02 0.05 0.16 0.08 0.06 0.03 0.03 0.03 0.02 0.03 0.03 0.03 0.04 0.05 0.07 0.06 0.07 0.09 0.12 0.15 0.15 0.13 0.12 0.13 0.12 0.08 0.06 0.06 0.06 0.07 0.06 0.04 0.03
0.10 0.05 0.01 0.00 0.00 0.00 0.02 0.02 0.02 0.01 0.02 0.06 0.13 0.21 0.11 0.05 0.04 0.03 0.02 0.01 0.01 0.03 0.04 0.06 0.06 0.06 0.04 0.04 0.07 0.07 0.06 0.05 0.04 0.04 0.04 0.03 0.02 0.02 0.03 0.03 0.04 0.04 0.03 0.02
0.07 0.04 0.01 0.00 0.00 0.01 0.02 0.01 0.02 0.02 0.03 0.07 0.06 0.02 0.01 0.02 0.02 0.01 0.01 0.01 0.02 0.03 0.05 0.06 0.06 0.03 0.02 0.03 0.04 0.03 0.02 0.02 0.01 0.01 0.01 0.01 0.02 0.02 0.02 0.03 0.04 0.04 0.03 0.03
0.05 0.03 0.01 0.00 0.00 0.00 0.00 0.01 0.03 0.05 0.05 0.08 0.07 0.03 0.02 0.02 0.01 0.01 0.01 0.02 0.04 0.06 0.07 0.05 0.03 0.01 0.01 0.01 0.01 0.01 0.00 0.00 0.00 0.01 0.01 0.02 0.02 0.03 0.03 0.04 0.06 0.07 0.07 0.06
0.03 0.01 0.01 0.00 0.00 0.00 0.00 0.01 0.02 0.03 0.08 0.10 0.08 0.04 0.02 0.01 0.01 0.01 0.02 0.03 0.06 0.06 0.05 0.03 0.01 0.00 0.00 0.00 0.00 0.00 0.00 0.00 0.00 0.01 0.01 0.02 0.02 0.03 0.04 0.07 0.17 0.22 0.18 0.14
0.01 0.00 0.01 0.01 0.00 0.00 0.00 0.00 0.01 0.01 0.03 0.06 0.05 0.03 0.02 0.01 0.01 0.02 0.03 0.04 0.04 0.04 0.03 0.02 0.00 0.00 0.00 0.00 0.00 0.00 0.00 0.00 0.01 0.02 0.02 0.03 0.03 0.03 0.05 0.08 0.23 0.39 0.33 0.30
0.01 0.00 0.00 0.00 0.00 0.01 0.02 0.02 0.04 0.04 0.02 0.02 0.03 0.03 0.02 0.02 0.02 0.03 0.03 0.03 0.03 0.03 0.01 0.00 0.00 0.00 0.00 0.00 0.00 0.00 0.01 0.01 0.02 0.03 0.03 0.03 0.04 0.04 0.04 0.06 0.12 0.16 0.20 0.28
0.00 0.00 0.00 0.00 0.00 0.01 0.02 0.03 0.05 0.05 0.03 0.02 0.02 0.02 0.02 0.02 0.02 0.02 0.02 0.02 0.02 0.01 0.00 0.00 0.00 0.00 0.00 0.00 0.00 0.01 0.02 0.03 0.04 0.04 0.05 0.06 0.07 0.09 0.08 0.05 0.05 0.06 0.09 0.16
0.00 0.00 0.00 0.00 0.00 0.01 0.02 0.03 0.04 0.04 0.03 0.01 0.01 0.01 0.01 0.01 0.01 0.01 0.02 0.02 0.01 0.01 0.00 0.00 0.00 0.00 0.00 0.00 0.00 0.01 0.02 0.03 0.05 0.06 0.08 0.09 0.10 0.12 0.13 0.14 0.10 0.06 0.05 0.09
0.00 0.00 0.00 0.01 0.01 0.01 0.02 0.02 0.03 0.02 0.01 0.00 0.00 0.01 0.01 0.01 0.01 0.02 0.02 0.01 0.01 0.00 0.00 0.00 0.00 0.00 0.00 0.00 0.01 0.01 0.02 0.04 0.07 0.09 0.09 0.10 0.11 0.13 0.14 0.14 0.13 0.11 0.08 0.07
0.01 0.01 0.00 0.00 0.00 0.01 0.01 0.02 0.02 0.01 0.01 0.00 0.01 0.01 0.01 0.01 0.01 0.01 0.00 0.00 0.00 0.00 0.00 0.00 0.00 0.00 0.00 0.01 0.02 0.02 0.03 0.06 0.09 0.11 0.11 0.12 0.13 0.16 0.17 0.18 0.17 0.16 0.15 0.14
0.01 0.01 0.00 0.00 0.01 0.01 0.02 0.02 0.02 0.01 0.01 0.01 0.00 0.00 0.00 0.00 0.00 0.00 0.00 0.00 0.00 0.00 0.00 0.00 0.01 0.01 0.01 0.01 0.03 0.04 0.05 0.06 0.09 0.11 0.13 0.15 0.18 0.21 0.22 0.25 0.24 0.21 0.16 0.15
0.01 0.01 0.01 0.01 0.02 0.02 0.03 0.02 0.01 0.01 0.00 0.00 0.00 0.00 0.00 0.00 0.00 0.00 0.00 0.00 0.00 0.00 0.00 0.00 0.02 0.02 0.01 0.02 0.04 0.05 0.08 0.10 0.12 0.16 0.17 0.17 0.21 0.23 0.25 0.27 0.25 0.22 0.16 0.12
0.00 0.00 0.00 0.01 0.03 0.04 0.03 0.01 0.01 0.00 0.00 0.00 0.00 0.00 0.00 0.00 0.00 0.00 0.00 0.00 0.00 0.01 0.00 0.01 0.03 0.02 0.01 0.03 0.07 0.10 0.14 0.17 0.17 0.16 0.16 0.18 0.20 0.19 0.21 0.23 0.23 0.20 0.18 0.16
0.01 0.00 0.01 0.02 0.03 0.02 0.01 0.01 0.01 0.00 0.00 0.00 0.00 0.00 0.00 0.00 0.00 0.00 0.00 0.00 0.00 0.02 0.01 0.02 0.03 0.03 0.04 0.07 0.14 0.18 0.19 0.19 0.19 0.19 0.19 0.20 0.22 0.22 0.21 0.22 0.22 0.21 0.19 0.18
0.01 0.02 0.02 0.03 0.02 0.01 0.01 0.01 0.01 0.01 0.00 0.00 0.00 0.00 0.00 0.00 0.00 0.00 0.00 0.00 0.00 0.01 0.01 0.02 0.04 0.09 0.12 0.17 0.19 0.17 0.17 0.19 0.21 0.23 0.24 0.25 0.25 0.23 0.22 0.23 0.23 0.23 0.23 0.21
0.03 0.03 0.04 0.04 0.02 0.01 0.01 0.01 0.01 0.01 0.00 0.00 0.00 0.00 0.00 0.00 0.00 0.00 0.00 0.00 0.01 0.03 0.03 0.02 0.06 0.14 0.17 0.18 0.15 0.14 0.16 0.19 0.22 0.24 0.26 0.27 0.29 0.30 0.27 0.26 0.28 0.26 0.25 0.24
0.04 0.04 0.04 0.03 0.01 0.01 0.00 0.01 0.01 0.01 0.00 0.00 0.00 0.00 0.00 0.01 0.01 0.01 0.01 0.01 0.02 0.04 0.03 0.03 0.08 0.14 0.16 0.13 0.12 0.13 0.17 0.21 0.25 0.27 0.28 0.29 0.32 0.34 0.33 0.31 0.30 0.29 0.29 0.26
0.04 0.04 0.04 0.02 0.01 0.01 0.01 0.01 0.01 0.01 0.01 0.01 0.01 0.01 0.01 0.02 0.02 0.02 0.02 0.03 0.05 0.06 0.04 0.04 0.08 0.11 0.13 0.12 0.12 0.16 0.21 0.26 0.32 0.34 0.33 0.33 0.33 0.33 0.33 0.34 0.33 0.30 0.28 0.27
0.06 0.05 0.04 0.03 0.03 0.03 0.03 0.03 0.02 0.02 0.02 0.03 0.03 0.03 0.03 0.03 0.04 0.05 0.05 0.05 0.06 0.06 0.05 0.05 0.08 0.11 0.11 0.13 0.17 0.23 0.27 0.31 0.39 0.43 0.41 0.37 0.34 0.33 0.32 0.33 0.34 0.34 0.31 0.27
0.08 0.07 0.06 0.05 0.05 0.05 0.05 0.05 0.05 0.05 0.05 0.05 0.05 0.05 0.05 0.05 0.06 0.06 0.05 0.05 0.05 0.06 0.06 0.07 0.08 0.11 0.13 0.17 0.22 0.27 0.30 0.31 0.36 0.39 0.37 0.35 0.34 0.34 0.33 0.34 0.35 0.34 0.31 0.27
0.09 0.08 0.07 0.06 0.07 0.07 0.07 0.07 0.07 0.08 0.07 0.07 0.08 0.07 0.06 0.07 0.06 0.06 0.06 0.06 0.07 0.07 0.08 0.10 0.11 0.14 0.17 0.21 0.25 0.28 0.30 0.32 0.37 0.44 0.44 0.41 0.37 0.36 0.36 0.36 0.37 0.34 0.31 0.29

GEFSNGP_prec_meanprecacc_144.txt.gz
Total_Precipitation_Accumulation
0.07 0.03 0.04 0.05 0.04 0.04 0.04 0.04 0.03 0.01 0.00 0.00 0.00 0.00 0.00 0.00 0.00 0.00 0.00 0.00 0.00 0.00 0.01 0.02 0.02 0.03 0.05 0.05 0.06 0.06 0.08 0.12 0.16 0.21 0.24 0.25 0.26 0.27 0.30 0.33 0.38 0.41 0.43 0.45
0.09 0.04 0.03 0.03 0.02 0.02 0.03 0.02 0.01 0.00 0.00 0.00 0.00 0.00 0.00 0.00 0.00 0.01 0.01 0.01 0.01 0.01 0.02 0.04 0.06 0.09 0.10 0.10 0.12 0.16 0.22 0.27 0.30 0.30 0.31 0.33 0.33 0.34 0.37 0.39 0.41 0.41 0.43 0.43
0.13 0.06 0.08 0.07 0.02 0.01 0.01 0.01 0.00 0.00 0.00 0.00 0.00 0.00 0.00 0.01 0.01 0.02 0.02 0.02 0.02 0.03 0.04 0.06 0.15 0.20 0.17 0.14 0.17 0.23 0.29 0.31 0.30 0.28 0.28 0.28 0.29 0.32 0.35 0.33 0.29 0.27 0.28 0.27
0.16 0.13 0.18 0.06 0.01 0.00 0.00 0.00 0.00 0.00 0.00 0.00 0.00 0.00 0.00 0.01 0.02 0.02 0.04 0.05 0.05 0.05 0.05 0.07 0.13 0.15 0.14 0.14 0.17 0.20 0.25 0.29 0.30 0.29 0.28 0.25 0.22 0.22 0.22 0.20 0.17 0.15 0.13 0.11
0.22 0.17 0.11 0.02 0.00 0.01 0.01 0.01 0.01 0.01 0.01 0.01 0.00 0.00 0.01 0.03 0.02 0.03 0.05 0.05 0.05 0.05 0.05 0.06 0.07 0.08 0.09 0.11 0.14 0.18 0.23 0.25 0.25 0.24 0.25 0.24 0.19 0.16 0.14 0.12 0.11 0.09 0.07 0.05
0.24 0.16 0.07 0.01 0.00 0.00 0.01 0.02 0.02 0.02 0.01 0.02 0.06 0.16 0.08 0.06 0.03 0.03 0.03 0.02 0.03 0.03 0.03 0.04 0.05 0.07 0.06 0.07 0.09 0.12 0.15 0.15 0.13 0.12 0.13 0.12 0.08 0.06 0.06 0.06 0.07 0.06 0.04 0.03
0.21 0.11 0.03 0.00 0.00 0.01 0.03 0.03 0.02 0.02 0.02 0.06 0.14 0.21 0.12 0.05 0.04 0.03 0.02 0.01 0.01 0.03 0.04 0.06 0.06 0.06 0.04 0.04 0.07 0.07 0.06 0.05 0.04 0.04 0.04 0.03 0.02 0.02 0.03 0.03 0.04 0.04 0.03 0.02
0.15 0.09 0.02 0.01 0.01 0.02 0.03 0.02 0.02 0.03 0.03 0.07 0.06 0.02 0.01 0.02 0.02 0.01 0.01 0.01 0.02 0.03 0.05 0.06 0.06 0.03 0.02 0.03 0.04 0.03 0.02 0.02 0.01 0.01 0.01 0.01 0.02 0.02 0.02 0.03 0.04 0.04 0.04 0.03
0.12 0.06 0.02 0.01 0.01 0.02 0.01 0.02 0.03 0.05 0.06 0.08 0.07 0.03 0.02 0.02 0.01 0.01 0.01 0.02 0.04 0.06 0.07 0.05 0.03 0.01 0.01 0.01 0.01 0.01 0.00 0.00 0.00 0.01 0.01 0.02 0.02 0.03 0.03 0.04 0.06 0.08 0.07 0.06
0.06 0.03 0.02 0.01 0.01 0.01 0.01 0.02 0.02 0.04 0.08 0.10 0.08 0.04 0.03 0.01 0.01 0.01 0.02 0.03 0.06 0.06 0.05 0.03 0.01 0.00 0.00 0.00 0.00 0.00 0.00 0.00 0.00 0.01 0.02 0.02 0.02 0.03 0.04 0.07 0.17 0.22 0.18 0.14
0.05 0.02 0.01 0.01 0.02 0.02 0.01 0.01 0.01 0.01 0.03 0.06 0.06 0.03 0.02 0.02 0.01 0.02 0.03 0.04 0.04 0.04 0.03 0.02 0.00 0.00 0.00 0.00 0.00 0.00 0.00 0.00 0.01 0.02 0.02 0.03 0.03 0.03 0.05 0.08 0.23 0.39 0.33 0.30
0.04 0.02 0.01 0.01 0.01 0.02 0.02 0.03 0.04 0.04 0.03 0.02 0.03 0.03 0.03 0.02 0.02 0.03 0.03 0.03 0.03 0.03 0.01 0.00 0.00 0.00 0.00 0.00 0.00 0.00 0.01 0.01 0.02 0.03 0.03 0.03 0.04 0.04 0.04 0.06 0.12 0.16 0.20 0.28
0.02 0.02 0.01 0.01 0.00 0.01 0.03 0.04 0.06 0.05 0.04 0.02 0.02 0.02 0.02 0.02 0.02 0.02 0.02 0.02 0.02 0.01 0.00 0.00 0.00 0.00 0.00 0.00 0.00 0.01 0.02 0.03 0.04 0.04 0.05 0.06 0.07 0.09 0.08 0.05 0.05 0.06 0.09 0.16
0.01 0.01 0.01 0.01 0.01 0.01 0.03 0.04 0.04 0.04 0.03 0.02 0.02 0.01 0.01 0.01 0.02 0.01 0.02 0.02 0.01 0.01 0.00 0.00 0.00 0.00 0.00 0.00 0.00 0.01 0.02 0.03 0.05 0.06 0.08 0.09 0.10 0.12 0.13 0.14 0.10 0.06 0.05 0.09
0.01 0.01 0.01 0.01 0.01 0.01 0.02 0.03 0.03 0.02 0.01 0.01 0.01 0.01 0.01 0.01 0.01 0.02 0.02 0.01 0.01 0.00 0.00 0.00 0.00 0.00 0.00 0.00 0.01 0.01 0.02 0.04 0.07 0.09 0.09 0.10 0.11 0.13 0.14 0.14 0.13 0.11 0.08 0.07
0.01 0.01 0.01 0.00 0.01 0.01 0.02 0.02 0.02 0.02 0.01 0.01 0.02 0.02 0.01 0.01 0.01 0.01 0.00 0.00 0.00 0.00 0.00 0.00 0.00 0.00 0.00 0.01 0.02 0.02 0.03 0.06 0.09 0.11 0.11 0.12 0.13 0.16 0.17 0.18 0.17 0.16 0.15 0.14
0.02 0.02 0.01 0.00 0.01 0.02 0.02 0.02 0.02 0.02 0.01 0.01 0.01 0.01 0.01 0.00 0.00 0.00 0.00 0.00 0.00 0.00 0.00 0.00 0.01 0.01 0.01 0.01 0.03 0.04 0.05 0.06 0.09 0.11 0.13 0.15 0.18 0.21 0.22 0.25 0.24 0.21 0.16 0.15
0.02 0.02 0.02 0.02 0.02 0.02 0.03 0.03 0.02 0.01 0.01 0.00 0.00 0.01 0.00 0.00 0.00 0.00 0.00 0.00 0.00 0.00 0.00 0.00 0.02 0.02 0.01 0.02 0.04 0.05 0.08 0.10 0.12 0.16 0.17 0.17 0.21 0.23 0.25 0.27 0.25 0.22 0.16 0.12
0.01 0.01 0.01 0.02 0.03 0.04 0.03 0.02 0.01 0.00 0.00 0.00 0.00 0.00 0.00 0.00 0.00 0.00 0.00 0.00 0.00 0.01 0.00 0.01 0.03 0.02 0.01 0.03 0.07 0.10 0.14 0.17 0.17 0.16 0.16 0.18 0.20 0.19 0.21 0.23 0.23 0.20 0.18 0.16
0.02 0.02 0.02 0.03 0.03 0.03 0.02 0.02 0.01 0.00 0.00 0.00 0.00 0.00 0.00 0.00 0.00 0.00 0.00 0.00 0.00 0.02 0.01 0.02 0.03 0.03 0.04 0.07 0.14 0.18 0.19 0.19 0.19 0.19 0.19 0.20 0.22 0.22 0.21 0.22 0.22 0.21 0.19 0.18
0.03 0.03 0.04 0.04 0.03 0.02 0.02 0.02 0.02 0.01 0.01 0.00 0.00 0.00 0.00 0.00 0.00 0.00 0.00 0.00 0.00 0.01 0.01 0.02 0.04 0.09 0.12 0.17 0.19 0.17 0.17 0.19 0.21 0.23 0.24 0.25 0.25 0.23 0.22 0.23 0.23 0.24 0.23 0.22
0.04 0.05 0.06 0.05 0.03 0.02 0.02 0.02 0.02 0.02 0.01 0.01 0.01 0.01 0.01 0.01 0.01 0.00 0.00 0.00 0.01 0.03 0.03 0.02 0.06 0.15 0.17 0.18 0.15 0.14 0.16 0.19 0.22 0.24 0.26 0.27 0.30 0.30 0.27 0.26 0.28 0.26 0.25 0.24
0.06 0.07 0.07 0.05 0.04 0.02 0.02 0.02 0.02 0.02 0.01 0.01 0.01 0.01 0.01 0.01 0.01 0.02 0.02 0.01 0.02 0.04 0.03 0.03 0.08 0.14 0.16 0.13 0.12 0.13 0.17 0.21 0.25 0.27 0.28 0.29 0.32 0.34 0.33 0.31 0.30 0.30 0.29 0.27
0.07 0.06 0.06 0.05 0.03 0.03 0.02 0.02 0.02 0.01 0.01 0.01 0.01 0.01 0.02 0.02 0.03 0.02 0.03 0.04 0.05 0.06 0.04 0.04 0.08 0.11 0.13 0.12 0.12 0.16 0.21 0.26 0.32 0.34 0.33 0.33 0.33 0.33 0.33 0.34 0.34 0.31 0.29 0.27
0.08 0.07 0.06 0.04 0.04 0.05 0.04 0.04 0.03 0.03 0.02 0.03 0.03 0.04 0.04 0.04 0.05 0.05 0.05 0.05 0.06 0.07 0.05 0.05 0.08 0.11 0.11 0.13 0.17 0.23 0.27 0.31 0.39 0.43 0.41 0.37 0.34 0.33 0.32 0.33 0.35 0.34 0.31 0.28
0.10 0.09 0.08 0.07 0.07 0.07 0.07 0.06 0.06 0.06 0.05 0.06 0.06 0.05 0.06 0.06 0.07 0.07 0.06 0.06 0.06 0.07 0.07 0.07 0.09 0.11 0.13 0.17 0.22 0.27 0.30 0.31 0.36 0.39 0.37 0.36 0.34 0.34 0.34 0.35 0.35 0.35 0.31 0.28
0.11 0.10 0.09 0.08 0.08 0.08 0.08 0.09 0.09 0.10 0.09 0.09 0.09 0.08 0.08 0.08 0.08 0.07 0.07 0.07 0.07 0.08 0.08 0.10 0.11 0.14 0.17 0.21 0.25 0.28 0.30 0.32 0.37 0.44 0.44 0.41 0.37 0.36 0.36 0.37 0.37 0.35 0.32 0.29

GEFSNGP_prec_meanprecacc_150.txt.gz
Total_Precipitation_Accumulation
0.13 0.08 0.10 0.12 0.10 0.07 0.07 0.07 0.05 0.01 0.00 0.00 0.01 0.01 0.00 0.00 0.00 0.00 0.00 0.00 0.00 0.00 0.01 0.02 0.02 0.03 0.05 0.06 0.06 0.06 0.08 0.12 0.16 0.21 0.24 0.26 0.26 0.27 0.30 0.33 0.38 0.42 0.44 0.45
0.16 0.09 0.08 0.07 0.06 0.07 0.06 0.03 0.01 0.00 0.00 0.00 0.00 0.01 0.00 0.00 0.00 0.01 0.01 0.01 0.01 0.01 0.02 0.04 0.06 0.09 0.10 0.10 0.12 0.16 0.22 0.27 0.30 0.30 0.31 0.33 0.33 0.35 0.37 0.39 0.41 0.42 0.44 0.43
0.21 0.13 0.16 0.13 0.04 0.03 0.03 0.01 0.00 0.00 0.00 0.00 0.00 0.01 0.01 0.01 0.01 0.02 0.02 0.02 0.02 0.03 0.04 0.06 0.15 0.20 0.17 0.14 0.17 0.23 0.29 0.31 0.30 0.28 0.28 0.28 0.29 0.32 0.35 0.33 0.29 0.28 0.28 0.27
0.23 0.22 0.32 0.10 0.01 0.00 0.01 0.01 0.01 0.00 0.00 0.01 0.01 0.01 0.01 0.01 0.02 0.02 0.04 0.05 0.05 0.05 0.05 0.07 0.13 0.15 0.14 0.14 0.17 0.20 0.25 0.29 0.31 0.29 0.28 0.25 0.22 0.22 0.22 0.20 0.17 0.15 0.13 0.12
0.30 0.25 0.16 0.04 0.02 0.02 0.01 0.02 0.02 0.01 0.01 0.01 0.01 0.01 0.02 0.04 0.02 0.03 0.05 0.05 0.05 0.05 0.05 0.06 0.07 0.08 0.09 0.11 0.14 0.18 0.23 0.25 0.25 0.24 0.25 0.24 0.19 0.16 0.14 0.12 0.11 0.09 0.07 0.05
0.32 0.23 0.10 0.04 0.02 0.02 0.02 0.04 0.03 0.02 0.02 0.02 0.06 0.17 0.09 0.06 0.03 0.03 0.03 0.02 0.03 0.03 0.03 0.04 0.05 0.07 0.06 0.07 0.09 0.12 0.15 0.15 0.13 0.12 0.13 0.12 0.08 0.06 0.06 0.06 0.07 0.06 0.05 0.04
0.30 0.17 0.05 0.02 0.02 0.03 0.07 0.09 0.05 0.03 0.03 0.07 0.14 0.21 0.12 0.05 0.04 0.03 0.02 0.01 0.01 0.03 0.04 0.06 0.06 0.06 0.04 0.04 0.07 0.07 0.06 0.05 0.04 0.04 0.04 0.03 0.02 0.02 0.03 0.03 0.04 0.04 0.03 0.03
0.24 0.16 0.05 0.04 0.04 0.07 0.08 0.05 0.04 0.04 0.04 0.08 0.06 0.02 0.01 0.02 0.02 0.01 0.01 0.01 0.02 0.03 0.05 0.06 0.06 0.03 0.02 0.03 0.04 0.03 0.02 0.02 0.01 0.01 0.01 0.01 0.02 0.02 0.02 0.03 0.04 0.04 0.04 0.04
0.19 0.11 0.06 0.06 0.06 0.06 0.04 0.04 0.05 0.07 0.07 0.09 0.07 0.03 0.02 0.02 0.01 0.01 0.01 0.02 0.04 0.06 0.07 0.05 0.03 0.01 0.01 0.01 0.01 0.01 0.00 0.00 0.00 0.01 0.01 0.02 0.02 0.03 0.03 0.04 0.06 0.08 0.07 0.06
0.09 0.05 0.04 0.04 0.04 0.04 0.03 0.04 0.04 0.05 0.09 0.11 0.08 0.04 0.03 0.01 0.01 0.01 0.02 0.03 0.06 0.06 0.05 0.03 0.01 0.00 0.00 0.00 0.00 0.00 0.00 0.00 0.00 0.01 0.02 0.02 0.02 0.03 0.04 0.07 0.17 0.22 0.19 0.15
0.06 0.03 0.03 0.03 0.03 0.03 0.02 0.01 0.02 0.03 0.04 0.07 0.06 0.04 0.03 0.02 0.02 0.02 0.03 0.04 0.04 0.04 0.03 0.02 0.00 0.00 0.00 0.00 0.00 0.00 0.00 0.00 0.01 0.02 0.02 0.03 0.03 0.03 0.05 0.08 0.23 0.39 0.33 0.30
0.06 0.03 0.03 0.02 0.02 0.03 0.03 0.03 0.05 0.05 0.03 0.03 0.03 0.03 0.03 0.02 0.03 0.03 0.03 0.03 0.03 0.03 0.01 0.00 0.00 0.00 0.00 0.00 0.00 0.00 0.01 0.01 0.02 0.03 0.03 0.03 0.04 0.04 0.04 0.06 0.12 0.16 0.20 0.28
0.03 0.02 0.01 0.01 0.01 0.01 0.03 0.05 0.06 0.06 0.05 0.03 0.02 0.02 0.02 0.02 0.03 0.03 0.03 0.03 0.02 0.01 0.00 0.00 0.00 0.00 0.00 0.00 0.00 0.01 0.02 0.03 0.04 0.04 0.05 0.06 0.07 0.09 0.08 0.05 0.05 0.06 0.09 0.16
0.01 0.01 0.01 0.01 0.01 0.01 0.03 0.04 0.05 0.05 0.04 0.02 0.02 0.02 0.02 0.02 0.02 0.02 0.02 0.02 0.01 0.01 0.00 0.00 0.00 0.00 0.00 0.00 0.00 0.01 0.02 0.03 0.05 0.06 0.08 0.09 0.10 0.12 0.13 0.14 0.10 0.06 0.05 0.09
0.01 0.01 0.01 0.01 0.01 0.01 0.03 0.04 0.04 0.04 0.02 0.01 0.01 0.02 0.02 0.02 0.02 0.02 0.02 0.02 0.01 0.00 0.00 0.00 0.00 0.00 0.00 0.00 0.01 0.01 0.02 0.04 0.07 0.09 0.09 0.10 0.12 0.13 0.14 0.14 0.13 0.11 0.08 0.08
0.02 0.01 0.01 0.01 0.01 0.01 0.02 0.03 0.04 0.04 0.02 0.02 0.02 0.02 0.02 0.02 0.01 0.01 0.01 0.00 0.00 0.00 0.00 0.00 0.00 0.00 0.00 0.01 0.02 0.02 0.03 0.06 0.09 0.11 0.11 0.12 0.13 0.16 0.17 0.18 0.17 0.16 0.15 0.14
0.03 0.02 0.01 0.01 0.01 0.02 0.02 0.03 0.04 0.04 0.02 0.02 0.02 0.02 0.02 0.01 0.01 0.00 0.00 0.00 0.00 0.00 0.00 0.00 0.01 0.01 0.01 0.01 0.03 0.04 0.05 0.06 0.09 0.11 0.13 0.15 0.18 0.21 0.23 0.25 0.24 0.21 0.16 0.15
0.03 0.03 0.03 0.03 0.03 0.03 0.03 0.03 0.04 0.03 0.02 0.01 0.01 0.02 0.02 0.02 0.01 0.00 0.00 0.00 0.00 0.00 0.00 0.00 0.02 0.02 0.01 0.02 0.04 0.05 0.08 0.10 0.12 0.16 0.17 0.17 0.21 0.23 0.25 0.27 0.25 0.22 0.16 0.12
0.02 0.03 0.03 0.04 0.05 0.05 0.04 0.03 0.03 0.03 0.02 0.01 0.01 0.02 0.02 0.02 0.01 0.00 0.00 0.00 0.00 0.01 0.00 0.01 0.03 0.02 0.01 0.03 0.07 0.10 0.14 0.17 0.17 0.16 0.16 0.19 0.20 0.19 0.21 0.23 0.23 0.20 0.18 0.16
0.03 0.03 0.04 0.05 0.05 0.05 0.04 0.03 0.03 0.02 0.02 0.01 0.01 0.02 0.03 0.02 0.01 0.00 0.00 0.01 0.01 0.02 0.01 0.02 0.03 0.03 0.04 0.07 0.14 0.18 0.19 0.19 0.20 0.19 0.19 0.21 0.22 0.22 0.21 0.22 0.23 0.21 0.19 0.18
0.04 0.05 0.06 0.06 0.05 0.04 0.04 0.05 0.04 0.03 0.03 0.02 0.02 0.03 0.03 0.02 0.01 0.00 0.00 0.01 0.01 0.02 0.01 0.02 0.04 0.09 0.13 0.17 0.19 0.18 0.17 0.19 0.22 0.23 0.25 0.25 0.25 0.23 0.22 0.23 0.23 0.24 0.23 0.22
0.06 0.07 0.08 0.07 0.05 0.04 0.04 0.05 0.05 0.05 0.04 0.03 0.03 0.03 0.03 0.02 0.02 0.01 0.01 0.01 0.01 0.03 0.03 0.02 0.07 0.15 0.18 0.19 0.15 0.15 0.17 0.19 0.22 0.24 0.26 0.27 0.30 0.30 0.27 0.26 0.28 0.27 0.25 0.24
0.08 0.09 0.08 0.08 0.06 0.05 0.04 0.04 0.04 0.05 0.05 0.04 0.04 0.03 0.03 0.03 0.03 0.03 0.02 0.02 0.03 0.05 0.04 0.04 0.09 0.14 0.17 0.15 0.13 0.14 0.17 0.21 0.25 0.27 0.28 0.29 0.32 0.34 0.33 0.31 0.30 0.30 0.29 0.27
0.10 0.09 0.08 0.06 0.05 0.05 0.05 0.04 0.04 0.04 0.05 0.04 0.04 0.04 0.04 0.04 0.04 0.04 0.04 0.05 0.06 0.07 0.05 0.06 0.09 0.12 0.14 0.13 0.14 0.17 0.21 0.26 0.32 0.34 0.33 0.33 0.33 0.33 0.34 0.34 0.34 0.31 0.29 0.27
0.12 0.11 0.09 0.07 0.07 0.07 0.07 0.06 0.05 0.05 0.06 0.06 0.05 0.05 0.06 0.06 0.07 0.07 0.08 0.08 0.08 0.09 0.08 0.07 0.09 0.12 0.13 0.15 0.18 0.24 0.28 0.32 0.39 0.44 0.41 0.37 0.34 0.33 0.32 0.33 0.35 0.34 0.31 0.28
0.14 0.14 0.11 0.10 0.10 0.09 0.09 0.08 0.08 0.08 0.08 0.08 0.07 0.07 0.08 0.08 0.09 0.10 0.09 0.09 0.09 0.09 0.09 0.09 0.10 0.12 0.14 0.18 0.23 0.28 0.31 0.32 0.36 0.39 0.37 0.36 0.34 0.34 0.34 0.35 0.35 0.35 0.31 0.28
0.14 0.14 0.11 0.10 0.11 0.11 0.11 0.11 0.12 0.12 0.11 0.10 0.11 0.11 0.11 0.11 0.11 0.10 0.10 0.10 0.10 0.10 0.10 0.11 0.12 0.14 0.18 0.23 0.27 0.29 0.31 0.32 0.37 0.44 0.44 0.41 0.38 0.36 0.36 0.37 0.37 0.35 0.32 0.29

GEFSNGP_prec_meanprecacc_156.txt.gz
Total_Precipitation_Accumulation
0.17 0.13 0.18 0.20 0.16 0.14 0.17 0.16 0.09 0.02 0.00 0.01 0.01 0.01 0.00 0.00 0.00 0.00 0.00 0.00 0.00 0.00 0.01 0.02 0.02 0.03 0.05 0.06 0.06 0.06 0.08 0.12 0.16 0.21 0.24 0.26 0.27 0.28 0.30 0.34 0.38 0.42 0.44 0.45
0.20 0.12 0.14 0.14 0.11 0.11 0.10 0.06 0.03 0.01 0.00 0.00 0.00 0.01 0.00 0.00 0.00 0.01 0.01 0.01 0.01 0.01 0.02 0.04 0.06 0.09 0.10 0.10 0.12 0.16 0.22 0.27 0.30 0.30 0.31 0.33 0.34 0.35 0.37 0.40 0.41 0.42 0.44 0.44
0.27 0.18 0.22 0.19 0.07 0.06 0.05 0.03 0.02 0.01 0.01 0.00 0.00 0.01 0.01 0.01 0.02 0.02 0.02 0.02 0.02 0.03 0.04 0.06 0.15 0.20 0.17 0.14 0.17 0.23 0.29 0.31 0.30 0.28 0.28 0.28 0.29 0.33 0.35 0.33 0.29 0.28 0.28 0.27
0.29 0.29 0.43 0.15 0.04 0.02 0.03 0.03 0.02 0.02 0.01 0.01 0.01 0.01 0.01 0.02 0.02 0.02 0.04 0.05 0.05 0.05 0.05 0.07 0.13 0.15 0.14 0.14 0.17 0.20 0.25 0.29 0.31 0.29 0.28 0.25 0.22 0.22 0.23 0.20 0.18 0.16 0.13 0.12
0.36 0.32 0.22 0.06 0.04 0.05 0.05 0.06 0.05 0.04 0.02 0.01 0.01 0.01 0.02 0.04 0.02 0.03 0.05 0.05 0.05 0.05 0.05 0.06 0.07 0.08 0.09 0.11 0.14 0.18 0.23 0.25 0.25 0.24 0.25 0.24 0.20 0.16 0.14 0.13 0.11 0.09 0.07 0.05
0.39 0.30 0.15 0.07 0.05 0.05 0.05 0.08 0.07 0.05 0.03 0.03 0.06 0.17 0.09 0.06 0.04 0.03 0.03 0.02 0.03 0.03 0.03 0.04 0.05 0.07 0.06 0.07 0.09 0.12 0.15 0.15 0.13 0.12 0.13 0.12 0.08 0.06 0.06 0.06 0.07 0.06 0.05 0.04
0.36 0.23 0.08 0.05 0.05 0.07 0.12 0.15 0.08 0.06 0.05 0.08 0.14 0.21 0.12 0.05 0.04 0.03 0.02 0.01 0.01 0.03 0.04 0.06 0.06 0.06 0.04 0.04 0.07 0.07 0.06 0.05 0.04 0.04 0.04 0.03 0.02 0.02 0.03 0.04 0.05 0.05 0.04 0.03
0.31 0.24 0.09 0.07 0.08 0.13 0.16 0.09 0.06 0.06 0.06 0.09 0.07 0.02 0.02 0.02 0.02 0.01 0.01 0.01 0.02 0.03 0.05 0.06 0.06 0.03 0.02 0.03 0.04 0.03 0.02 0.02 0.01 0.01 0.01 0.01 0.02 0.02 0.02 0.03 0.04 0.04 0.04 0.04
0.25 0.16 0.09 0.10 0.12 0.11 0.08 0.06 0.06 0.08 0.08 0.10 0.08 0.03 0.02 0.02 0.01 0.01 0.01 0.02 0.04 0.06 0.07 0.05 0.03 0.01 0.01 0.01 0.01 0.01 0.00 0.00 0.00 0.01 0.01 0.02 0.02 0.03 0.03 0.04 0.06 0.08 0.08 0.06
0.12 0.06 0.06 0.07 0.08 0.07 0.06 0.05 0.05 0.06 0.10 0.11 0.09 0.04 0.03 0.01 0.01 0.01 0.02 0.03 0.06 0.06 0.05 0.03 0.01 0.00 0.00 0.00 0.00 0.00 0.00 0.00 0.00 0.01 0.02 0.02 0.03 0.03 0.04 0.07 0.17 0.22 0.19 0.15
0.07 0.04 0.04 0.05 0.06 0.06 0.04 0.03 0.03 0.03 0.05 0.08 0.06 0.04 0.03 0.02 0.02 0.02 0.03 0.04 0.04 0.04 0.03 0.02 0.00 0.00 0.00 0.00 0.00 0.00 0.00 0.00 0.01 0.02 0.02 0.03 0.03 0.03 0.05 0.08 0.23 0.39 0.33 0.30
0.07 0.04 0.03 0.03 0.03 0.05 0.05 0.04 0.06 0.06 0.04 0.03 0.04 0.04 0.03 0.02 0.03 0.03 0.03 0.03 0.03 0.03 0.01 0.00 0.00 0.00 0.00 0.00 0.00 0.00 0.01 0.01 0.02 0.03 0.03 0.03 0.04 0.04 0.04 0.07 0.12 0.16 0.20 0.28
0.03 0.02 0.02 0.02 0.02 0.03 0.04 0.06 0.07 0.07 0.05 0.04 0.03 0.03 0.03 0.02 0.03 0.03 0.03 0.03 0.02 0.01 0.00 0.00 0.00 0.00 0.00 0.00 0.00 0.01 0.02 0.03 0.04 0.04 0.05 0.06 0.07 0.09 0.08 0.06 0.05 0.06 0.09 0.16
0.01 0.01 0.02 0.02 0.02 0.02 0.04 0.05 0.06 0.06 0.05 0.03 0.02 0.02 0.02 0.02 0.02 0.02 0.02 0.02 0.01 0.01 0.00 0.00 0.00 0.00 0.00 0.00 0.00 0.01 0.02 0.03 0.05 0.06 0.08 0.09 0.10 0.12 0.13 0.14 0.11 0.06 0.05 0.09
0.01 0.02 0.02 0.02 0.02 0.02 0.03 0.04 0.05 0.05 0.03 0.02 0.02 0.02 0.02 0.02 0.02 0.02 0.02 0.02 0.01 0.00 0.00 0.00 0.00 0.00 0.00 0.00 0.01 0.02 0.02 0.04 0.07 0.09 0.10 0.10 0.12 0.13 0.14 0.14 0.14 0.11 0.08 0.08
0.02 0.02 0.01 0.01 0.01 0.02 0.03 0.04 0.05 0.05 0.03 0.03 0.03 0.03 0.02 0.02 0.01 0.01 0.01 0.01 0.00 0.00 0.00 0.00 0.00 0.01 0.00 0.01 0.02 0.02 0.03 0.06 0.10 0.11 0.11 0.12 0.14 0.16 0.17 0.18 0.17 0.16 0.15 0.14
0.03 0.03 0.02 0.01 0.02 0.03 0.04 0.04 0.05 0.05 0.03 0.03 0.03 0.03 0.02 0.01 0.01 0.01 0.01 0.01 0.01 0.00 0.00 0.00 0.01 0.01 0.01 0.01 0.03 0.04 0.05 0.06 0.09 0.11 0.13 0.15 0.19 0.21 0.23 0.25 0.25 0.21 0.16 0.15
0.03 0.04 0.04 0.03 0.04 0.04 0.05 0.04 0.04 0.04 0.03 0.03 0.03 0.03 0.02 0.02 0.02 0.02 0.01 0.01 0.01 0.00 0.00 0.00 0.02 0.02 0.01 0.02 0.04 0.05 0.08 0.10 0.12 0.16 0.17 0.18 0.22 0.23 0.25 0.27 0.25 0.22 0.16 0.12
0.02 0.03 0.04 0.04 0.06 0.06 0.06 0.04 0.04 0.04 0.03 0.03 0.03 0.03 0.03 0.03 0.03 0.02 0.02 0.02 0.01 0.01 0.01 0.01 0.03 0.02 0.02 0.03 0.08 0.10 0.14 0.17 0.17 0.16 0.16 0.19 0.21 0.19 0.22 0.24 0.23 0.20 0.18 0.16
0.03 0.03 0.04 0.05 0.06 0.06 0.05 0.04 0.04 0.05 0.04 0.03 0.04 0.04 0.04 0.04 0.04 0.03 0.03 0.03 0.02 0.03 0.01 0.03 0.03 0.03 0.04 0.07 0.14 0.19 0.19 0.20 0.20 0.19 0.20 0.21 0.23 0.22 0.22 0.22 0.23 0.21 0.20 0.19
0.05 0.05 0.06 0.07 0.06 0.05 0.05 0.06 0.06 0.06 0.05 0.05 0.05 0.06 0.06 0.06 0.05 0.04 0.04 0.03 0.03 0.03 0.02 0.03 0.04 0.09 0.13 0.17 0.20 0.18 0.18 0.20 0.22 0.24 0.25 0.26 0.26 0.24 0.22 0.23 0.24 0.24 0.23 0.22
0.07 0.08 0.09 0.08 0.06 0.05 0.05 0.06 0.07 0.07 0.07 0.06 0.07 0.07 0.07 0.07 0.06 0.05 0.05 0.04 0.04 0.06 0.05 0.03 0.07 0.16 0.18 0.19 0.16 0.16 0.18 0.20 0.23 0.25 0.27 0.27 0.30 0.30 0.27 0.26 0.28 0.27 0.25 0.24
0.10 0.11 0.10 0.09 0.08 0.06 0.06 0.06 0.06 0.07 0.08 0.08 0.08 0.08 0.09 0.08 0.08 0.07 0.07 0.06 0.06 0.08 0.06 0.06 0.10 0.15 0.18 0.16 0.14 0.15 0.18 0.22 0.26 0.28 0.29 0.30 0.32 0.34 0.33 0.31 0.30 0.30 0.30 0.27
0.12 0.11 0.10 0.09 0.08 0.07 0.07 0.07 0.06 0.07 0.07 0.07 0.08 0.08 0.09 0.09 0.09 0.08 0.09 0.10 0.10 0.10 0.08 0.09 0.12 0.14 0.16 0.15 0.16 0.18 0.22 0.28 0.33 0.35 0.34 0.33 0.33 0.33 0.34 0.34 0.34 0.31 0.29 0.27
0.14 0.13 0.11 0.09 0.09 0.09 0.09 0.08 0.08 0.08 0.08 0.08 0.09 0.09 0.10 0.10 0.11 0.12 0.11 0.12 0.13 0.13 0.12 0.11 0.12 0.14 0.15 0.16 0.20 0.25 0.29 0.33 0.40 0.45 0.42 0.38 0.34 0.33 0.33 0.34 0.35 0.34 0.31 0.28
0.17 0.16 0.14 0.12 0.12 0.12 0.11 0.11 0.10 0.10 0.10 0.10 0.11 0.11 0.12 0.12 0.13 0.13 0.13 0.13 0.13 0.13 0.12 0.12 0.13 0.15 0.17 0.20 0.25 0.29 0.32 0.33 0.37 0.40 0.38 0.36 0.35 0.34 0.34 0.35 0.35 0.35 0.32 0.28
0.17 0.16 0.14 0.13 0.14 0.14 0.13 0.14 0.14 0.15 0.14 0.14 0.15 0.15 0.15 0.15 0.15 0.14 0.14 0.13 0.13 0.12 0.12 0.13 0.15 0.17 0.20 0.25 0.28 0.31 0.32 0.34 0.39 0.45 0.45 0.42 0.38 0.37 0.36 0.37 0.37 0.35 0.32 0.29

GEFSNGP_prec_meanprecacc_162.txt.gz
Total_Precipitation_Accumulation
0.21 0.17 0.23 0.25 0.21 0.20 0.24 0.23 0.15 0.04 0.01 0.01 0.01 0.01 0.01 0.01 0.00 0.00 0.00 0.00 0.00 0.00 0.01 0.02 0.02 0.03 0.05 0.06 0.06 0.06 0.08 0.12 0.16 0.21 0.24 0.26 0.27 0.29 0.32 0.36 0.41 0.44 0.45 0.46
0.22 0.15 0.18 0.18 0.14 0.15 0.15 0.10 0.07 0.03 0.01 0.00 0.01 0.01 0.01 0.01 0.01 0.01 0.01 0.01 0.01 0.01 0.02 0.04 0.06 0.09 0.10 0.10 0.12 0.16 0.22 0.27 0.30 0.30 0.32 0.33 0.34 0.36 0.39 0.42 0.45 0.45 0.47 0.45
0.31 0.21 0.28 0.25 0.10 0.09 0.09 0.06 0.05 0.04 0.02 0.01 0.01 0.01 0.01 0.02 0.03 0.02 0.02 0.02 0.02 0.03 0.04 0.07 0.15 0.20 0.17 0.14 0.17 0.23 0.29 0.31 0.30 0.28 0.28 0.28 0.29 0.33 0.36 0.35 0.32 0.32 0.33 0.32
0.33 0.33 0.50 0.19 0.06 0.04 0.05 0.06 0.05 0.04 0.02 0.02 0.01 0.01 0.01 0.02 0.03 0.03 0.04 0.05 0.05 0.05 0.05 0.07 0.13 0.15 0.14 0.14 0.17 0.20 0.25 0.29 0.31 0.29 0.28 0.26 0.23 0.22 0.23 0.21 0.19 0.17 0.16 0.16
0.41 0.36 0.25 0.09 0.08 0.08 0.09 0.09 0.08 0.06 0.04 0.02 0.01 0.02 0.03 0.04 0.03 0.04 0.05 0.05 0.05 0.05 0.06 0.06 0.07 0.08 0.09 0.11 0.14 0.18 0.23 0.25 0.25 0.24 0.25 0.24 0.20 0.16 0.14 0.13 0.12 0.11 0.08 0.08
0.46 0.36 0.18 0.13 0.10 0.09 0.09 0.13 0.11 0.07 0.05 0.04 0.07 0.19 0.10 0.07 0.04 0.03 0.03 0.03 0.03 0.03 0.04 0.04 0.05 0.07 0.07 0.07 0.09 0.12 0.15 0.15 0.13 0.12 0.13 0.12 0.09 0.07 0.06 0.07 0.07 0.07 0.06 0.05
0.44 0.30 0.11 0.09 0.10 0.12 0.21 0.25 0.15 0.10 0.08 0.10 0.16 0.23 0.13 0.06 0.04 0.03 0.02 0.01 0.01 0.03 0.04 0.06 0.07 0.06 0.04 0.04 0.07 0.07 0.06 0.05 0.04 0.04 0.04 0.03 0.02 0.02 0.03 0.04 0.05 0.05 0.05 0.04
0.40 0.33 0.14 0.11 0.14 0.23 0.29 0.18 0.13 0.11 0.10 0.11 0.09 0.04 0.02 0.03 0.03 0.02 0.02 0.01 0.02 0.03 0.05 0.07 0.06 0.03 0.02 0.03 0.04 0.03 0.02 0.02 0.01 0.01 0.01 0.02 0.02 0.02 0.03 0.03 0.04 0.05 0.05 0.05
0.30 0.21 0.11 0.14 0.18 0.17 0.15 0.12 0.11 0.12 0.11 0.13 0.10 0.05 0.03 0.03 0.02 0.01 0.02 0.02 0.04 0.06 0.07 0.05 0.03 0.01 0.01 0.01 0.01 0.01 0.00 0.01 0.01 0.01 0.01 0.02 0.02 0.03 0.04 0.04 0.07 0.08 0.08 0.07
0.14 0.08 0.07 0.09 0.11 0.11 0.09 0.09 0.08 0.09 0.12 0.14 0.11 0.06 0.04 0.02 0.02 0.01 0.02 0.03 0.06 0.06 0.05 0.03 0.01 0.00 0.00 0.00 0.00 0.00 0.00 0.00 0.01 0.01 0.02 0.02 0.03 0.03 0.05 0.07 0.17 0.22 0.19 0.15
0.08 0.05 0.05 0.06 0.07 0.07 0.06 0.05 0.05 0.05 0.06 0.09 0.09 0.06 0.04 0.03 0.03 0.03 0.04 0.04 0.04 0.04 0.03 0.02 0.00 0.00 0.00 0.00 0.00 0.00 0.00 0.01 0.01 0.02 0.02 0.03 0.03 0.03 0.06 0.08 0.23 0.39 0.33 0.30
0.08 0.05 0.04 0.04 0.04 0.05 0.06 0.06 0.07 0.07 0.05 0.04 0.05 0.05 0.04 0.03 0.03 0.04 0.04 0.04 0.04 0.03 0.01 0.00 0.00 0.00 0.00 0.00 0.00 0.00 0.01 0.01 0.02 0.03 0.03 0.04 0.04 0.04 0.05 0.07 0.13 0.17 0.21 0.29
0.03 0.02 0.02 0.02 0.02 0.03 0.05 0.07 0.08 0.08 0.06 0.04 0.03 0.03 0.03 0.03 0.03 0.03 0.03 0.03 0.03 0.02 0.01 0.00 0.00 0.00 0.00 0.00 0.01 0.01 0.02 0.03 0.04 0.04 0.05 0.06 0.07 0.09 0.09 0.06 0.06 0.07 0.10 0.17
0.01 0.02 0.02 0.02 0.02 0.03 0.04 0.06 0.07 0.06 0.05 0.04 0.03 0.03 0.03 0.02 0.02 0.02 0.03 0.03 0.02 0.01 0.00 0.00 0.00 0.00 0.00 0.00 0.01 0.01 0.02 0.04 0.05 0.06 0.08 0.09 0.11 0.12 0.13 0.14 0.11 0.07 0.06 0.10
0.01 0.02 0.02 0.02 0.02 0.02 0.03 0.04 0.05 0.05 0.03 0.02 0.02 0.03 0.03 0.02 0.02 0.02 0.02 0.02 0.01 0.01 0.00 0.00 0.00 0.00 0.00 0.01 0.01 0.02 0.02 0.04 0.07 0.09 0.10 0.10 0.12 0.14 0.14 0.14 0.14 0.11 0.09 0.09
0.02 0.02 0.01 0.01 0.02 0.03 0.03 0.04 0.05 0.05 0.03 0.03 0.03 0.03 0.03 0.02 0.02 0.01 0.01 0.01 0.01 0.00 0.00 0.00 0.01 0.01 0.01 0.01 0.02 0.03 0.03 0.06 0.10 0.11 0.11 0.12 0.14 0.16 0.18 0.18 0.18 0.16 0.16 0.15
0.03 0.03 0.02 0.01 0.02 0.03 0.04 0.04 0.05 0.05 0.04 0.03 0.03 0.04 0.03 0.02 0.02 0.01 0.01 0.01 0.01 0.00 0.00 0.00 0.01 0.01 0.01 0.02 0.03 0.04 0.05 0.06 0.09 0.12 0.13 0.15 0.19 0.21 0.23 0.25 0.25 0.22 0.17 0.17
0.04 0.04 0.04 0.04 0.04 0.05 0.05 0.05 0.05 0.04 0.03 0.03 0.03 0.04 0.04 0.03 0.03 0.02 0.02 0.02 0.01 0.01 0.01 0.01 0.02 0.02 0.01 0.02 0.05 0.06 0.08 0.10 0.13 0.16 0.17 0.18 0.22 0.24 0.26 0.28 0.26 0.23 0.17 0.14
0.03 0.03 0.04 0.05 0.06 0.07 0.06 0.04 0.04 0.04 0.04 0.03 0.04 0.05 0.05 0.04 0.04 0.04 0.03 0.03 0.02 0.02 0.01 0.02 0.04 0.03 0.02 0.03 0.08 0.10 0.15 0.17 0.17 0.16 0.17 0.20 0.21 0.20 0.23 0.25 0.25 0.22 0.20 0.18
0.04 0.04 0.04 0.06 0.07 0.07 0.06 0.05 0.05 0.05 0.04 0.04 0.05 0.06 0.07 0.06 0.06 0.05 0.05 0.05 0.04 0.04 0.03 0.04 0.05 0.04 0.05 0.08 0.15 0.19 0.20 0.20 0.20 0.20 0.20 0.22 0.24 0.23 0.23 0.24 0.25 0.24 0.22 0.21
0.06 0.06 0.07 0.07 0.06 0.06 0.07 0.07 0.07 0.07 0.06 0.06 0.07 0.08 0.09 0.09 0.08 0.07 0.07 0.06 0.06 0.06 0.05 0.06 0.07 0.11 0.14 0.18 0.20 0.19 0.18 0.21 0.23 0.24 0.26 0.27 0.27 0.26 0.25 0.25 0.26 0.26 0.25 0.24
0.09 0.10 0.10 0.10 0.08 0.07 0.07 0.08 0.08 0.08 0.08 0.08 0.09 0.10 0.10 0.11 0.10 0.09 0.08 0.08 0.08 0.11 0.09 0.07 0.11 0.19 0.21 0.21 0.17 0.16 0.18 0.21 0.24 0.26 0.28 0.29 0.32 0.32 0.30 0.29 0.31 0.29 0.27 0.25
0.12 0.13 0.13 0.12 0.10 0.09 0.08 0.08 0.08 0.09 0.10 0.10 0.11 0.12 0.12 0.13 0.13 0.12 0.12 0.11 0.11 0.13 0.12 0.11 0.15 0.20 0.21 0.18 0.15 0.16 0.19 0.23 0.27 0.30 0.31 0.32 0.35 0.36 0.36 0.33 0.32 0.32 0.31 0.28
0.14 0.13 0.12 0.12 0.11 0.10 0.10 0.09 0.09 0.10 0.10 0.10 0.11 0.11 0.13 0.13 0.14 0.14 0.15 0.15 0.15 0.16 0.14 0.16 0.18 0.20 0.20 0.19 0.19 0.21 0.25 0.31 0.36 0.38 0.37 0.36 0.36 0.36 0.36 0.36 0.36 0.32 0.30 0.29
0.16 0.15 0.13 0.12 0.12 0.12 0.12 0.11 0.11 0.11 0.11 0.11 0.12 0.12 0.13 0.14 0.16 0.17 0.18 0.19 0.19 0.19 0.18 0.19 0.20 0.22 0.21 0.22 0.25 0.30 0.34 0.38 0.44 0.48 0.45 0.41 0.37 0.36 0.35 0.35 0.37 0.36 0.33 0.29
0.20 0.18 0.16 0.15 0.15 0.15 0.14 0.14 0.13 0.13 0.13 0.13 0.14 0.14 0.15 0.17 0.18 0.18 0.19 0.20 0.21 0.20 0.20 0.21 0.22 0.24 0.26 0.28 0.32 0.35 0.37 0.38 0.41 0.44 0.41 0.39 0.38 0.37 0.36 0.36 0.36 0.36 0.33 0.29
0.21 0.19 0.17 0.15 0.16 0.17 0.17 0.17 0.18 0.18 0.17 0.17 0.18 0.19 0.19 0.20 0.20 0.19 0.20 0.21 0.22 0.22 0.22 0.23 0.24 0.26 0.29 0.33 0.36 0.38 0.38 0.39 0.43 0.49 0.48 0.44 0.40 0.39 0.38 0.38 0.38 0.36 0.33 0.30

GEFSNGP_prec_meanprecacc_168.txt.gz
Total_Precipitation_Accumulation
0.23 0.18 0.25 0.27 0.23 0.23 0.30 0.28 0.19 0.05 0.01 0.02 0.02 0.01 0.01 0.01 0.00 0.00 0.00 0.00 0.00 0.00 0.01 0.02 0.02 0.04 0.05 0.06 0.06 0.06 0.08 0.12 0.16 0.21 0.24 0.27 0.28 0.30 0.33 0.37 0.42 0.45 0.46 0.47
0.23 0.16 0.19 0.19 0.16 0.17 0.18 0.13 0.09 0.03 0.01 0.01 0.01 0.01 0.01 0.01 0.01 0.01 0.01 0.01 0.01 0.01 0.02 0.04 0.07 0.10 0.11 0.10 0.12 0.16 0.22 0.27 0.30 0.30 0.32 0.33 0.34 0.36 0.39 0.43 0.45 0.47 0.48 0.46
0.33 0.22 0.30 0.27 0.12 0.11 0.11 0.07 0.07 0.05 0.02 0.01 0.01 0.02 0.02 0.02 0.03 0.03 0.02 0.02 0.02 0.03 0.04 0.07 0.15 0.20 0.17 0.15 0.17 0.23 0.29 0.31 0.30 0.28 0.28 0.28 0.29 0.33 0.36 0.35 0.33 0.33 0.34 0.33
0.38 0.36 0.55 0.22 0.08 0.06 0.07 0.07 0.07 0.06 0.04 0.03 0.02 0.02 0.03 0.03 0.04 0.04 0.05 0.05 0.05 0.05 0.05 0.07 0.13 0.15 0.14 0.14 0.17 0.20 0.25 0.30 0.31 0.29 0.28 0.26 0.23 0.22 0.23 0.22 0.19 0.18 0.17 0.17
0.47 0.41 0.28 0.11 0.10 0.11 0.12 0.12 0.12 0.09 0.06 0.03 0.03 0.03 0.04 0.05 0.04 0.04 0.05 0.05 0.05 0.05 0.06 0.06 0.07 0.08 0.09 0.11 0.14 0.18 0.23 0.25 0.25 0.24 0.25 0.24 0.20 0.16 0.14 0.13 0.13 0.11 0.09 0.08
0.53 0.42 0.21 0.14 0.12 0.11 0.12 0.17 0.16 0.10 0.08 0.06 0.08 0.20 0.12 0.08 0.05 0.04 0.03 0.03 0.03 0.03 0.04 0.04 0.05 0.07 0.07 0.07 0.09 0.12 0.15 0.16 0.13 0.13 0.13 0.12 0.09 0.07 0.06 0.07 0.08 0.07 0.06 0.05
0.50 0.35 0.13 0.10 0.10 0.13 0.25 0.31 0.21 0.14 0.11 0.13 0.19 0.26 0.15 0.07 0.05 0.04 0.02 0.02 0.02 0.03 0.05 0.06 0.07 0.06 0.04 0.05 0.07 0.07 0.07 0.06 0.04 0.04 0.04 0.03 0.02 0.02 0.03 0.04 0.05 0.05 0.05 0.04
0.43 0.38 0.17 0.11 0.15 0.26 0.34 0.22 0.17 0.16 0.13 0.15 0.11 0.06 0.04 0.04 0.04 0.03 0.02 0.02 0.02 0.04 0.05 0.07 0.06 0.03 0.02 0.03 0.04 0.03 0.03 0.02 0.02 0.01 0.01 0.02 0.02 0.03 0.03 0.03 0.05 0.05 0.05 0.05
0.32 0.23 0.12 0.14 0.19 0.19 0.17 0.15 0.13 0.15 0.14 0.15 0.12 0.06 0.04 0.03 0.03 0.02 0.02 0.03 0.04 0.06 0.07 0.05 0.03 0.01 0.01 0.02 0.02 0.01 0.01 0.01 0.01 0.01 0.02 0.02 0.03 0.03 0.04 0.05 0.07 0.08 0.08 0.07
0.16 0.10 0.09 0.10 0.12 0.12 0.10 0.10 0.09 0.10 0.14 0.15 0.13 0.08 0.05 0.03 0.03 0.02 0.03 0.04 0.07 0.07 0.05 0.04 0.01 0.00 0.00 0.00 0.00 0.01 0.01 0.01 0.01 0.02 0.03 0.03 0.03 0.04 0.05 0.08 0.17 0.23 0.19 0.15
0.09 0.06 0.06 0.07 0.07 0.08 0.07 0.06 0.06 0.05 0.07 0.10 0.09 0.07 0.05 0.04 0.03 0.04 0.04 0.05 0.05 0.05 0.04 0.02 0.01 0.00 0.00 0.00 0.01 0.01 0.01 0.01 0.02 0.03 0.03 0.04 0.04 0.04 0.06 0.08 0.23 0.40 0.34 0.30
0.08 0.05 0.05 0.04 0.04 0.06 0.07 0.06 0.08 0.07 0.05 0.04 0.05 0.06 0.05 0.05 0.05 0.04 0.05 0.05 0.05 0.04 0.03 0.01 0.01 0.01 0.00 0.00 0.01 0.01 0.02 0.02 0.03 0.04 0.04 0.05 0.05 0.05 0.06 0.08 0.13 0.17 0.21 0.29
0.03 0.03 0.02 0.02 0.02 0.03 0.05 0.07 0.09 0.08 0.06 0.04 0.04 0.04 0.04 0.04 0.04 0.04 0.04 0.04 0.04 0.03 0.02 0.02 0.02 0.01 0.01 0.01 0.01 0.02 0.03 0.04 0.05 0.06 0.06 0.07 0.08 0.09 0.09 0.07 0.07 0.08 0.11 0.17
0.01 0.02 0.02 0.02 0.03 0.03 0.04 0.06 0.07 0.07 0.05 0.04 0.03 0.03 0.03 0.03 0.03 0.03 0.03 0.03 0.03 0.02 0.02 0.02 0.03 0.01 0.01 0.01 0.01 0.02 0.03 0.05 0.07 0.08 0.09 0.10 0.11 0.12 0.14 0.14 0.11 0.07 0.07 0.11
0.01 0.02 0.02 0.02 0.02 0.03 0.04 0.05 0.06 0.05 0.04 0.02 0.02 0.03 0.03 0.03 0.03 0.03 0.03 0.03 0.02 0.02 0.02 0.02 0.03 0.02 0.01 0.01 0.02 0.03 0.04 0.06 0.10 0.12 0.12 0.12 0.13 0.14 0.14 0.15 0.14 0.12 0.09 0.10
0.02 0.02 0.01 0.01 0.02 0.03 0.03 0.04 0.06 0.05 0.04 0.03 0.03 0.04 0.04 0.03 0.03 0.03 0.02 0.02 0.02 0.01 0.02 0.02 0.03 0.03 0.02 0.02 0.03 0.04 0.04 0.08 0.13 0.14 0.15 0.15 0.16 0.18 0.18 0.19 0.18 0.17 0.16 0.16
0.04 0.03 0.02 0.02 0.02 0.03 0.04 0.05 0.06 0.05 0.04 0.03 0.04 0.04 0.04 0.03 0.03 0.03 0.03 0.02 0.02 0.01 0.01 0.02 0.03 0.04 0.03 0.03 0.05 0.05 0.06 0.08 0.12 0.15 0.16 0.18 0.21 0.23 0.24 0.26 0.25 0.22 0.17 0.17
0.04 0.05 0.04 0.04 0.04 0.05 0.05 0.05 0.05 0.05 0.04 0.03 0.04 0.05 0.05 0.04 0.04 0.04 0.04 0.03 0.03 0.02 0.02 0.02 0.05 0.05 0.04 0.05 0.07 0.08 0.10 0.12 0.14 0.18 0.20 0.20 0.24 0.25 0.27 0.28 0.26 0.23 0.18 0.15
0.03 0.04 0.04 0.05 0.06 0.07 0.06 0.05 0.04 0.05 0.04 0.04 0.05 0.06 0.06 0.06 0.06 0.06 0.05 0.04 0.04 0.04 0.03 0.03 0.06 0.05 0.05 0.06 0.11 0.12 0.16 0.20 0.20 0.18 0.19 0.22 0.23 0.21 0.24 0.26 0.25 0.23 0.21 0.19
0.04 0.04 0.05 0.06 0.07 0.07 0.07 0.06 0.05 0.05 0.05 0.04 0.05 0.07 0.08 0.07 0.08 0.08 0.08 0.07 0.06 0.06 0.05 0.05 0.06 0.07 0.08 0.11 0.18 0.21 0.21 0.22 0.22 0.22 0.22 0.24 0.25 0.25 0.24 0.25 0.26 0.25 0.23 0.22
0.06 0.06 0.07 0.08 0.07 0.07 0.08 0.08 0.08 0.08 0.06 0.06 0.08 0.10 0.10 0.10 0.10 0.10 0.10 0.09 0.08 0.09 0.08 0.07 0.08 0.13 0.17 0.21 0.23 0.22 0.20 0.22 0.24 0.26 0.28 0.28 0.29 0.28 0.26 0.27 0.28 0.28 0.28 0.26
0.09 0.10 0.11 0.11 0.09 0.08 0.09 0.09 0.10 0.10 0.10 0.09 0.10 0.12 0.12 0.13 0.12 0.12 0.11 0.11 0.11 0.14 0.12 0.10 0.12 0.20 0.23 0.24 0.20 0.20 0.21 0.23 0.26 0.28 0.30 0.31 0.34 0.34 0.32 0.31 0.33 0.32 0.31 0.29
0.13 0.13 0.13 0.13 0.12 0.11 0.10 0.10 0.10 0.11 0.12 0.12 0.13 0.14 0.14 0.15 0.15 0.15 0.15 0.14 0.14 0.16 0.16 0.14 0.18 0.22 0.23 0.20 0.18 0.19 0.23 0.27 0.30 0.33 0.34 0.35 0.37 0.39 0.39 0.37 0.36 0.35 0.35 0.33
0.15 0.14 0.13 0.13 0.12 0.12 0.11 0.11 0.11 0.11 0.12 0.12 0.12 0.13 0.15 0.16 0.16 0.17 0.18 0.19 0.19 0.19 0.18 0.20 0.22 0.23 0.24 0.22 0.22 0.25 0.30 0.35 0.40 0.41 0.40 0.40 0.39 0.39 0.40 0.40 0.40 0.37 0.35 0.33
0.18 0.16 0.14 0.13 0.14 0.14 0.13 0.12 0.12 0.12 0.13 0.13 0.13 0.14 0.16 0.17 0.18 0.20 0.21 0.23 0.23 0.23 0.23 0.24 0.26 0.27 0.26 0.27 0.31 0.35 0.39 0.43 0.50 0.54 0.50 0.45 0.41 0.39 0.38 0.39 0.40 0.39 0.36 0.33
0.21 0.20 0.18 0.16 0.17 0.17 0.16 0.16 0.15 0.15 0.15 0.16 0.16 0.17 0.18 0.19 0.21 0.22 0.23 0.25 0.26 0.25 0.25 0.27 0.29 0.31 0.32 0.35 0.39 0.42 0.44 0.44 0.48 0.50 0.47 0.45 0.42 0.41 0.39 0.40 0.39 0.38 0.35 0.32
0.23 0.22 0.19 0.17 0.18 0.19 0.19 0.20 0.21 0.21 0.21 0.21 0.22 0.23 0.22 0.23 0.24 0.23 0.24 0.25 0.27 0.27 0.27 0.29 0.32 0.34 0.37 0.41 0.44 0.46 0.46 0.46 0.50 0.55 0.55 0.50 0.45 0.43 0.41 0.41 0.41 0.38 0.35 0.32

GEFSNGP_prec_meanprecacc_174.txt.gz
Total_Precipitation_Accumulation
0.24 0.19 0.26 0.29 0.25 0.26 0.33 0.31 0.20 0.05 0.02 0.03 0.03 0.03 0.03 0.02 0.02 0.02 0.02 0.02 0.01 0.01 0.02 0.04 0.05 0.06 0.09 0.10 0.10 0.10 0.11 0.14 0.19 0.23 0.26 0.28 0.30 0.32 0.34 0.38 0.43 0.46 0.47 0.47
0.24 0.16 0.20 0.20 0.16 0.19 0.20 0.15 0.11 0.04 0.02 0.02 0.02 0.02 0.02 0.03 0.02 0.02 0.02 0.02 0.02 0.02 0.03 0.04 0.08 0.12 0.15 0.16 0.17 0.20 0.25 0.30 0.32 0.32 0.33 0.35 0.36 0.38 0.41 0.45 0.47 0.48 0.49 0.47
0.35 0.23 0.31 0.28 0.13 0.12 0.12 0.09 0.08 0.07 0.04 0.03 0.03 0.03 0.04 0.05 0.06 0.05 0.04 0.04 0.04 0.05 0.05 0.07 0.15 0.22 0.20 0.20 0.23 0.28 0.33 0.34 0.32 0.29 0.29 0.30 0.31 0.34 0.38 0.37 0.34 0.34 0.35 0.34
0.40 0.38 0.57 0.24 0.09 0.06 0.08 0.09 0.09 0.09 0.06 0.05 0.04 0.04 0.04 0.06 0.07 0.06 0.06 0.07 0.07 0.08 0.07 0.09 0.14 0.16 0.15 0.17 0.21 0.24 0.29 0.33 0.34 0.32 0.30 0.27 0.23 0.23 0.24 0.23 0.22 0.20 0.18 0.18
0.50 0.43 0.28 0.11 0.10 0.11 0.13 0.14 0.14 0.11 0.07 0.05 0.04 0.03 0.05 0.08 0.06 0.06 0.06 0.06 0.07 0.07 0.09 0.10 0.10 0.10 0.11 0.12 0.16 0.20 0.25 0.27 0.28 0.27 0.27 0.25 0.20 0.17 0.15 0.14 0.14 0.13 0.10 0.09
0.57 0.44 0.22 0.15 0.12 0.12 0.13 0.20 0.17 0.12 0.10 0.08 0.10 0.21 0.13 0.10 0.07 0.06 0.04 0.03 0.04 0.04 0.05 0.06 0.08 0.08 0.08 0.08 0.11 0.14 0.17 0.17 0.15 0.15 0.16 0.14 0.10 0.08 0.07 0.08 0.08 0.08 0.08 0.07
0.53 0.37 0.14 0.10 0.10 0.13 0.27 0.33 0.22 0.16 0.13 0.15 0.21 0.28 0.17 0.09 0.07 0.05 0.04 0.03 0.03 0.03 0.05 0.07 0.08 0.07 0.05 0.05 0.08 0.09 0.08 0.07 0.06 0.06 0.06 0.05 0.04 0.04 0.04 0.05 0.06 0.06 0.06 0.05
0.45 0.41 0.18 0.12 0.15 0.26 0.35 0.23 0.18 0.17 0.15 0.16 0.13 0.07 0.05 0.05 0.05 0.04 0.04 0.03 0.04 0.05 0.06 0.07 0.07 0.05 0.03 0.04 0.05 0.04 0.04 0.04 0.03 0.03 0.03 0.03 0.04 0.04 0.04 0.05 0.06 0.07 0.07 0.07
0.34 0.24 0.13 0.15 0.20 0.20 0.17 0.15 0.13 0.15 0.14 0.16 0.13 0.07 0.05 0.04 0.03 0.03 0.03 0.04 0.05 0.07 0.08 0.07 0.04 0.03 0.02 0.02 0.02 0.02 0.03 0.03 0.03 0.03 0.03 0.04 0.04 0.05 0.06 0.06 0.09 0.10 0.10 0.09
0.17 0.10 0.10 0.11 0.13 0.13 0.11 0.10 0.10 0.10 0.14 0.16 0.13 0.08 0.05 0.04 0.03 0.03 0.03 0.04 0.07 0.07 0.06 0.05 0.03 0.02 0.02 0.01 0.01 0.02 0.03 0.03 0.03 0.04 0.04 0.05 0.05 0.05 0.07 0.10 0.19 0.24 0.20 0.16
0.10 0.06 0.07 0.08 0.09 0.09 0.08 0.06 0.06 0.06 0.07 0.10 0.10 0.07 0.06 0.05 0.04 0.05 0.06 0.06 0.06 0.06 0.05 0.03 0.02 0.02 0.02 0.02 0.02 0.03 0.03 0.04 0.05 0.05 0.06 0.06 0.07 0.06 0.08 0.10 0.25 0.41 0.35 0.32
0.09 0.05 0.05 0.05 0.05 0.06 0.07 0.07 0.08 0.08 0.05 0.05 0.06 0.06 0.06 0.05 0.06 0.06 0.07 0.06 0.06 0.04 0.03 0.02 0.02 0.03 0.03 0.02 0.03 0.04 0.05 0.05 0.06 0.07 0.07 0.08 0.09 0.09 0.09 0.10 0.16 0.20 0.23 0.31
0.03 0.03 0.02 0.02 0.03 0.04 0.06 0.08 0.09 0.09 0.07 0.05 0.04 0.04 0.05 0.05 0.06 0.06 0.06 0.06 0.05 0.03 0.02 0.03 0.03 0.03 0.03 0.03 0.03 0.05 0.07 0.07 0.08 0.08 0.09 0.11 0.12 0.14 0.14 0.11 0.12 0.12 0.14 0.20
0.01 0.02 0.02 0.02 0.03 0.03 0.05 0.06 0.07 0.07 0.06 0.05 0.04 0.03 0.04 0.04 0.04 0.05 0.05 0.05 0.03 0.03 0.02 0.03 0.04 0.03 0.04 0.04 0.04 0.05 0.06 0.09 0.10 0.10 0.11 0.13 0.15 0.17 0.18 0.18 0.15 0.11 0.11 0.15
0.01 0.02 0.02 0.02 0.02 0.03 0.04 0.05 0.06 0.06 0.04 0.03 0.03 0.03 0.04 0.04 0.05 0.05 0.05 0.04 0.03 0.03 0.03 0.03 0.04 0.04 0.04 0.05 0.05 0.06 0.07 0.09 0.13 0.15 0.15 0.15 0.16 0.18 0.19 0.19 0.18 0.15 0.12 0.13
0.02 0.02 0.02 0.02 0.02 0.03 0.04 0.05 0.06 0.06 0.04 0.03 0.03 0.04 0.04 0.04 0.04 0.04 0.03 0.03 0.02 0.02 0.03 0.04 0.05 0.05 0.05 0.05 0.07 0.07 0.07 0.11 0.16 0.18 0.18 0.19 0.19 0.20 0.21 0.22 0.21 0.20 0.19 0.18
0.04 0.03 0.02 0.02 0.02 0.03 0.04 0.05 0.06 0.07 0.05 0.03 0.04 0.04 0.04 0.04 0.04 0.04 0.03 0.03 0.02 0.02 0.02 0.04 0.06 0.07 0.07 0.07 0.09 0.10 0.10 0.11 0.15 0.19 0.21 0.22 0.25 0.26 0.26 0.28 0.28 0.24 0.19 0.19
0.05 0.05 0.05 0.04 0.05 0.05 0.06 0.06 0.06 0.07 0.05 0.04 0.04 0.05 0.05 0.05 0.05 0.05 0.04 0.04 0.03 0.03 0.03 0.04 0.07 0.08 0.09 0.10 0.12 0.12 0.14 0.15 0.17 0.21 0.24 0.25 0.28 0.29 0.30 0.31 0.29 0.26 0.19 0.16
0.04 0.04 0.05 0.05 0.07 0.08 0.07 0.05 0.05 0.06 0.05 0.05 0.05 0.06 0.07 0.07 0.07 0.07 0.06 0.05 0.04 0.05 0.04 0.05 0.09 0.09 0.10 0.12 0.17 0.19 0.22 0.24 0.23 0.21 0.22 0.27 0.28 0.26 0.27 0.29 0.28 0.26 0.23 0.21
0.05 0.04 0.05 0.07 0.07 0.08 0.07 0.06 0.05 0.06 0.06 0.06 0.06 0.08 0.08 0.09 0.09 0.09 0.09 0.08 0.07 0.08 0.06 0.07 0.09 0.09 0.12 0.17 0.25 0.28 0.29 0.28 0.27 0.25 0.26 0.28 0.29 0.29 0.28 0.29 0.30 0.28 0.27 0.24
0.07 0.07 0.08 0.08 0.07 0.07 0.08 0.08 0.08 0.08 0.08 0.08 0.09 0.11 0.11 0.11 0.11 0.11 0.11 0.10 0.10 0.10 0.10 0.10 0.11 0.16 0.20 0.26 0.30 0.28 0.27 0.29 0.30 0.31 0.32 0.32 0.33 0.32 0.31 0.32 0.32 0.33 0.32 0.30
0.10 0.10 0.11 0.11 0.09 0.09 0.09 0.10 0.10 0.11 0.11 0.11 0.12 0.13 0.13 0.14 0.13 0.13 0.13 0.12 0.13 0.16 0.15 0.13 0.15 0.23 0.26 0.28 0.25 0.26 0.27 0.30 0.32 0.33 0.35 0.35 0.38 0.39 0.36 0.36 0.37 0.36 0.35 0.33
0.13 0.14 0.14 0.13 0.12 0.11 0.10 0.10 0.11 0.12 0.13 0.14 0.15 0.15 0.16 0.16 0.16 0.16 0.17 0.15 0.15 0.19 0.19 0.18 0.22 0.25 0.27 0.25 0.23 0.25 0.29 0.32 0.36 0.38 0.39 0.40 0.42 0.44 0.44 0.42 0.41 0.40 0.39 0.36
0.16 0.15 0.14 0.13 0.13 0.12 0.11 0.11 0.11 0.12 0.13 0.13 0.14 0.15 0.16 0.17 0.17 0.17 0.19 0.20 0.21 0.22 0.21 0.24 0.27 0.27 0.27 0.26 0.27 0.30 0.35 0.41 0.45 0.47 0.46 0.46 0.46 0.45 0.45 0.46 0.45 0.41 0.39 0.36
0.19 0.17 0.15 0.13 0.14 0.15 0.14 0.13 0.12 0.12 0.13 0.14 0.14 0.16 0.17 0.18 0.20 0.21 0.22 0.24 0.26 0.26 0.27 0.29 0.30 0.31 0.30 0.31 0.36 0.41 0.46 0.50 0.57 0.61 0.57 0.53 0.49 0.47 0.45 0.46 0.46 0.45 0.41 0.37
0.22 0.21 0.19 0.17 0.18 0.18 0.17 0.17 0.16 0.16 0.16 0.17 0.18 0.18 0.20 0.21 0.23 0.24 0.25 0.27 0.29 0.29 0.29 0.31 0.33 0.36 0.38 0.40 0.44 0.49 0.51 0.52 0.56 0.58 0.55 0.53 0.50 0.49 0.47 0.47 0.46 0.45 0.41 0.37
0.24 0.22 0.20 0.18 0.19 0.20 0.20 0.21 0.22 0.22 0.22 0.23 0.24 0.25 0.25 0.26 0.26 0.26 0.27 0.29 0.31 0.32 0.31 0.33 0.36 0.39 0.43 0.48 0.51 0.53 0.54 0.55 0.58 0.63 0.63 0.59 0.54 0.52 0.50 0.49 0.48 0.45 0.42 0.38

GEFSNGP_prec_meanprecacc_180.txt.gz
Total_Precipitation_Accumulation
0.25 0.20 0.27 0.31 0.26 0.28 0.36 0.34 0.24 0.07 0.04 0.04 0.05 0.05 0.04 0.03 0.02 0.02 0.03 0.02 0.02 0.02 0.03 0.05 0.06 0.07 0.11 0.13 0.12 0.13 0.15 0.21 0.29 0.33 0.35 0.38 0.42 0.46 0.47 0.47 0.48 0.49 0.49 0.48
0.26 0.17 0.21 0.21 0.17 0.19 0.21 0.17 0.13 0.06 0.04 0.03 0.03 0.04 0.03 0.03 0.03 0.03 0.03 0.03 0.03 0.03 0.04 0.05 0.09 0.14 0.16 0.18 0.20 0.23 0.29 0.35 0.39 0.41 0.42 0.43 0.46 0.50 0.55 0.56 0.55 0.53 0.52 0.49
0.36 0.23 0.33 0.29 0.13 0.12 0.13 0.10 0.09 0.08 0.04 0.03 0.03 0.04 0.05 0.05 0.06 0.06 0.04 0.04 0.05 0.05 0.06 0.09 0.17 0.23 0.21 0.22 0.26 0.31 0.36 0.38 0.38 0.38 0.39 0.38 0.39 0.44 0.49 0.48 0.45 0.42 0.40 0.37
0.44 0.40 0.60 0.25 0.09 0.06 0.09 0.09 0.10 0.10 0.07 0.05 0.05 0.05 0.05 0.07 0.07 0.06 0.07 0.08 0.08 0.09 0.09 0.11 0.16 0.18 0.17 0.19 0.24 0.28 0.32 0.36 0.38 0.38 0.39 0.36 0.32 0.31 0.33 0.32 0.31 0.29 0.25 0.23
0.55 0.47 0.30 0.12 0.10 0.11 0.13 0.14 0.14 0.12 0.08 0.05 0.04 0.04 0.06 0.08 0.07 0.07 0.07 0.07 0.07 0.08 0.10 0.11 0.12 0.13 0.13 0.15 0.20 0.24 0.28 0.30 0.32 0.33 0.35 0.34 0.30 0.25 0.22 0.22 0.22 0.22 0.18 0.15
0.62 0.48 0.23 0.15 0.12 0.12 0.13 0.20 0.17 0.12 0.10 0.08 0.10 0.22 0.14 0.10 0.07 0.07 0.05 0.04 0.04 0.05 0.06 0.08 0.10 0.11 0.10 0.11 0.14 0.18 0.20 0.20 0.20 0.20 0.22 0.22 0.18 0.15 0.14 0.14 0.15 0.15 0.14 0.13
0.57 0.41 0.15 0.10 0.10 0.13 0.27 0.34 0.23 0.16 0.13 0.15 0.22 0.29 0.17 0.09 0.07 0.06 0.04 0.03 0.03 0.04 0.06 0.08 0.10 0.09 0.07 0.08 0.11 0.12 0.12 0.10 0.10 0.10 0.11 0.12 0.11 0.10 0.10 0.11 0.12 0.12 0.12 0.11
0.47 0.45 0.19 0.12 0.15 0.27 0.36 0.23 0.18 0.17 0.15 0.16 0.13 0.07 0.05 0.05 0.05 0.04 0.04 0.04 0.04 0.05 0.07 0.08 0.08 0.06 0.05 0.06 0.07 0.07 0.07 0.07 0.07 0.08 0.08 0.09 0.11 0.11 0.10 0.11 0.13 0.13 0.12 0.12
0.35 0.25 0.13 0.15 0.20 0.20 0.17 0.15 0.13 0.15 0.14 0.16 0.13 0.07 0.05 0.04 0.03 0.03 0.04 0.04 0.05 0.08 0.09 0.07 0.05 0.04 0.04 0.04 0.05 0.05 0.05 0.06 0.06 0.08 0.08 0.09 0.10 0.11 0.12 0.12 0.15 0.16 0.15 0.14
0.17 0.11 0.10 0.11 0.13 0.13 0.11 0.11 0.10 0.11 0.15 0.16 0.14 0.08 0.06 0.04 0.03 0.03 0.04 0.05 0.08 0.08 0.06 0.05 0.04 0.03 0.03 0.03 0.04 0.05 0.06 0.07 0.07 0.09 0.09 0.10 0.10 0.11 0.12 0.16 0.25 0.29 0.25 0.20
0.11 0.06 0.07 0.08 0.09 0.10 0.08 0.07 0.07 0.06 0.07 0.11 0.10 0.08 0.06 0.05 0.04 0.05 0.06 0.06 0.07 0.06 0.05 0.04 0.03 0.03 0.03 0.03 0.04 0.06 0.07 0.08 0.09 0.10 0.11 0.11 0.12 0.11 0.12 0.14 0.30 0.46 0.39 0.36
0.09 0.06 0.05 0.05 0.05 0.07 0.07 0.07 0.09 0.09 0.06 0.05 0.06 0.06 0.06 0.06 0.06 0.07 0.07 0.07 0.06 0.05 0.03 0.02 0.03 0.03 0.03 0.03 0.04 0.07 0.09 0.09 0.11 0.12 0.13 0.12 0.14 0.13 0.12 0.13 0.20 0.24 0.27 0.36
0.03 0.03 0.02 0.02 0.03 0.04 0.06 0.08 0.09 0.09 0.07 0.05 0.05 0.05 0.06 0.06 0.07 0.07 0.07 0.06 0.05 0.04 0.03 0.03 0.03 0.03 0.04 0.04 0.05 0.08 0.11 0.12 0.13 0.14 0.15 0.15 0.16 0.18 0.17 0.15 0.16 0.17 0.18 0.24
0.01 0.02 0.02 0.02 0.03 0.03 0.05 0.06 0.07 0.07 0.06 0.05 0.04 0.04 0.05 0.05 0.06 0.06 0.06 0.06 0.04 0.03 0.03 0.03 0.04 0.04 0.04 0.05 0.06 0.08 0.12 0.16 0.17 0.17 0.18 0.18 0.19 0.20 0.22 0.21 0.19 0.16 0.17 0.21
0.01 0.02 0.02 0.02 0.02 0.03 0.04 0.05 0.06 0.06 0.04 0.03 0.03 0.04 0.05 0.06 0.07 0.07 0.06 0.05 0.04 0.03 0.03 0.04 0.05 0.04 0.04 0.06 0.07 0.10 0.13 0.17 0.21 0.22 0.22 0.21 0.20 0.22 0.23 0.22 0.21 0.18 0.17 0.22
0.02 0.02 0.02 0.02 0.02 0.03 0.04 0.05 0.06 0.06 0.05 0.04 0.04 0.04 0.05 0.06 0.06 0.07 0.05 0.04 0.03 0.03 0.03 0.05 0.06 0.06 0.05 0.07 0.09 0.11 0.14 0.20 0.25 0.27 0.26 0.26 0.25 0.25 0.26 0.27 0.26 0.24 0.25 0.24
0.04 0.03 0.02 0.02 0.02 0.04 0.04 0.05 0.06 0.07 0.05 0.04 0.05 0.05 0.05 0.05 0.05 0.05 0.05 0.04 0.03 0.03 0.03 0.05 0.07 0.08 0.08 0.09 0.12 0.13 0.16 0.20 0.25 0.28 0.29 0.29 0.32 0.32 0.31 0.33 0.33 0.29 0.24 0.25
0.05 0.05 0.05 0.05 0.05 0.05 0.06 0.06 0.06 0.07 0.05 0.04 0.05 0.06 0.06 0.06 0.06 0.05 0.05 0.04 0.04 0.03 0.04 0.05 0.08 0.10 0.10 0.12 0.15 0.16 0.19 0.22 0.26 0.30 0.31 0.32 0.35 0.35 0.35 0.36 0.34 0.31 0.24 0.23
0.04 0.04 0.05 0.05 0.07 0.08 0.07 0.05 0.05 0.06 0.05 0.05 0.06 0.07 0.07 0.08 0.07 0.07 0.06 0.05 0.05 0.05 0.05 0.06 0.10 0.10 0.12 0.15 0.20 0.22 0.27 0.30 0.31 0.29 0.30 0.34 0.35 0.32 0.34 0.35 0.34 0.31 0.28 0.27
0.05 0.04 0.05 0.07 0.07 0.08 0.07 0.06 0.05 0.06 0.06 0.06 0.07 0.08 0.09 0.09 0.09 0.10 0.09 0.09 0.08 0.09 0.07 0.09 0.11 0.11 0.14 0.19 0.27 0.31 0.33 0.33 0.34 0.33 0.33 0.35 0.36 0.36 0.35 0.36 0.36 0.34 0.32 0.30
0.07 0.07 0.08 0.08 0.07 0.07 0.08 0.08 0.08 0.08 0.08 0.08 0.10 0.11 0.12 0.12 0.12 0.12 0.12 0.11 0.11 0.12 0.11 0.11 0.12 0.18 0.22 0.28 0.32 0.31 0.31 0.34 0.36 0.38 0.39 0.39 0.39 0.38 0.37 0.38 0.38 0.39 0.39 0.36
0.10 0.11 0.11 0.11 0.10 0.09 0.09 0.10 0.10 0.11 0.11 0.11 0.12 0.14 0.14 0.14 0.14 0.14 0.14 0.13 0.13 0.17 0.17 0.15 0.17 0.25 0.28 0.30 0.27 0.28 0.30 0.34 0.38 0.40 0.42 0.42 0.44 0.45 0.43 0.42 0.44 0.43 0.43 0.41
0.13 0.14 0.14 0.14 0.12 0.11 0.10 0.11 0.11 0.13 0.14 0.14 0.16 0.16 0.17 0.17 0.18 0.18 0.18 0.16 0.17 0.20 0.20 0.20 0.24 0.28 0.29 0.27 0.25 0.27 0.32 0.36 0.41 0.45 0.45 0.46 0.48 0.51 0.51 0.49 0.48 0.47 0.46 0.44
0.16 0.15 0.14 0.14 0.13 0.13 0.12 0.12 0.12 0.12 0.13 0.13 0.15 0.16 0.18 0.19 0.19 0.19 0.20 0.22 0.23 0.23 0.23 0.26 0.29 0.30 0.29 0.28 0.29 0.33 0.39 0.46 0.51 0.53 0.53 0.53 0.53 0.52 0.53 0.54 0.53 0.49 0.46 0.43
0.19 0.18 0.16 0.14 0.15 0.15 0.15 0.14 0.13 0.13 0.13 0.14 0.15 0.17 0.19 0.20 0.22 0.23 0.24 0.26 0.28 0.28 0.29 0.31 0.33 0.34 0.32 0.33 0.38 0.44 0.50 0.55 0.63 0.67 0.64 0.60 0.56 0.54 0.53 0.54 0.54 0.53 0.49 0.44
0.23 0.22 0.20 0.18 0.19 0.18 0.18 0.17 0.17 0.16 0.17 0.18 0.18 0.19 0.21 0.23 0.25 0.26 0.27 0.29 0.31 0.31 0.31 0.34 0.36 0.38 0.40 0.43 0.48 0.52 0.55 0.57 0.62 0.65 0.62 0.61 0.59 0.57 0.55 0.55 0.54 0.52 0.49 0.44
0.24 0.23 0.20 0.19 0.20 0.21 0.21 0.22 0.23 0.23 0.23 0.24 0.25 0.26 0.26 0.28 0.29 0.29 0.29 0.31 0.33 0.34 0.34 0.36 0.39 0.42 0.46 0.51 0.55 0.57 0.59 0.59 0.62 0.69 0.70 0.66 0.63 0.61 0.59 0.58 0.56 0.53 0.49 0.45

GEFSNGP_prec_meanprecacc_186.txt.gz
Total_Precipitation_Accumulation
0.26 0.20 0.28 0.31 0.27 0.29 0.38 0.36 0.26 0.09 0.04 0.05 0.07 0.07 0.06 0.05 0.04 0.03 0.03 0.03 0.02 0.03 0.05 0.08 0.11 0.13 0.18 0.19 0.18 0.18 0.21 0.30 0.39 0.42 0.45 0.50 0.53 0.58 0.64 0.68 0.67 0.63 0.59 0.55
0.27 0.17 0.21 0.22 0.18 0.20 0.22 0.18 0.14 0.07 0.04 0.03 0.04 0.05 0.05 0.05 0.05 0.04 0.04 0.04 0.04 0.04 0.05 0.07 0.12 0.18 0.22 0.25 0.26 0.29 0.35 0.41 0.48 0.52 0.54 0.55 0.56 0.60 0.69 0.74 0.75 0.72 0.66 0.58
0.39 0.24 0.34 0.31 0.14 0.12 0.13 0.10 0.10 0.09 0.05 0.03 0.04 0.05 0.06 0.06 0.08 0.08 0.06 0.06 0.06 0.06 0.06 0.10 0.19 0.27 0.25 0.27 0.31 0.37 0.43 0.44 0.43 0.46 0.53 0.52 0.50 0.53 0.60 0.63 0.60 0.59 0.57 0.49
0.49 0.42 0.62 0.26 0.09 0.06 0.09 0.09 0.10 0.10 0.07 0.05 0.05 0.05 0.06 0.08 0.08 0.07 0.08 0.09 0.09 0.10 0.10 0.12 0.17 0.21 0.19 0.21 0.27 0.32 0.35 0.41 0.43 0.43 0.47 0.51 0.48 0.42 0.42 0.44 0.46 0.43 0.40 0.36
0.62 0.50 0.31 0.12 0.10 0.11 0.13 0.14 0.14 0.12 0.09 0.06 0.04 0.04 0.06 0.08 0.07 0.07 0.07 0.08 0.08 0.09 0.11 0.12 0.13 0.14 0.15 0.16 0.21 0.27 0.30 0.32 0.36 0.37 0.40 0.43 0.46 0.40 0.34 0.33 0.35 0.36 0.34 0.29
0.69 0.53 0.25 0.15 0.12 0.12 0.13 0.20 0.17 0.12 0.10 0.08 0.10 0.22 0.14 0.10 0.07 0.07 0.05 0.04 0.05 0.05 0.07 0.09 0.10 0.12 0.12 0.12 0.16 0.21 0.21 0.21 0.21 0.23 0.28 0.28 0.28 0.29 0.27 0.27 0.27 0.28 0.30 0.29
0.61 0.45 0.16 0.10 0.10 0.14 0.27 0.34 0.23 0.16 0.14 0.15 0.22 0.29 0.18 0.09 0.07 0.06 0.04 0.04 0.03 0.04 0.06 0.09 0.10 0.10 0.08 0.09 0.12 0.15 0.14 0.11 0.11 0.13 0.15 0.16 0.18 0.20 0.23 0.24 0.25 0.25 0.25 0.27
0.49 0.49 0.21 0.12 0.15 0.27 0.36 0.23 0.18 0.17 0.15 0.17 0.13 0.08 0.05 0.05 0.05 0.04 0.04 0.04 0.04 0.06 0.07 0.09 0.08 0.07 0.06 0.08 0.09 0.10 0.11 0.08 0.09 0.10 0.11 0.13 0.16 0.19 0.22 0.23 0.26 0.27 0.27 0.28
0.36 0.26 0.13 0.15 0.20 0.20 0.17 0.15 0.13 0.15 0.14 0.16 0.13 0.07 0.05 0.04 0.04 0.03 0.04 0.04 0.05 0.08 0.09 0.08 0.05 0.04 0.04 0.06 0.07 0.08 0.10 0.09 0.09 0.11 0.13 0.14 0.16 0.18 0.23 0.25 0.28 0.30 0.29 0.29
0.18 0.11 0.11 0.12 0.14 0.13 0.11 0.11 0.10 0.11 0.15 0.16 0.14 0.09 0.06 0.04 0.03 0.03 0.04 0.05 0.08 0.08 0.07 0.06 0.04 0.03 0.03 0.04 0.06 0.09 0.11 0.12 0.11 0.13 0.14 0.15 0.17 0.18 0.22 0.27 0.36 0.41 0.38 0.34
0.11 0.06 0.07 0.09 0.10 0.10 0.08 0.07 0.07 0.06 0.07 0.11 0.10 0.08 0.06 0.05 0.04 0.05 0.06 0.06 0.07 0.06 0.05 0.04 0.03 0.03 0.03 0.03 0.05 0.09 0.12 0.15 0.15 0.16 0.16 0.17 0.18 0.18 0.21 0.24 0.39 0.55 0.49 0.47
0.09 0.06 0.05 0.05 0.05 0.07 0.08 0.07 0.09 0.09 0.06 0.05 0.06 0.06 0.06 0.06 0.06 0.07 0.07 0.07 0.06 0.05 0.04 0.02 0.03 0.03 0.03 0.03 0.05 0.08 0.13 0.16 0.18 0.19 0.18 0.18 0.19 0.20 0.21 0.22 0.28 0.32 0.35 0.44
0.03 0.03 0.03 0.02 0.03 0.04 0.06 0.08 0.09 0.09 0.07 0.06 0.05 0.05 0.06 0.06 0.07 0.07 0.07 0.07 0.06 0.04 0.03 0.03 0.03 0.03 0.04 0.04 0.05 0.09 0.14 0.17 0.20 0.20 0.21 0.21 0.21 0.24 0.24 0.22 0.24 0.24 0.26 0.32
0.01 0.02 0.02 0.02 0.03 0.03 0.05 0.06 0.07 0.07 0.06 0.05 0.04 0.04 0.05 0.06 0.06 0.07 0.07 0.06 0.04 0.04 0.03 0.04 0.04 0.04 0.04 0.05 0.07 0.09 0.14 0.19 0.22 0.21 0.23 0.24 0.25 0.26 0.27 0.27 0.27 0.24 0.25 0.28
0.02 0.02 0.02 0.02 0.02 0.03 0.04 0.05 0.06 0.06 0.04 0.03 0.03 0.04 0.06 0.06 0.07 0.08 0.07 0.06 0.04 0.04 0.04 0.04 0.05 0.05 0.05 0.06 0.08 0.10 0.14 0.20 0.24 0.25 0.25 0.25 0.26 0.28 0.29 0.28 0.27 0.24 0.24 0.29
0.03 0.02 0.02 0.02 0.02 0.03 0.04 0.05 0.06 0.06 0.05 0.04 0.04 0.05 0.06 0.06 0.07 0.07 0.06 0.04 0.03 0.03 0.04 0.05 0.07 0.07 0.06 0.07 0.10 0.12 0.15 0.23 0.29 0.30 0.29 0.30 0.30 0.31 0.32 0.33 0.31 0.29 0.29 0.30
0.04 0.03 0.02 0.02 0.02 0.04 0.04 0.05 0.06 0.07 0.05 0.04 0.05 0.06 0.06 0.06 0.05 0.05 0.05 0.05 0.04 0.03 0.04 0.06 0.08 0.09 0.09 0.10 0.13 0.14 0.17 0.22 0.29 0.31 0.32 0.34 0.38 0.37 0.37 0.39 0.38 0.34 0.29 0.29
0.05 0.05 0.05 0.05 0.05 0.05 0.06 0.06 0.06 0.07 0.05 0.05 0.05 0.06 0.07 0.07 0.06 0.06 0.06 0.05 0.05 0.04 0.04 0.05 0.09 0.10 0.11 0.12 0.15 0.16 0.20 0.25 0.29 0.33 0.36 0.38 0.42 0.41 0.40 0.41 0.39 0.36 0.29 0.28
0.04 0.05 0.05 0.05 0.07 0.08 0.07 0.05 0.05 0.06 0.06 0.05 0.06 0.07 0.08 0.09 0.08 0.08 0.07 0.06 0.06 0.06 0.05 0.07 0.11 0.11 0.12 0.16 0.21 0.23 0.28 0.33 0.34 0.33 0.34 0.40 0.43 0.39 0.40 0.41 0.40 0.37 0.34 0.32
0.05 0.05 0.06 0.07 0.07 0.08 0.07 0.06 0.05 0.06 0.06 0.06 0.07 0.09 0.10 0.10 0.10 0.10 0.10 0.09 0.08 0.09 0.07 0.09 0.11 0.12 0.15 0.20 0.28 0.32 0.35 0.36 0.37 0.37 0.38 0.41 0.43 0.42 0.41 0.42 0.42 0.41 0.39 0.37
0.07 0.07 0.08 0.08 0.07 0.07 0.08 0.08 0.09 0.09 0.08 0.08 0.10 0.12 0.13 0.13 0.13 0.12 0.12 0.12 0.11 0.12 0.11 0.12 0.13 0.18 0.23 0.29 0.34 0.33 0.34 0.37 0.40 0.43 0.44 0.45 0.45 0.44 0.43 0.44 0.46 0.46 0.46 0.44
0.10 0.11 0.12 0.12 0.10 0.09 0.09 0.10 0.11 0.11 0.11 0.11 0.13 0.15 0.16 0.16 0.15 0.15 0.14 0.13 0.14 0.18 0.17 0.15 0.17 0.26 0.30 0.32 0.29 0.31 0.34 0.38 0.42 0.45 0.46 0.47 0.50 0.51 0.50 0.49 0.52 0.51 0.50 0.49
0.14 0.15 0.15 0.14 0.13 0.12 0.11 0.11 0.12 0.13 0.14 0.15 0.16 0.17 0.18 0.19 0.19 0.18 0.19 0.17 0.17 0.21 0.21 0.20 0.25 0.29 0.31 0.29 0.27 0.30 0.35 0.41 0.45 0.49 0.51 0.52 0.54 0.56 0.57 0.56 0.56 0.56 0.55 0.54
0.17 0.16 0.15 0.14 0.14 0.13 0.12 0.12 0.12 0.13 0.14 0.14 0.16 0.17 0.19 0.20 0.19 0.19 0.21 0.23 0.24 0.25 0.24 0.27 0.30 0.31 0.32 0.30 0.32 0.36 0.43 0.49 0.54 0.57 0.58 0.58 0.58 0.58 0.60 0.61 0.62 0.58 0.56 0.54
0.20 0.19 0.16 0.15 0.15 0.16 0.15 0.14 0.13 0.13 0.14 0.14 0.15 0.17 0.20 0.21 0.23 0.24 0.25 0.27 0.29 0.29 0.30 0.32 0.34 0.36 0.34 0.36 0.41 0.47 0.53 0.59 0.67 0.71 0.68 0.65 0.62 0.61 0.60 0.61 0.63 0.61 0.59 0.55
0.23 0.22 0.20 0.19 0.19 0.19 0.18 0.18 0.17 0.17 0.17 0.18 0.19 0.20 0.22 0.24 0.26 0.27 0.28 0.31 0.33 0.33 0.33 0.35 0.38 0.41 0.43 0.46 0.51 0.55 0.58 0.60 0.65 0.68 0.66 0.66 0.65 0.64 0.63 0.63 0.62 0.61 0.58 0.54
0.24 0.23 0.21 0.19 0.20 0.21 0.22 0.23 0.23 0.24 0.24 0.25 0.26 0.26 0.27 0.29 0.30 0.30 0.31 0.33 0.36 0.36 0.36 0.39 0.41 0.44 0.48 0.54 0.58 0.61 0.63 0.63 0.66 0.72 0.74 0.72 0.69 0.69 0.67 0.66 0.64 0.62 0.59 0.57

GEFSNGP_prec_meanprecacc_192.txt.gz
Total_Precipitation_Accumulation
0.26 0.21 0.28 0.32 0.27 0.29 0.39 0.38 0.28 0.10 0.05 0.06 0.07 0.08 0.07 0.06 0.05 0.04 0.05 0.04 0.03 0.05 0.07 0.11 0.16 0.21 0.30 0.33 0.28 0.27 0.29 0.37 0.47 0.52 0.54 0.57 0.60 0.64 0.70 0.74 0.75 0.74 0.73 0.70
0.28 0.17 0.21 0.22 0.18 0.20 0.22 0.18 0.15 0.08 0.05 0.04 0.04 0.06 0.05 0.06 0.06 0.05 0.05 0.05 0.05 0.05 0.06 0.09 0.17 0.24 0.31 0.36 0.38 0.38 0.44 0.49 0.55 0.60 0.62 0.63 0.64 0.67 0.75 0.81 0.84 0.84 0.80 0.73
0.41 0.24 0.35 0.32 0.14 0.13 0.14 0.11 0.10 0.10 0.06 0.04 0.04 0.05 0.06 0.07 0.09 0.09 0.07 0.07 0.07 0.07 0.07 0.11 0.23 0.31 0.30 0.34 0.39 0.45 0.50 0.52 0.51 0.55 0.62 0.62 0.59 0.62 0.68 0.71 0.68 0.68 0.69 0.65
0.53 0.44 0.65 0.26 0.09 0.07 0.09 0.10 0.11 0.11 0.08 0.06 0.05 0.05 0.06 0.08 0.09 0.09 0.09 0.10 0.10 0.10 0.10 0.13 0.20 0.24 0.23 0.26 0.33 0.37 0.41 0.47 0.49 0.50 0.57 0.62 0.58 0.51 0.50 0.53 0.55 0.52 0.48 0.46
0.68 0.54 0.33 0.12 0.10 0.12 0.14 0.14 0.15 0.13 0.09 0.06 0.05 0.04 0.06 0.09 0.08 0.08 0.08 0.09 0.09 0.10 0.11 0.13 0.14 0.16 0.18 0.20 0.25 0.30 0.34 0.37 0.40 0.42 0.46 0.51 0.56 0.50 0.43 0.41 0.43 0.44 0.42 0.38
0.76 0.58 0.27 0.16 0.12 0.12 0.14 0.20 0.18 0.12 0.11 0.09 0.11 0.23 0.14 0.10 0.07 0.07 0.06 0.05 0.06 0.07 0.08 0.09 0.12 0.14 0.16 0.18 0.19 0.23 0.24 0.25 0.26 0.28 0.32 0.33 0.35 0.37 0.36 0.36 0.35 0.34 0.37 0.37
0.66 0.48 0.17 0.10 0.10 0.14 0.28 0.34 0.23 0.16 0.14 0.16 0.23 0.30 0.18 0.09 0.07 0.06 0.05 0.04 0.04 0.05 0.08 0.10 0.12 0.12 0.13 0.14 0.15 0.18 0.17 0.14 0.14 0.16 0.18 0.21 0.24 0.27 0.29 0.31 0.33 0.33 0.33 0.33
0.51 0.53 0.22 0.12 0.15 0.27 0.36 0.23 0.18 0.17 0.15 0.17 0.14 0.08 0.06 0.05 0.05 0.05 0.04 0.04 0.05 0.06 0.07 0.09 0.10 0.09 0.10 0.12 0.12 0.13 0.14 0.11 0.10 0.12 0.14 0.16 0.19 0.23 0.26 0.29 0.33 0.34 0.35 0.36
0.37 0.26 0.13 0.15 0.20 0.20 0.17 0.15 0.14 0.16 0.15 0.16 0.14 0.07 0.05 0.04 0.04 0.04 0.04 0.04 0.06 0.08 0.09 0.08 0.06 0.05 0.07 0.09 0.10 0.10 0.12 0.11 0.10 0.12 0.15 0.16 0.19 0.21 0.26 0.30 0.34 0.37 0.38 0.38
0.18 0.11 0.11 0.12 0.14 0.13 0.11 0.11 0.10 0.11 0.15 0.16 0.14 0.09 0.06 0.04 0.03 0.03 0.04 0.05 0.08 0.08 0.07 0.06 0.04 0.04 0.04 0.06 0.09 0.11 0.13 0.14 0.13 0.15 0.17 0.18 0.20 0.22 0.26 0.33 0.42 0.48 0.46 0.43
0.11 0.06 0.07 0.09 0.10 0.10 0.09 0.07 0.07 0.06 0.07 0.11 0.10 0.08 0.06 0.05 0.04 0.05 0.06 0.06 0.07 0.06 0.06 0.04 0.03 0.03 0.03 0.04 0.06 0.10 0.14 0.17 0.18 0.19 0.19 0.20 0.21 0.23 0.27 0.31 0.45 0.61 0.55 0.54
0.10 0.06 0.05 0.05 0.05 0.07 0.08 0.07 0.09 0.09 0.06 0.05 0.06 0.07 0.06 0.06 0.06 0.07 0.07 0.07 0.06 0.05 0.04 0.03 0.03 0.04 0.04 0.04 0.06 0.10 0.15 0.18 0.21 0.22 0.22 0.21 0.23 0.25 0.28 0.29 0.34 0.36 0.40 0.50
0.04 0.03 0.03 0.02 0.03 0.04 0.06 0.08 0.09 0.09 0.07 0.06 0.05 0.05 0.06 0.06 0.07 0.07 0.07 0.07 0.06 0.04 0.03 0.03 0.03 0.04 0.05 0.05 0.06 0.10 0.16 0.20 0.23 0.23 0.24 0.25 0.27 0.30 0.30 0.29 0.31 0.30 0.32 0.39
0.01 0.02 0.03 0.03 0.03 0.03 0.05 0.07 0.08 0.07 0.06 0.05 0.04 0.04 0.05 0.06 0.06 0.07 0.07 0.07 0.05 0.04 0.03 0.04 0.04 0.04 0.05 0.06 0.07 0.10 0.16 0.23 0.26 0.25 0.26 0.28 0.30 0.32 0.35 0.37 0.37 0.33 0.32 0.37
0.02 0.03 0.03 0.03 0.03 0.03 0.04 0.05 0.06 0.06 0.04 0.03 0.03 0.04 0.06 0.07 0.08 0.08 0.08 0.06 0.04 0.04 0.04 0.04 0.05 0.05 0.05 0.07 0.09 0.12 0.16 0.23 0.29 0.30 0.29 0.30 0.31 0.33 0.36 0.36 0.36 0.34 0.34 0.41
0.03 0.03 0.03 0.03 0.03 0.04 0.04 0.05 0.06 0.06 0.05 0.04 0.04 0.05 0.06 0.07 0.07 0.08 0.06 0.04 0.04 0.03 0.04 0.06 0.07 0.07 0.06 0.08 0.11 0.13 0.16 0.25 0.33 0.34 0.33 0.34 0.35 0.36 0.39 0.40 0.38 0.37 0.40 0.43
0.05 0.04 0.03 0.02 0.02 0.04 0.04 0.05 0.06 0.07 0.05 0.04 0.05 0.06 0.07 0.06 0.05 0.05 0.05 0.05 0.04 0.03 0.04 0.06 0.08 0.09 0.09 0.11 0.14 0.15 0.19 0.24 0.32 0.35 0.36 0.37 0.42 0.42 0.43 0.45 0.45 0.42 0.38 0.40
0.05 0.06 0.05 0.05 0.05 0.05 0.06 0.06 0.06 0.07 0.05 0.05 0.06 0.07 0.07 0.07 0.07 0.06 0.06 0.05 0.05 0.04 0.05 0.06 0.09 0.11 0.12 0.14 0.17 0.18 0.22 0.26 0.31 0.37 0.39 0.41 0.46 0.45 0.45 0.46 0.45 0.42 0.37 0.38
0.04 0.05 0.05 0.06 0.07 0.08 0.07 0.05 0.05 0.06 0.06 0.06 0.07 0.08 0.09 0.09 0.09 0.08 0.07 0.06 0.06 0.06 0.06 0.07 0.12 0.12 0.13 0.17 0.22 0.24 0.30 0.34 0.36 0.36 0.37 0.44 0.46 0.42 0.43 0.45 0.45 0.42 0.40 0.39
0.05 0.05 0.06 0.07 0.08 0.08 0.08 0.06 0.05 0.06 0.07 0.07 0.08 0.10 0.10 0.10 0.11 0.11 0.10 0.09 0.09 0.09 0.08 0.10 0.12 0.12 0.16 0.21 0.30 0.34 0.37 0.38 0.39 0.40 0.41 0.44 0.46 0.45 0.44 0.46 0.47 0.47 0.44 0.42
0.07 0.07 0.08 0.09 0.08 0.07 0.09 0.09 0.09 0.09 0.09 0.09 0.11 0.13 0.13 0.14 0.13 0.13 0.13 0.12 0.12 0.12 0.11 0.12 0.13 0.19 0.24 0.31 0.36 0.35 0.36 0.40 0.43 0.45 0.47 0.48 0.49 0.47 0.46 0.48 0.50 0.52 0.52 0.49
0.10 0.11 0.12 0.12 0.10 0.09 0.09 0.10 0.11 0.12 0.12 0.12 0.14 0.15 0.16 0.17 0.16 0.16 0.15 0.14 0.14 0.18 0.18 0.16 0.18 0.27 0.31 0.35 0.32 0.33 0.36 0.40 0.45 0.48 0.50 0.51 0.54 0.55 0.52 0.52 0.56 0.56 0.56 0.55
0.14 0.15 0.15 0.15 0.13 0.12 0.11 0.11 0.12 0.14 0.15 0.16 0.17 0.18 0.19 0.20 0.20 0.20 0.20 0.18 0.18 0.22 0.22 0.21 0.26 0.30 0.33 0.31 0.30 0.33 0.38 0.43 0.48 0.53 0.54 0.56 0.58 0.60 0.60 0.59 0.60 0.61 0.61 0.60
0.17 0.16 0.15 0.15 0.14 0.13 0.13 0.12 0.13 0.14 0.15 0.15 0.17 0.18 0.20 0.20 0.20 0.20 0.22 0.23 0.25 0.26 0.25 0.28 0.31 0.33 0.34 0.33 0.35 0.39 0.46 0.53 0.58 0.61 0.62 0.63 0.63 0.62 0.63 0.65 0.66 0.64 0.62 0.62
0.20 0.19 0.16 0.15 0.16 0.16 0.16 0.15 0.14 0.14 0.15 0.15 0.16 0.18 0.20 0.22 0.24 0.24 0.25 0.28 0.30 0.31 0.31 0.33 0.35 0.37 0.36 0.38 0.43 0.50 0.56 0.62 0.71 0.75 0.73 0.70 0.66 0.66 0.65 0.66 0.68 0.67 0.65 0.62
0.24 0.23 0.21 0.19 0.20 0.19 0.19 0.19 0.18 0.18 0.18 0.19 0.20 0.21 0.22 0.25 0.27 0.27 0.29 0.31 0.34 0.34 0.34 0.36 0.39 0.42 0.45 0.48 0.53 0.58 0.61 0.63 0.68 0.71 0.70 0.70 0.69 0.68 0.68 0.68 0.67 0.66 0.64 0.62
0.25 0.24 0.22 0.20 0.21 0.22 0.23 0.24 0.24 0.25 0.25 0.26 0.27 0.28 0.28 0.30 0.31 0.31 0.32 0.34 0.37 0.38 0.38 0.40 0.43 0.46 0.50 0.56 0.60 0.63 0.65 0.66 0.69 0.75 0.76 0.75 0.72 0.73 0.72 0.70 0.69 0.68 0.66 0.64

GEFSNGP_prec_meanprecacc_198.txt.gz
Total_Precipitation_Accumulation
0.27 0.21 0.28 0.33 0.28 0.29 0.39 0.38 0.29 0.10 0.06 0.07 0.08 0.09 0.08 0.06 0.05 0.05 0.06 0.05 0.05 0.07 0.10 0.15 0.21 0.27 0.37 0.41 0.37 0.35 0.39 0.47 0.54 0.57 0.58 0.61 0.63 0.69 0.76 0.80 0.82 0.84 0.83 0.79
0.29 0.17 0.21 0.23 0.18 0.20 0.22 0.19 0.15 0.08 0.05 0.04 0.05 0.06 0.06 0.06 0.06 0.06 0.06 0.06 0.06 0.06 0.07 0.11 0.20 0.28 0.37 0.43 0.44 0.45 0.52 0.57 0.62 0.66 0.67 0.67 0.67 0.72 0.81 0.86 0.90 0.92 0.91 0.84
0.43 0.24 0.37 0.33 0.14 0.13 0.14 0.11 0.11 0.10 0.06 0.05 0.05 0.06 0.07 0.08 0.09 0.09 0.07 0.07 0.07 0.08 0.08 0.12 0.26 0.35 0.36 0.40 0.44 0.51 0.58 0.60 0.59 0.61 0.67 0.66 0.62 0.65 0.73 0.78 0.75 0.75 0.78 0.76
0.57 0.46 0.67 0.27 0.09 0.07 0.09 0.10 0.11 0.11 0.08 0.07 0.06 0.06 0.07 0.09 0.09 0.09 0.09 0.10 0.11 0.11 0.11 0.14 0.22 0.27 0.27 0.32 0.38 0.43 0.48 0.54 0.57 0.57 0.63 0.67 0.63 0.55 0.53 0.58 0.63 0.60 0.55 0.54
0.74 0.57 0.33 0.12 0.10 0.12 0.14 0.14 0.15 0.13 0.09 0.07 0.06 0.05 0.07 0.09 0.08 0.08 0.08 0.09 0.10 0.11 0.12 0.14 0.17 0.19 0.22 0.26 0.30 0.36 0.39 0.42 0.46 0.48 0.51 0.56 0.60 0.54 0.47 0.45 0.48 0.53 0.50 0.46
0.83 0.61 0.28 0.16 0.12 0.12 0.14 0.21 0.18 0.13 0.11 0.09 0.11 0.23 0.15 0.10 0.07 0.07 0.06 0.05 0.06 0.07 0.08 0.10 0.13 0.16 0.19 0.23 0.23 0.26 0.28 0.29 0.30 0.32 0.36 0.37 0.38 0.40 0.39 0.40 0.40 0.41 0.45 0.45
0.71 0.52 0.18 0.10 0.10 0.14 0.28 0.34 0.23 0.17 0.14 0.16 0.23 0.30 0.18 0.09 0.07 0.06 0.05 0.04 0.04 0.05 0.08 0.11 0.13 0.15 0.16 0.18 0.18 0.20 0.20 0.17 0.18 0.21 0.23 0.25 0.27 0.29 0.32 0.34 0.36 0.39 0.40 0.42
0.53 0.57 0.24 0.12 0.15 0.27 0.36 0.23 0.18 0.17 0.15 0.17 0.14 0.08 0.06 0.05 0.05 0.05 0.04 0.04 0.05 0.06 0.08 0.10 0.11 0.11 0.13 0.15 0.14 0.15 0.17 0.15 0.13 0.16 0.19 0.22 0.23 0.26 0.29 0.32 0.35 0.36 0.40 0.43
0.37 0.27 0.13 0.15 0.20 0.20 0.17 0.15 0.14 0.16 0.15 0.17 0.14 0.08 0.05 0.04 0.04 0.04 0.04 0.04 0.06 0.08 0.09 0.08 0.07 0.07 0.09 0.11 0.12 0.12 0.14 0.15 0.14 0.16 0.19 0.22 0.25 0.26 0.29 0.32 0.36 0.39 0.40 0.42
0.19 0.11 0.11 0.12 0.14 0.13 0.11 0.11 0.10 0.11 0.15 0.16 0.14 0.09 0.06 0.04 0.03 0.03 0.04 0.05 0.08 0.08 0.07 0.06 0.05 0.05 0.06 0.07 0.10 0.13 0.14 0.16 0.16 0.17 0.21 0.23 0.25 0.27 0.30 0.36 0.45 0.50 0.48 0.47
0.12 0.06 0.07 0.09 0.10 0.10 0.09 0.07 0.07 0.06 0.07 0.11 0.10 0.08 0.06 0.05 0.04 0.05 0.06 0.07 0.07 0.07 0.06 0.04 0.04 0.04 0.05 0.05 0.08 0.12 0.15 0.17 0.19 0.20 0.22 0.24 0.25 0.27 0.31 0.34 0.48 0.64 0.57 0.57
0.10 0.06 0.06 0.05 0.05 0.07 0.08 0.07 0.09 0.09 0.06 0.05 0.06 0.07 0.06 0.06 0.06 0.07 0.07 0.07 0.06 0.05 0.04 0.03 0.03 0.04 0.05 0.05 0.07 0.11 0.15 0.19 0.22 0.23 0.24 0.25 0.26 0.28 0.31 0.32 0.36 0.39 0.43 0.52
0.04 0.03 0.03 0.03 0.03 0.04 0.06 0.08 0.09 0.09 0.07 0.06 0.05 0.05 0.06 0.06 0.07 0.07 0.07 0.07 0.06 0.04 0.03 0.03 0.03 0.04 0.06 0.05 0.07 0.11 0.17 0.21 0.24 0.25 0.26 0.28 0.29 0.33 0.34 0.32 0.33 0.32 0.34 0.41
0.02 0.02 0.03 0.03 0.03 0.03 0.05 0.07 0.08 0.08 0.07 0.05 0.05 0.05 0.06 0.06 0.06 0.07 0.07 0.07 0.05 0.04 0.03 0.04 0.05 0.04 0.06 0.07 0.08 0.11 0.17 0.24 0.28 0.27 0.28 0.31 0.32 0.34 0.38 0.40 0.40 0.35 0.34 0.39
0.02 0.03 0.03 0.03 0.03 0.04 0.04 0.05 0.07 0.06 0.05 0.04 0.03 0.04 0.06 0.07 0.08 0.08 0.08 0.06 0.04 0.04 0.04 0.04 0.06 0.05 0.06 0.07 0.10 0.13 0.17 0.24 0.30 0.32 0.31 0.33 0.34 0.36 0.38 0.38 0.38 0.37 0.38 0.45
0.04 0.03 0.03 0.03 0.03 0.04 0.04 0.05 0.07 0.06 0.05 0.04 0.04 0.05 0.06 0.07 0.08 0.08 0.06 0.04 0.04 0.03 0.04 0.06 0.07 0.07 0.07 0.09 0.12 0.14 0.18 0.27 0.35 0.37 0.36 0.37 0.38 0.39 0.42 0.42 0.40 0.40 0.44 0.48
0.05 0.04 0.03 0.02 0.03 0.04 0.05 0.05 0.07 0.07 0.05 0.04 0.05 0.06 0.07 0.06 0.06 0.05 0.05 0.05 0.04 0.03 0.04 0.06 0.09 0.09 0.10 0.12 0.15 0.17 0.20 0.25 0.34 0.37 0.38 0.40 0.44 0.45 0.46 0.49 0.48 0.45 0.43 0.45
0.06 0.06 0.05 0.05 0.05 0.06 0.06 0.06 0.06 0.07 0.06 0.05 0.06 0.07 0.08 0.07 0.07 0.06 0.06 0.05 0.05 0.04 0.05 0.06 0.09 0.11 0.12 0.15 0.18 0.19 0.23 0.28 0.34 0.39 0.42 0.44 0.49 0.49 0.49 0.50 0.48 0.46 0.42 0.44
0.05 0.05 0.05 0.06 0.07 0.08 0.07 0.05 0.05 0.06 0.06 0.06 0.07 0.08 0.09 0.09 0.09 0.08 0.07 0.06 0.06 0.06 0.06 0.08 0.12 0.12 0.14 0.17 0.24 0.26 0.31 0.36 0.39 0.39 0.40 0.47 0.49 0.46 0.48 0.49 0.49 0.48 0.46 0.46
0.06 0.06 0.06 0.08 0.08 0.09 0.08 0.07 0.06 0.06 0.07 0.08 0.09 0.10 0.11 0.11 0.11 0.11 0.10 0.10 0.09 0.10 0.08 0.10 0.12 0.13 0.16 0.22 0.31 0.36 0.38 0.40 0.42 0.43 0.44 0.47 0.50 0.49 0.49 0.51 0.53 0.52 0.50 0.49
0.08 0.08 0.09 0.10 0.09 0.08 0.09 0.09 0.09 0.09 0.09 0.10 0.11 0.13 0.14 0.14 0.14 0.14 0.13 0.13 0.12 0.13 0.12 0.13 0.14 0.19 0.25 0.33 0.38 0.37 0.38 0.42 0.46 0.50 0.51 0.52 0.53 0.52 0.51 0.54 0.57 0.58 0.58 0.56
0.11 0.11 0.12 0.12 0.11 0.09 0.10 0.10 0.11 0.12 0.13 0.13 0.14 0.16 0.17 0.18 0.17 0.16 0.16 0.15 0.15 0.19 0.19 0.17 0.19 0.28 0.33 0.37 0.33 0.35 0.38 0.43 0.49 0.52 0.55 0.55 0.58 0.59 0.58 0.58 0.62 0.62 0.63 0.63
0.14 0.15 0.15 0.15 0.14 0.13 0.11 0.11 0.12 0.14 0.16 0.17 0.18 0.19 0.20 0.21 0.21 0.21 0.21 0.19 0.19 0.23 0.23 0.22 0.27 0.32 0.35 0.33 0.31 0.35 0.40 0.45 0.51 0.57 0.59 0.60 0.62 0.64 0.65 0.65 0.66 0.67 0.68 0.67
0.17 0.16 0.16 0.15 0.15 0.14 0.13 0.13 0.14 0.15 0.16 0.16 0.18 0.19 0.21 0.22 0.21 0.21 0.23 0.24 0.26 0.27 0.26 0.29 0.33 0.34 0.35 0.34 0.36 0.41 0.48 0.55 0.61 0.65 0.67 0.68 0.67 0.67 0.68 0.71 0.73 0.70 0.69 0.68
0.21 0.20 0.17 0.16 0.16 0.17 0.17 0.16 0.15 0.15 0.15 0.16 0.17 0.18 0.21 0.22 0.24 0.25 0.26 0.28 0.31 0.32 0.32 0.34 0.36 0.38 0.37 0.40 0.45 0.52 0.58 0.65 0.74 0.79 0.77 0.75 0.72 0.71 0.71 0.73 0.75 0.73 0.71 0.67
0.25 0.24 0.22 0.20 0.21 0.20 0.20 0.19 0.19 0.18 0.18 0.19 0.20 0.21 0.23 0.25 0.27 0.28 0.29 0.32 0.34 0.35 0.35 0.37 0.40 0.43 0.46 0.50 0.55 0.60 0.63 0.65 0.70 0.74 0.74 0.75 0.74 0.74 0.74 0.75 0.74 0.72 0.70 0.67
0.26 0.25 0.23 0.21 0.22 0.23 0.24 0.24 0.25 0.25 0.25 0.26 0.28 0.28 0.29 0.30 0.32 0.32 0.32 0.35 0.37 0.38 0.38 0.41 0.44 0.47 0.52 0.58 0.62 0.65 0.67 0.68 0.71 0.78 0.80 0.79 0.77 0.78 0.78 0.77 0.76 0.73 0.71 0.69

GEFSNGP_prec_meanprecacc_204.txt.gz
Total_Precipitation_Accumulation
0.28 0.21 0.29 0.33 0.28 0.30 0.40 0.39 0.30 0.11 0.06 0.07 0.08 0.09 0.08 0.06 0.05 0.05 0.07 0.07 0.07 0.09 0.12 0.17 0.24 0.32 0.43 0.46 0.41 0.40 0.45 0.53 0.61 0.64 0.65 0.68 0.70 0.75 0.81 0.86 0.89 0.92 0.94 0.91
0.31 0.18 0.22 0.24 0.19 0.21 0.22 0.19 0.16 0.08 0.05 0.04 0.06 0.06 0.06 0.06 0.06 0.06 0.06 0.07 0.07 0.08 0.09 0.14 0.24 0.34 0.42 0.48 0.50 0.50 0.58 0.64 0.70 0.73 0.73 0.73 0.73 0.77 0.86 0.91 0.96 0.98 0.98 0.96
0.46 0.25 0.39 0.36 0.15 0.13 0.14 0.11 0.11 0.10 0.06 0.05 0.05 0.06 0.07 0.08 0.09 0.09 0.07 0.07 0.08 0.09 0.10 0.14 0.29 0.41 0.41 0.47 0.52 0.58 0.64 0.67 0.65 0.69 0.73 0.70 0.67 0.71 0.79 0.83 0.80 0.80 0.83 0.84
0.62 0.49 0.71 0.28 0.09 0.07 0.09 0.10 0.11 0.11 0.08 0.07 0.06 0.06 0.07 0.09 0.09 0.09 0.09 0.10 0.11 0.11 0.11 0.15 0.25 0.31 0.31 0.38 0.45 0.50 0.54 0.61 0.64 0.64 0.69 0.73 0.68 0.61 0.59 0.63 0.68 0.65 0.60 0.59
0.81 0.62 0.35 0.12 0.10 0.12 0.14 0.15 0.15 0.13 0.09 0.07 0.06 0.05 0.07 0.09 0.08 0.08 0.08 0.09 0.10 0.11 0.12 0.15 0.19 0.23 0.25 0.29 0.35 0.40 0.44 0.47 0.53 0.55 0.58 0.62 0.65 0.58 0.51 0.49 0.53 0.57 0.54 0.50
0.90 0.67 0.30 0.16 0.12 0.12 0.14 0.21 0.18 0.13 0.11 0.09 0.12 0.24 0.15 0.10 0.07 0.07 0.06 0.05 0.06 0.07 0.08 0.11 0.15 0.19 0.22 0.26 0.26 0.30 0.32 0.33 0.34 0.37 0.42 0.42 0.44 0.44 0.42 0.43 0.44 0.45 0.49 0.49
0.77 0.57 0.19 0.10 0.10 0.14 0.28 0.35 0.23 0.17 0.14 0.16 0.24 0.31 0.19 0.09 0.07 0.06 0.05 0.04 0.04 0.05 0.08 0.11 0.14 0.17 0.19 0.21 0.20 0.23 0.23 0.21 0.21 0.25 0.27 0.29 0.31 0.34 0.35 0.36 0.39 0.42 0.44 0.46
0.59 0.64 0.27 0.12 0.15 0.27 0.36 0.23 0.18 0.17 0.15 0.17 0.14 0.09 0.06 0.05 0.05 0.05 0.04 0.04 0.05 0.06 0.08 0.10 0.12 0.13 0.14 0.17 0.17 0.17 0.19 0.17 0.17 0.19 0.23 0.26 0.28 0.31 0.33 0.35 0.38 0.39 0.43 0.47
0.41 0.30 0.14 0.15 0.20 0.20 0.17 0.15 0.14 0.16 0.15 0.17 0.14 0.08 0.05 0.04 0.04 0.04 0.04 0.04 0.06 0.08 0.09 0.08 0.07 0.08 0.10 0.12 0.13 0.14 0.17 0.17 0.16 0.18 0.21 0.26 0.30 0.31 0.33 0.35 0.39 0.41 0.42 0.45
0.21 0.12 0.11 0.12 0.14 0.14 0.11 0.11 0.10 0.11 0.15 0.16 0.14 0.09 0.06 0.04 0.03 0.03 0.04 0.05 0.08 0.08 0.07 0.06 0.05 0.06 0.07 0.07 0.11 0.15 0.17 0.19 0.19 0.20 0.23 0.26 0.29 0.31 0.34 0.40 0.48 0.53 0.51 0.49
0.14 0.07 0.07 0.09 0.10 0.10 0.09 0.07 0.07 0.06 0.07 0.11 0.10 0.08 0.06 0.05 0.04 0.05 0.06 0.07 0.07 0.07 0.06 0.04 0.04 0.05 0.05 0.06 0.09 0.13 0.16 0.20 0.22 0.24 0.25 0.27 0.28 0.31 0.34 0.37 0.53 0.69 0.61 0.60
0.11 0.06 0.06 0.05 0.05 0.07 0.08 0.07 0.09 0.09 0.06 0.05 0.06 0.07 0.06 0.06 0.06 0.07 0.07 0.07 0.06 0.05 0.04 0.03 0.04 0.05 0.06 0.06 0.08 0.12 0.16 0.20 0.24 0.27 0.27 0.28 0.30 0.33 0.33 0.34 0.39 0.42 0.46 0.56
0.04 0.03 0.03 0.03 0.03 0.04 0.06 0.08 0.09 0.09 0.07 0.06 0.05 0.05 0.06 0.06 0.07 0.07 0.08 0.07 0.06 0.04 0.03 0.03 0.04 0.05 0.07 0.07 0.08 0.12 0.18 0.22 0.26 0.26 0.28 0.31 0.34 0.38 0.37 0.34 0.35 0.34 0.37 0.44
0.02 0.03 0.04 0.03 0.03 0.03 0.05 0.07 0.08 0.08 0.07 0.05 0.05 0.05 0.06 0.06 0.07 0.07 0.07 0.07 0.05 0.04 0.03 0.04 0.05 0.05 0.06 0.08 0.09 0.12 0.18 0.25 0.30 0.29 0.30 0.33 0.35 0.37 0.40 0.42 0.42 0.37 0.36 0.42
0.02 0.03 0.04 0.03 0.03 0.04 0.04 0.05 0.07 0.06 0.05 0.04 0.03 0.05 0.06 0.07 0.08 0.09 0.08 0.06 0.04 0.04 0.04 0.05 0.06 0.06 0.07 0.08 0.10 0.14 0.19 0.26 0.32 0.34 0.34 0.35 0.36 0.37 0.39 0.39 0.39 0.38 0.39 0.47
0.04 0.04 0.03 0.03 0.03 0.04 0.05 0.05 0.07 0.06 0.05 0.04 0.04 0.05 0.06 0.07 0.08 0.08 0.06 0.04 0.04 0.03 0.04 0.06 0.07 0.07 0.08 0.10 0.13 0.15 0.19 0.28 0.37 0.39 0.39 0.40 0.40 0.40 0.43 0.43 0.41 0.40 0.45 0.50
0.06 0.05 0.03 0.03 0.03 0.04 0.05 0.06 0.07 0.07 0.05 0.04 0.05 0.06 0.07 0.06 0.06 0.05 0.05 0.05 0.04 0.03 0.04 0.06 0.09 0.09 0.10 0.13 0.17 0.18 0.21 0.27 0.36 0.40 0.41 0.42 0.46 0.46 0.47 0.49 0.49 0.46 0.43 0.46
0.06 0.06 0.06 0.05 0.05 0.06 0.06 0.06 0.06 0.07 0.06 0.05 0.06 0.07 0.08 0.08 0.07 0.06 0.06 0.05 0.05 0.04 0.05 0.06 0.10 0.11 0.13 0.16 0.20 0.20 0.24 0.29 0.36 0.42 0.44 0.46 0.51 0.51 0.50 0.50 0.49 0.47 0.43 0.45
0.05 0.05 0.05 0.06 0.07 0.09 0.08 0.05 0.05 0.06 0.06 0.07 0.08 0.09 0.09 0.10 0.09 0.08 0.08 0.06 0.06 0.06 0.06 0.08 0.12 0.12 0.14 0.18 0.25 0.27 0.33 0.38 0.41 0.41 0.42 0.49 0.52 0.48 0.49 0.50 0.50 0.49 0.47 0.48
0.06 0.06 0.07 0.08 0.09 0.10 0.09 0.07 0.06 0.07 0.08 0.08 0.09 0.10 0.11 0.11 0.11 0.11 0.11 0.10 0.09 0.10 0.08 0.10 0.12 0.13 0.17 0.23 0.33 0.38 0.40 0.42 0.45 0.46 0.46 0.49 0.52 0.51 0.51 0.53 0.55 0.54 0.52 0.52
0.08 0.08 0.10 0.10 0.10 0.09 0.10 0.10 0.10 0.10 0.10 0.10 0.12 0.14 0.14 0.14 0.14 0.14 0.14 0.13 0.12 0.13 0.12 0.13 0.14 0.20 0.26 0.34 0.40 0.39 0.40 0.44 0.49 0.53 0.54 0.54 0.56 0.55 0.55 0.57 0.59 0.60 0.60 0.59
0.11 0.11 0.12 0.13 0.11 0.10 0.10 0.11 0.12 0.13 0.13 0.13 0.15 0.16 0.18 0.18 0.17 0.16 0.16 0.15 0.16 0.20 0.19 0.17 0.19 0.29 0.34 0.38 0.35 0.37 0.40 0.46 0.52 0.56 0.59 0.58 0.61 0.64 0.62 0.62 0.65 0.66 0.67 0.66
0.14 0.15 0.15 0.15 0.14 0.13 0.11 0.12 0.13 0.15 0.16 0.17 0.19 0.20 0.21 0.22 0.21 0.21 0.22 0.19 0.20 0.24 0.24 0.23 0.28 0.33 0.36 0.34 0.33 0.37 0.43 0.49 0.55 0.61 0.63 0.64 0.65 0.69 0.70 0.70 0.71 0.71 0.72 0.71
0.18 0.17 0.16 0.15 0.15 0.14 0.14 0.14 0.14 0.15 0.16 0.17 0.18 0.20 0.21 0.22 0.22 0.21 0.23 0.25 0.26 0.28 0.27 0.30 0.33 0.35 0.36 0.36 0.38 0.43 0.51 0.59 0.65 0.69 0.71 0.72 0.71 0.72 0.75 0.77 0.78 0.75 0.73 0.72
0.21 0.20 0.18 0.16 0.17 0.18 0.17 0.17 0.16 0.15 0.16 0.16 0.17 0.19 0.21 0.23 0.25 0.26 0.27 0.29 0.32 0.32 0.33 0.35 0.37 0.39 0.39 0.41 0.47 0.54 0.62 0.69 0.78 0.83 0.82 0.80 0.77 0.77 0.78 0.80 0.81 0.79 0.76 0.72
0.25 0.24 0.22 0.21 0.22 0.22 0.21 0.20 0.19 0.19 0.19 0.20 0.21 0.22 0.24 0.26 0.28 0.29 0.30 0.33 0.35 0.35 0.35 0.38 0.41 0.44 0.47 0.51 0.57 0.62 0.66 0.69 0.74 0.79 0.78 0.80 0.79 0.80 0.81 0.82 0.81 0.79 0.76 0.72
0.27 0.26 0.24 0.22 0.23 0.24 0.25 0.25 0.26 0.26 0.26 0.27 0.29 0.29 0.30 0.31 0.32 0.32 0.33 0.36 0.38 0.39 0.39 0.42 0.45 0.48 0.52 0.59 0.64 0.67 0.69 0.71 0.75 0.82 0.85 0.84 0.83 0.84 0.85 0.84 0.83 0.80 0.78 0.75

GEFSNGP_prec_meanprecacc_210.txt.gz
Total_Precipitation_Accumulation
0.32 0.25 0.33 0.37 0.31 0.32 0.43 0.42 0.32 0.12 0.06 0.07 0.08 0.09 0.08 0.06 0.05 0.05 0.07 0.08 0.07 0.10 0.13 0.19 0.26 0.34 0.45 0.49 0.43 0.42 0.47 0.56 0.67 0.71 0.73 0.75 0.83 0.91 0.94 0.99 1.02 1.01 1.01 0.98
0.33 0.20 0.26 0.28 0.21 0.22 0.24 0.20 0.17 0.09 0.06 0.04 0.06 0.07 0.06 0.06 0.07 0.06 0.06 0.07 0.07 0.09 0.10 0.14 0.26 0.36 0.45 0.51 0.52 0.53 0.61 0.67 0.73 0.78 0.78 0.78 0.82 0.92 1.00 1.04 1.10 1.11 1.07 1.03
0.49 0.26 0.41 0.39 0.16 0.14 0.15 0.12 0.12 0.11 0.07 0.05 0.05 0.06 0.07 0.08 0.10 0.09 0.07 0.07 0.08 0.09 0.10 0.15 0.30 0.43 0.44 0.50 0.55 0.60 0.68 0.70 0.68 0.73 0.78 0.76 0.74 0.82 0.92 0.95 0.92 0.93 0.94 0.94
0.66 0.51 0.74 0.29 0.10 0.08 0.10 0.11 0.12 0.12 0.08 0.07 0.06 0.06 0.07 0.09 0.09 0.09 0.09 0.10 0.11 0.11 0.12 0.15 0.25 0.32 0.33 0.41 0.49 0.54 0.58 0.65 0.67 0.67 0.71 0.76 0.73 0.69 0.70 0.75 0.79 0.77 0.72 0.70
0.86 0.65 0.37 0.13 0.10 0.12 0.14 0.15 0.15 0.13 0.10 0.07 0.06 0.05 0.07 0.09 0.08 0.08 0.08 0.09 0.10 0.11 0.12 0.15 0.19 0.24 0.26 0.31 0.38 0.43 0.47 0.50 0.55 0.57 0.60 0.64 0.69 0.64 0.58 0.58 0.62 0.65 0.64 0.60
0.97 0.71 0.32 0.16 0.12 0.12 0.14 0.22 0.18 0.13 0.11 0.10 0.12 0.24 0.15 0.10 0.07 0.07 0.06 0.05 0.06 0.07 0.08 0.11 0.15 0.20 0.23 0.27 0.28 0.32 0.34 0.35 0.36 0.38 0.44 0.44 0.45 0.48 0.47 0.49 0.51 0.51 0.55 0.56
0.83 0.61 0.21 0.10 0.11 0.14 0.29 0.36 0.23 0.17 0.14 0.16 0.24 0.31 0.19 0.09 0.07 0.06 0.05 0.04 0.04 0.05 0.08 0.11 0.14 0.17 0.19 0.22 0.22 0.25 0.25 0.22 0.23 0.26 0.29 0.30 0.33 0.37 0.38 0.40 0.43 0.46 0.48 0.50
0.63 0.70 0.31 0.13 0.16 0.28 0.38 0.24 0.19 0.17 0.15 0.18 0.14 0.09 0.06 0.05 0.05 0.05 0.04 0.04 0.05 0.06 0.08 0.10 0.12 0.13 0.15 0.18 0.18 0.20 0.22 0.19 0.18 0.21 0.25 0.28 0.29 0.33 0.35 0.38 0.41 0.42 0.45 0.50
0.46 0.35 0.18 0.16 0.20 0.21 0.18 0.16 0.15 0.16 0.15 0.17 0.14 0.08 0.05 0.04 0.04 0.04 0.04 0.04 0.06 0.08 0.09 0.08 0.08 0.08 0.10 0.12 0.14 0.16 0.19 0.19 0.18 0.20 0.24 0.29 0.34 0.35 0.37 0.38 0.43 0.45 0.46 0.48
0.24 0.15 0.13 0.13 0.15 0.14 0.12 0.12 0.11 0.11 0.15 0.17 0.14 0.09 0.06 0.04 0.03 0.03 0.04 0.05 0.08 0.08 0.07 0.06 0.05 0.06 0.07 0.08 0.11 0.16 0.19 0.21 0.21 0.22 0.25 0.29 0.34 0.37 0.40 0.45 0.53 0.57 0.55 0.53
0.16 0.08 0.08 0.10 0.10 0.11 0.09 0.07 0.07 0.06 0.08 0.11 0.10 0.08 0.06 0.05 0.04 0.05 0.06 0.07 0.07 0.07 0.06 0.04 0.04 0.05 0.05 0.06 0.09 0.13 0.17 0.21 0.24 0.25 0.27 0.29 0.31 0.34 0.38 0.42 0.59 0.75 0.67 0.64
0.13 0.07 0.07 0.06 0.06 0.07 0.08 0.08 0.09 0.09 0.06 0.05 0.06 0.07 0.07 0.06 0.06 0.07 0.07 0.07 0.06 0.05 0.04 0.03 0.04 0.05 0.06 0.06 0.08 0.12 0.17 0.20 0.25 0.28 0.30 0.30 0.33 0.35 0.36 0.37 0.43 0.46 0.50 0.60
0.05 0.04 0.04 0.03 0.03 0.04 0.06 0.08 0.09 0.09 0.07 0.06 0.05 0.05 0.06 0.06 0.07 0.07 0.08 0.07 0.06 0.04 0.03 0.03 0.04 0.05 0.07 0.07 0.08 0.13 0.19 0.23 0.26 0.27 0.30 0.33 0.36 0.41 0.39 0.36 0.37 0.37 0.40 0.48
0.02 0.03 0.05 0.04 0.04 0.04 0.05 0.07 0.08 0.08 0.07 0.05 0.05 0.05 0.06 0.06 0.07 0.07 0.08 0.07 0.05 0.04 0.03 0.04 0.05 0.05 0.07 0.08 0.09 0.13 0.19 0.26 0.30 0.29 0.31 0.34 0.37 0.40 0.43 0.44 0.44 0.39 0.39 0.46
0.03 0.04 0.04 0.04 0.04 0.04 0.05 0.06 0.07 0.06 0.05 0.04 0.03 0.05 0.06 0.07 0.08 0.09 0.08 0.06 0.04 0.04 0.04 0.05 0.06 0.06 0.07 0.09 0.11 0.14 0.19 0.26 0.33 0.34 0.35 0.36 0.37 0.38 0.41 0.41 0.41 0.40 0.42 0.50
0.05 0.04 0.04 0.04 0.04 0.05 0.05 0.06 0.07 0.07 0.05 0.04 0.04 0.05 0.06 0.07 0.08 0.08 0.06 0.05 0.04 0.04 0.05 0.06 0.08 0.08 0.08 0.11 0.13 0.16 0.19 0.29 0.37 0.40 0.39 0.41 0.41 0.41 0.44 0.44 0.42 0.42 0.47 0.53
0.06 0.05 0.04 0.04 0.04 0.05 0.06 0.06 0.07 0.08 0.06 0.05 0.05 0.06 0.07 0.07 0.06 0.06 0.05 0.05 0.04 0.04 0.04 0.06 0.09 0.10 0.10 0.13 0.17 0.18 0.22 0.27 0.36 0.41 0.42 0.43 0.47 0.47 0.48 0.50 0.50 0.48 0.46 0.49
0.07 0.07 0.06 0.06 0.06 0.06 0.06 0.06 0.07 0.07 0.06 0.06 0.06 0.08 0.08 0.08 0.07 0.07 0.06 0.06 0.05 0.05 0.05 0.06 0.10 0.12 0.13 0.16 0.20 0.21 0.25 0.30 0.36 0.43 0.45 0.47 0.52 0.52 0.51 0.51 0.50 0.50 0.46 0.48
0.05 0.05 0.06 0.06 0.08 0.09 0.08 0.06 0.05 0.07 0.07 0.07 0.08 0.09 0.10 0.10 0.10 0.09 0.08 0.07 0.06 0.06 0.06 0.08 0.13 0.13 0.14 0.19 0.26 0.28 0.34 0.39 0.42 0.42 0.43 0.50 0.53 0.49 0.51 0.52 0.53 0.52 0.50 0.51
0.06 0.06 0.07 0.09 0.09 0.10 0.09 0.08 0.07 0.07 0.08 0.09 0.10 0.11 0.12 0.12 0.12 0.12 0.11 0.10 0.09 0.10 0.09 0.11 0.13 0.13 0.17 0.23 0.34 0.39 0.41 0.43 0.46 0.48 0.47 0.50 0.54 0.54 0.54 0.56 0.57 0.57 0.55 0.55
0.09 0.09 0.10 0.11 0.10 0.10 0.11 0.11 0.11 0.11 0.11 0.11 0.13 0.15 0.16 0.15 0.15 0.14 0.14 0.13 0.13 0.14 0.13 0.13 0.14 0.20 0.27 0.36 0.41 0.40 0.41 0.46 0.51 0.55 0.56 0.56 0.58 0.58 0.58 0.59 0.61 0.63 0.64 0.62
0.11 0.12 0.13 0.13 0.11 0.10 0.11 0.12 0.12 0.14 0.14 0.14 0.16 0.17 0.19 0.19 0.18 0.17 0.17 0.16 0.16 0.20 0.20 0.17 0.20 0.30 0.36 0.40 0.37 0.38 0.42 0.48 0.54 0.58 0.60 0.60 0.63 0.66 0.65 0.65 0.69 0.69 0.70 0.69
0.15 0.15 0.16 0.15 0.14 0.13 0.12 0.12 0.13 0.15 0.17 0.18 0.19 0.20 0.21 0.22 0.22 0.22 0.22 0.20 0.20 0.24 0.24 0.23 0.29 0.34 0.38 0.36 0.34 0.38 0.45 0.51 0.57 0.63 0.66 0.66 0.68 0.72 0.74 0.74 0.74 0.74 0.75 0.74
0.18 0.17 0.16 0.16 0.15 0.15 0.14 0.14 0.14 0.15 0.16 0.17 0.18 0.20 0.22 0.22 0.22 0.21 0.24 0.25 0.27 0.28 0.27 0.31 0.34 0.37 0.38 0.37 0.40 0.45 0.53 0.61 0.67 0.72 0.73 0.74 0.74 0.75 0.78 0.81 0.82 0.78 0.76 0.75
0.22 0.20 0.18 0.17 0.17 0.18 0.18 0.17 0.16 0.16 0.16 0.17 0.17 0.19 0.22 0.23 0.25 0.26 0.27 0.30 0.32 0.33 0.33 0.36 0.38 0.40 0.40 0.42 0.48 0.56 0.64 0.71 0.81 0.86 0.85 0.82 0.80 0.80 0.81 0.84 0.86 0.83 0.80 0.77
0.26 0.25 0.23 0.21 0.22 0.22 0.21 0.21 0.20 0.19 0.20 0.21 0.21 0.22 0.24 0.27 0.29 0.30 0.31 0.33 0.35 0.36 0.36 0.39 0.41 0.45 0.48 0.52 0.58 0.64 0.68 0.71 0.77 0.81 0.81 0.83 0.82 0.83 0.84 0.87 0.86 0.84 0.81 0.79
0.27 0.26 0.24 0.22 0.23 0.25 0.25 0.26 0.27 0.27 0.27 0.28 0.30 0.30 0.30 0.32 0.33 0.33 0.34 0.36 0.39 0.40 0.40 0.42 0.46 0.49 0.54 0.61 0.66 0.69 0.71 0.73 0.77 0.85 0.88 0.87 0.86 0.88 0.89 0.89 0.88 0.86 0.83 0.81

GEFSNGP_prec_meanprecacc_216.txt.gz
Total_Precipitation_Accumulation
0.34 0.26 0.35 0.38 0.32 0.34 0.47 0.47 0.36 0.13 0.07 0.07 0.09 0.09 0.08 0.06 0.05 0.06 0.07 0.08 0.08 0.10 0.13 0.19 0.27 0.35 0.46 0.50 0.44 0.43 0.48 0.57 0.67 0.72 0.74 0.77 0.85 0.95 0.99 1.04 1.06 1.06 1.07 1.03
0.35 0.21 0.27 0.29 0.22 0.23 0.26 0.22 0.19 0.10 0.07 0.05 0.06 0.07 0.07 0.07 0.07 0.07 0.07 0.07 0.07 0.09 0.10 0.14 0.26 0.37 0.46 0.51 0.53 0.54 0.62 0.67 0.74 0.79 0.80 0.80 0.84 0.97 1.05 1.09 1.15 1.15 1.12 1.08
0.52 0.28 0.43 0.41 0.19 0.17 0.17 0.13 0.13 0.12 0.07 0.05 0.05 0.06 0.07 0.08 0.10 0.09 0.08 0.08 0.08 0.09 0.10 0.15 0.30 0.43 0.45 0.51 0.56 0.61 0.68 0.71 0.69 0.74 0.79 0.77 0.76 0.86 0.99 1.01 0.98 0.98 0.98 0.98
0.70 0.53 0.76 0.31 0.12 0.10 0.12 0.12 0.13 0.13 0.09 0.07 0.07 0.07 0.07 0.09 0.09 0.09 0.09 0.10 0.11 0.11 0.12 0.15 0.26 0.32 0.33 0.41 0.50 0.55 0.59 0.66 0.69 0.68 0.73 0.78 0.75 0.72 0.74 0.81 0.88 0.84 0.77 0.75
0.91 0.69 0.39 0.14 0.12 0.14 0.17 0.18 0.18 0.15 0.11 0.08 0.06 0.06 0.07 0.09 0.08 0.08 0.09 0.09 0.10 0.11 0.12 0.15 0.19 0.24 0.26 0.31 0.38 0.44 0.48 0.52 0.56 0.59 0.62 0.66 0.71 0.67 0.62 0.63 0.69 0.73 0.71 0.65
1.04 0.76 0.34 0.18 0.13 0.13 0.16 0.24 0.20 0.15 0.13 0.11 0.14 0.26 0.17 0.12 0.08 0.08 0.06 0.05 0.06 0.07 0.08 0.11 0.15 0.20 0.24 0.28 0.28 0.32 0.35 0.36 0.37 0.39 0.45 0.45 0.48 0.51 0.50 0.53 0.56 0.58 0.62 0.62
0.88 0.66 0.23 0.11 0.11 0.14 0.30 0.38 0.25 0.18 0.16 0.18 0.26 0.33 0.21 0.11 0.08 0.07 0.05 0.04 0.04 0.05 0.08 0.11 0.14 0.17 0.19 0.23 0.22 0.25 0.26 0.23 0.23 0.26 0.29 0.31 0.34 0.38 0.41 0.43 0.48 0.52 0.54 0.57
0.66 0.74 0.33 0.13 0.16 0.29 0.40 0.26 0.20 0.19 0.17 0.19 0.16 0.10 0.07 0.06 0.06 0.05 0.05 0.04 0.05 0.06 0.08 0.10 0.12 0.13 0.15 0.18 0.18 0.20 0.23 0.20 0.19 0.21 0.26 0.28 0.30 0.33 0.36 0.39 0.45 0.46 0.50 0.55
0.47 0.37 0.19 0.18 0.22 0.22 0.19 0.18 0.16 0.17 0.16 0.17 0.15 0.08 0.06 0.04 0.04 0.04 0.04 0.04 0.06 0.08 0.09 0.08 0.08 0.09 0.11 0.12 0.14 0.16 0.20 0.20 0.19 0.21 0.24 0.30 0.34 0.36 0.38 0.39 0.44 0.48 0.49 0.52
0.26 0.16 0.15 0.16 0.16 0.15 0.13 0.12 0.12 0.13 0.16 0.18 0.15 0.10 0.06 0.04 0.03 0.04 0.04 0.05 0.08 0.08 0.07 0.06 0.06 0.06 0.07 0.08 0.12 0.16 0.20 0.22 0.22 0.23 0.26 0.30 0.34 0.38 0.41 0.46 0.54 0.58 0.57 0.55
0.18 0.10 0.10 0.11 0.12 0.12 0.10 0.07 0.07 0.06 0.08 0.11 0.11 0.09 0.08 0.06 0.05 0.06 0.06 0.07 0.07 0.07 0.06 0.05 0.04 0.05 0.06 0.06 0.09 0.14 0.17 0.22 0.25 0.27 0.28 0.30 0.31 0.35 0.39 0.43 0.61 0.77 0.68 0.66
0.14 0.09 0.08 0.08 0.08 0.08 0.09 0.08 0.09 0.09 0.06 0.05 0.06 0.07 0.08 0.08 0.08 0.08 0.08 0.08 0.07 0.05 0.04 0.03 0.04 0.05 0.06 0.06 0.08 0.13 0.17 0.20 0.25 0.29 0.31 0.32 0.34 0.36 0.37 0.38 0.44 0.48 0.52 0.62
0.07 0.06 0.06 0.05 0.05 0.05 0.07 0.09 0.10 0.09 0.08 0.06 0.05 0.06 0.07 0.07 0.07 0.08 0.08 0.08 0.06 0.04 0.03 0.03 0.04 0.05 0.07 0.07 0.09 0.13 0.19 0.23 0.27 0.28 0.31 0.35 0.38 0.42 0.41 0.37 0.38 0.38 0.42 0.49
0.04 0.05 0.06 0.06 0.05 0.05 0.06 0.08 0.08 0.08 0.07 0.06 0.05 0.05 0.06 0.06 0.07 0.07 0.08 0.07 0.05 0.04 0.03 0.04 0.05 0.05 0.07 0.08 0.10 0.13 0.19 0.26 0.30 0.30 0.31 0.35 0.38 0.41 0.44 0.46 0.45 0.40 0.40 0.47
0.04 0.05 0.05 0.05 0.04 0.04 0.05 0.06 0.07 0.07 0.05 0.04 0.04 0.05 0.06 0.07 0.08 0.09 0.08 0.06 0.04 0.04 0.04 0.05 0.06 0.06 0.07 0.09 0.11 0.15 0.20 0.27 0.33 0.35 0.35 0.37 0.38 0.39 0.42 0.42 0.43 0.41 0.43 0.51
0.05 0.05 0.04 0.04 0.04 0.05 0.05 0.06 0.08 0.07 0.05 0.04 0.05 0.05 0.07 0.07 0.08 0.08 0.06 0.05 0.04 0.04 0.05 0.06 0.08 0.08 0.09 0.11 0.14 0.16 0.20 0.30 0.39 0.41 0.41 0.42 0.41 0.42 0.44 0.45 0.43 0.43 0.48 0.54
0.07 0.06 0.04 0.04 0.04 0.05 0.06 0.07 0.08 0.08 0.06 0.05 0.06 0.07 0.07 0.07 0.06 0.06 0.06 0.05 0.04 0.04 0.04 0.06 0.09 0.10 0.11 0.14 0.18 0.19 0.23 0.28 0.37 0.42 0.43 0.44 0.48 0.48 0.49 0.51 0.51 0.49 0.47 0.51
0.08 0.08 0.07 0.07 0.06 0.07 0.07 0.07 0.07 0.08 0.07 0.06 0.07 0.08 0.08 0.08 0.08 0.07 0.07 0.06 0.05 0.05 0.05 0.06 0.10 0.12 0.13 0.17 0.21 0.22 0.27 0.31 0.37 0.44 0.46 0.48 0.53 0.53 0.52 0.52 0.52 0.52 0.48 0.50
0.06 0.06 0.07 0.07 0.09 0.10 0.08 0.06 0.06 0.07 0.07 0.07 0.08 0.10 0.10 0.10 0.10 0.09 0.08 0.07 0.07 0.07 0.07 0.08 0.13 0.13 0.15 0.19 0.27 0.30 0.35 0.40 0.43 0.44 0.44 0.51 0.54 0.51 0.52 0.54 0.55 0.54 0.52 0.53
0.07 0.07 0.08 0.09 0.10 0.10 0.10 0.08 0.07 0.08 0.08 0.09 0.10 0.12 0.12 0.12 0.12 0.12 0.12 0.11 0.10 0.11 0.09 0.11 0.13 0.14 0.18 0.24 0.35 0.40 0.43 0.44 0.48 0.49 0.48 0.52 0.55 0.56 0.56 0.58 0.60 0.59 0.57 0.57
0.09 0.09 0.10 0.11 0.10 0.10 0.11 0.11 0.11 0.11 0.11 0.12 0.14 0.16 0.16 0.16 0.16 0.15 0.15 0.14 0.14 0.14 0.13 0.14 0.15 0.21 0.28 0.37 0.42 0.41 0.42 0.47 0.53 0.56 0.57 0.58 0.60 0.60 0.60 0.62 0.64 0.66 0.66 0.65
0.12 0.12 0.13 0.13 0.12 0.11 0.11 0.12 0.13 0.14 0.14 0.15 0.16 0.18 0.19 0.20 0.19 0.18 0.17 0.17 0.17 0.21 0.20 0.18 0.21 0.31 0.37 0.41 0.38 0.40 0.43 0.49 0.56 0.60 0.62 0.62 0.66 0.69 0.67 0.68 0.72 0.72 0.72 0.71
0.15 0.16 0.16 0.15 0.14 0.13 0.12 0.12 0.13 0.15 0.17 0.18 0.20 0.21 0.22 0.22 0.22 0.22 0.23 0.20 0.20 0.25 0.25 0.24 0.30 0.36 0.39 0.37 0.36 0.40 0.46 0.52 0.59 0.66 0.68 0.69 0.70 0.74 0.76 0.77 0.77 0.77 0.77 0.76
0.18 0.17 0.16 0.16 0.16 0.15 0.14 0.14 0.14 0.15 0.16 0.17 0.19 0.20 0.22 0.23 0.22 0.22 0.24 0.26 0.27 0.29 0.28 0.31 0.36 0.38 0.39 0.38 0.41 0.46 0.54 0.62 0.69 0.74 0.76 0.77 0.76 0.78 0.81 0.84 0.85 0.82 0.80 0.79
0.22 0.21 0.18 0.17 0.18 0.18 0.18 0.17 0.16 0.16 0.16 0.17 0.18 0.19 0.22 0.24 0.26 0.27 0.27 0.30 0.33 0.34 0.34 0.36 0.39 0.41 0.40 0.43 0.49 0.57 0.65 0.73 0.83 0.89 0.88 0.86 0.83 0.83 0.85 0.88 0.89 0.87 0.84 0.81
0.26 0.25 0.23 0.22 0.23 0.23 0.22 0.21 0.20 0.19 0.20 0.21 0.21 0.23 0.25 0.27 0.29 0.30 0.31 0.34 0.36 0.37 0.37 0.39 0.42 0.45 0.49 0.53 0.59 0.65 0.69 0.72 0.78 0.84 0.84 0.86 0.85 0.86 0.88 0.91 0.91 0.89 0.86 0.83
0.27 0.26 0.24 0.23 0.24 0.25 0.26 0.27 0.28 0.28 0.28 0.29 0.30 0.30 0.31 0.32 0.33 0.33 0.34 0.37 0.40 0.40 0.41 0.43 0.47 0.50 0.55 0.62 0.66 0.70 0.72 0.74 0.78 0.86 0.90 0.90 0.89 0.91 0.92 0.93 0.93 0.90 0.87 0.85

GEFSNGP_prec_meanprecacc_222.txt.gz
Total_Precipitation_Accumulation
0.37 0.29 0.37 0.40 0.34 0.36 0.50 0.49 0.38 0.14 0.08 0.08 0.09 0.09 0.08 0.07 0.06 0.06 0.07 0.08 0.08 0.10 0.13 0.19 0.27 0.35 0.47 0.50 0.45 0.43 0.48 0.57 0.68 0.72 0.75 0.78 0.87 0.98 1.02 1.07 1.10 1.09 1.10 1.06
0.37 0.23 0.29 0.31 0.24 0.25 0.29 0.25 0.20 0.11 0.08 0.05 0.06 0.07 0.07 0.07 0.07 0.07 0.07 0.07 0.07 0.09 0.10 0.15 0.26 0.38 0.47 0.53 0.54 0.54 0.62 0.68 0.74 0.79 0.80 0.81 0.86 0.99 1.07 1.11 1.17 1.18 1.14 1.10
0.55 0.30 0.46 0.44 0.21 0.19 0.20 0.17 0.16 0.14 0.08 0.06 0.06 0.07 0.07 0.08 0.10 0.09 0.08 0.08 0.08 0.09 0.10 0.15 0.31 0.44 0.46 0.52 0.57 0.63 0.69 0.71 0.69 0.74 0.80 0.78 0.78 0.89 1.01 1.03 1.00 1.00 1.00 1.00
0.73 0.56 0.80 0.33 0.14 0.12 0.15 0.16 0.17 0.16 0.11 0.09 0.08 0.07 0.07 0.09 0.09 0.09 0.10 0.10 0.11 0.11 0.12 0.15 0.26 0.32 0.34 0.43 0.52 0.57 0.61 0.67 0.70 0.69 0.74 0.79 0.77 0.73 0.76 0.83 0.90 0.86 0.79 0.76
0.96 0.72 0.41 0.15 0.13 0.16 0.19 0.21 0.21 0.19 0.14 0.11 0.09 0.07 0.08 0.10 0.08 0.08 0.09 0.09 0.10 0.11 0.12 0.15 0.19 0.24 0.27 0.32 0.40 0.46 0.49 0.53 0.59 0.60 0.64 0.67 0.73 0.69 0.63 0.65 0.71 0.74 0.72 0.67
1.09 0.79 0.36 0.20 0.14 0.14 0.17 0.26 0.22 0.17 0.16 0.14 0.16 0.29 0.20 0.13 0.10 0.09 0.06 0.05 0.06 0.07 0.08 0.11 0.15 0.20 0.24 0.28 0.29 0.34 0.36 0.37 0.38 0.41 0.46 0.46 0.49 0.52 0.51 0.54 0.58 0.59 0.64 0.65
0.93 0.70 0.26 0.13 0.12 0.15 0.32 0.40 0.27 0.22 0.19 0.20 0.29 0.37 0.24 0.14 0.10 0.08 0.06 0.04 0.04 0.05 0.08 0.11 0.14 0.17 0.20 0.23 0.23 0.26 0.27 0.24 0.24 0.27 0.30 0.32 0.34 0.39 0.41 0.43 0.48 0.53 0.56 0.59
0.70 0.78 0.36 0.15 0.17 0.30 0.43 0.28 0.23 0.22 0.20 0.22 0.19 0.14 0.12 0.09 0.08 0.07 0.06 0.05 0.05 0.06 0.08 0.10 0.12 0.13 0.15 0.18 0.19 0.21 0.23 0.20 0.19 0.22 0.26 0.29 0.31 0.34 0.37 0.40 0.45 0.48 0.52 0.58
0.50 0.39 0.21 0.19 0.23 0.24 0.21 0.19 0.18 0.19 0.18 0.20 0.18 0.12 0.10 0.08 0.07 0.07 0.06 0.06 0.07 0.09 0.10 0.09 0.08 0.09 0.11 0.13 0.15 0.17 0.20 0.20 0.20 0.21 0.25 0.30 0.35 0.37 0.39 0.40 0.45 0.49 0.51 0.55
0.28 0.19 0.17 0.17 0.17 0.16 0.14 0.14 0.13 0.14 0.18 0.19 0.17 0.12 0.09 0.06 0.05 0.05 0.05 0.06 0.09 0.09 0.08 0.08 0.07 0.08 0.08 0.09 0.12 0.16 0.20 0.22 0.22 0.23 0.26 0.30 0.35 0.38 0.41 0.47 0.55 0.59 0.58 0.57
0.19 0.11 0.11 0.12 0.12 0.12 0.10 0.08 0.08 0.07 0.08 0.12 0.12 0.10 0.09 0.07 0.06 0.07 0.07 0.08 0.08 0.08 0.08 0.07 0.07 0.07 0.07 0.07 0.10 0.14 0.18 0.22 0.26 0.27 0.28 0.30 0.32 0.35 0.40 0.45 0.62 0.78 0.69 0.67
0.15 0.10 0.09 0.09 0.08 0.09 0.10 0.09 0.10 0.09 0.07 0.06 0.07 0.07 0.08 0.09 0.09 0.10 0.10 0.10 0.09 0.08 0.06 0.04 0.05 0.06 0.06 0.06 0.09 0.13 0.17 0.21 0.25 0.30 0.31 0.32 0.34 0.36 0.37 0.39 0.45 0.49 0.53 0.63
0.08 0.07 0.06 0.06 0.05 0.06 0.08 0.09 0.10 0.10 0.08 0.07 0.06 0.06 0.07 0.08 0.09 0.09 0.10 0.09 0.08 0.06 0.05 0.05 0.05 0.06 0.07 0.07 0.09 0.13 0.20 0.24 0.27 0.28 0.31 0.35 0.38 0.43 0.41 0.38 0.39 0.39 0.42 0.50
0.05 0.06 0.07 0.06 0.06 0.06 0.07 0.08 0.09 0.08 0.07 0.06 0.05 0.05 0.06 0.07 0.07 0.08 0.08 0.08 0.06 0.05 0.04 0.05 0.06 0.06 0.08 0.09 0.10 0.14 0.20 0.27 0.31 0.30 0.32 0.35 0.39 0.42 0.45 0.46 0.45 0.41 0.41 0.48
0.06 0.06 0.07 0.06 0.05 0.05 0.05 0.06 0.07 0.07 0.05 0.04 0.04 0.05 0.06 0.07 0.08 0.09 0.08 0.06 0.05 0.04 0.04 0.05 0.06 0.06 0.07 0.09 0.12 0.15 0.20 0.27 0.34 0.36 0.36 0.38 0.38 0.40 0.42 0.43 0.43 0.42 0.43 0.51
0.07 0.06 0.06 0.05 0.04 0.05 0.05 0.06 0.08 0.07 0.05 0.04 0.05 0.06 0.07 0.08 0.08 0.08 0.06 0.05 0.04 0.04 0.05 0.07 0.08 0.09 0.09 0.12 0.15 0.17 0.20 0.30 0.39 0.42 0.42 0.43 0.42 0.43 0.45 0.45 0.44 0.44 0.49 0.55
0.08 0.07 0.05 0.04 0.04 0.05 0.06 0.07 0.08 0.08 0.07 0.06 0.06 0.07 0.08 0.08 0.07 0.07 0.06 0.06 0.05 0.04 0.05 0.07 0.09 0.11 0.12 0.15 0.19 0.20 0.23 0.29 0.38 0.43 0.44 0.45 0.49 0.49 0.50 0.52 0.52 0.49 0.47 0.51
0.09 0.09 0.07 0.07 0.07 0.07 0.07 0.07 0.07 0.08 0.07 0.07 0.08 0.09 0.10 0.09 0.08 0.07 0.07 0.06 0.06 0.05 0.05 0.07 0.11 0.13 0.14 0.17 0.22 0.23 0.28 0.32 0.38 0.45 0.47 0.48 0.54 0.54 0.54 0.54 0.53 0.53 0.49 0.51
0.07 0.07 0.08 0.08 0.09 0.11 0.09 0.07 0.07 0.08 0.08 0.09 0.10 0.11 0.11 0.11 0.10 0.10 0.09 0.08 0.07 0.07 0.07 0.09 0.14 0.14 0.15 0.20 0.28 0.31 0.36 0.41 0.45 0.45 0.45 0.52 0.55 0.53 0.54 0.55 0.56 0.56 0.54 0.54
0.08 0.08 0.09 0.10 0.11 0.12 0.11 0.09 0.09 0.09 0.10 0.10 0.11 0.12 0.13 0.13 0.13 0.13 0.12 0.11 0.11 0.11 0.10 0.12 0.14 0.15 0.18 0.25 0.36 0.42 0.44 0.46 0.49 0.50 0.49 0.53 0.57 0.58 0.58 0.60 0.61 0.61 0.59 0.58
0.09 0.10 0.11 0.11 0.11 0.10 0.12 0.12 0.12 0.12 0.12 0.12 0.14 0.16 0.17 0.17 0.16 0.15 0.15 0.14 0.14 0.15 0.14 0.15 0.16 0.22 0.29 0.38 0.43 0.42 0.44 0.49 0.54 0.58 0.59 0.59 0.62 0.62 0.62 0.64 0.66 0.68 0.67 0.66
0.12 0.12 0.13 0.13 0.12 0.11 0.11 0.12 0.13 0.14 0.15 0.15 0.16 0.18 0.20 0.20 0.19 0.18 0.18 0.17 0.17 0.21 0.21 0.18 0.22 0.32 0.39 0.43 0.40 0.41 0.44 0.51 0.58 0.62 0.64 0.64 0.68 0.71 0.69 0.69 0.74 0.73 0.74 0.72
0.15 0.16 0.16 0.16 0.14 0.13 0.12 0.12 0.13 0.15 0.17 0.18 0.20 0.21 0.22 0.23 0.22 0.22 0.23 0.20 0.21 0.26 0.26 0.25 0.31 0.38 0.41 0.39 0.37 0.41 0.47 0.54 0.61 0.68 0.70 0.71 0.72 0.76 0.79 0.79 0.79 0.79 0.79 0.77
0.18 0.17 0.16 0.16 0.16 0.15 0.14 0.14 0.15 0.16 0.17 0.17 0.19 0.21 0.22 0.23 0.22 0.22 0.24 0.26 0.28 0.30 0.29 0.33 0.37 0.40 0.41 0.40 0.42 0.48 0.55 0.63 0.71 0.76 0.79 0.79 0.78 0.80 0.84 0.86 0.87 0.83 0.81 0.80
0.22 0.21 0.18 0.17 0.18 0.18 0.18 0.17 0.16 0.16 0.16 0.17 0.18 0.20 0.22 0.25 0.27 0.27 0.28 0.31 0.34 0.35 0.35 0.37 0.40 0.42 0.42 0.44 0.51 0.59 0.66 0.74 0.85 0.91 0.91 0.88 0.85 0.85 0.87 0.90 0.91 0.89 0.85 0.82
0.26 0.25 0.23 0.22 0.23 0.23 0.22 0.21 0.20 0.20 0.20 0.21 0.22 0.23 0.25 0.28 0.31 0.31 0.32 0.35 0.37 0.38 0.38 0.40 0.43 0.46 0.49 0.55 0.60 0.66 0.70 0.73 0.80 0.86 0.87 0.88 0.88 0.88 0.90 0.93 0.92 0.90 0.87 0.84
0.28 0.27 0.25 0.23 0.24 0.26 0.26 0.27 0.28 0.28 0.28 0.29 0.31 0.31 0.31 0.33 0.35 0.35 0.35 0.38 0.40 0.41 0.41 0.44 0.47 0.51 0.56 0.63 0.67 0.71 0.73 0.76 0.80 0.89 0.93 0.92 0.91 0.93 0.94 0.95 0.94 0.91 0.88 0.86

GEFSNGP_prec_meanprecacc_228.txt.gz
Total_Precipitation_Accumulation
0.38 0.30 0.38 0.42 0.36 0.38 0.53 0.51 0.40 0.17 0.11 0.10 0.09 0.10 0.08 0.07 0.06 0.06 0.07 0.08 0.08 0.10 0.13 0.19 0.27 0.35 0.47 0.50 0.45 0.43 0.48 0.57 0.68 0.72 0.75 0.78 0.87 0.98 1.03 1.08 1.12 1.10 1.12 1.09
0.39 0.24 0.30 0.32 0.25 0.27 0.30 0.27 0.22 0.13 0.10 0.07 0.07 0.07 0.07 0.07 0.07 0.07 0.07 0.07 0.07 0.09 0.10 0.15 0.27 0.38 0.47 0.53 0.54 0.54 0.62 0.68 0.74 0.80 0.80 0.81 0.86 0.99 1.07 1.11 1.18 1.20 1.16 1.13
0.56 0.31 0.48 0.47 0.23 0.21 0.22 0.19 0.19 0.17 0.11 0.07 0.07 0.08 0.08 0.09 0.10 0.09 0.08 0.08 0.08 0.09 0.10 0.15 0.31 0.44 0.46 0.53 0.57 0.63 0.69 0.71 0.70 0.74 0.80 0.78 0.78 0.89 1.01 1.03 1.00 1.02 1.03 1.02
0.77 0.58 0.84 0.37 0.16 0.14 0.17 0.18 0.20 0.19 0.14 0.10 0.09 0.08 0.09 0.10 0.10 0.09 0.10 0.10 0.11 0.11 0.12 0.15 0.26 0.33 0.34 0.43 0.52 0.57 0.61 0.68 0.70 0.69 0.74 0.79 0.77 0.74 0.76 0.83 0.90 0.87 0.81 0.79
1.01 0.76 0.44 0.17 0.14 0.18 0.21 0.24 0.24 0.22 0.18 0.13 0.10 0.08 0.09 0.10 0.09 0.08 0.09 0.09 0.10 0.11 0.13 0.15 0.19 0.24 0.27 0.32 0.40 0.46 0.50 0.54 0.59 0.61 0.64 0.68 0.73 0.69 0.64 0.65 0.71 0.75 0.74 0.69
1.14 0.84 0.39 0.22 0.15 0.15 0.18 0.29 0.24 0.20 0.19 0.17 0.19 0.32 0.23 0.15 0.10 0.09 0.06 0.05 0.06 0.07 0.08 0.11 0.15 0.20 0.24 0.28 0.29 0.34 0.37 0.38 0.39 0.42 0.47 0.48 0.50 0.53 0.52 0.55 0.58 0.60 0.65 0.67
0.98 0.74 0.29 0.15 0.12 0.15 0.34 0.43 0.28 0.23 0.21 0.22 0.30 0.39 0.26 0.15 0.12 0.09 0.06 0.05 0.04 0.05 0.08 0.11 0.15 0.18 0.20 0.24 0.23 0.27 0.28 0.25 0.25 0.28 0.31 0.33 0.36 0.40 0.42 0.44 0.49 0.54 0.57 0.61
0.74 0.84 0.40 0.16 0.17 0.32 0.45 0.30 0.24 0.23 0.21 0.23 0.21 0.16 0.13 0.11 0.10 0.08 0.07 0.06 0.06 0.07 0.08 0.11 0.13 0.14 0.16 0.19 0.20 0.22 0.24 0.21 0.21 0.23 0.28 0.31 0.32 0.35 0.38 0.41 0.47 0.49 0.53 0.59
0.55 0.45 0.25 0.21 0.25 0.25 0.23 0.21 0.19 0.21 0.19 0.21 0.19 0.14 0.12 0.10 0.09 0.08 0.07 0.08 0.08 0.10 0.10 0.09 0.09 0.10 0.13 0.14 0.16 0.18 0.21 0.20 0.20 0.22 0.26 0.32 0.37 0.39 0.41 0.42 0.47 0.51 0.53 0.57
0.31 0.21 0.19 0.18 0.18 0.17 0.14 0.15 0.14 0.15 0.18 0.20 0.18 0.14 0.11 0.08 0.07 0.07 0.06 0.07 0.10 0.10 0.09 0.09 0.09 0.09 0.10 0.10 0.13 0.17 0.21 0.23 0.23 0.23 0.27 0.31 0.36 0.40 0.44 0.50 0.57 0.61 0.60 0.59
0.21 0.13 0.13 0.14 0.13 0.13 0.11 0.09 0.08 0.07 0.09 0.12 0.13 0.11 0.10 0.09 0.08 0.08 0.09 0.09 0.09 0.09 0.09 0.08 0.09 0.10 0.09 0.09 0.12 0.16 0.19 0.23 0.27 0.27 0.29 0.31 0.32 0.36 0.42 0.47 0.64 0.81 0.72 0.69
0.18 0.11 0.11 0.10 0.09 0.09 0.10 0.09 0.10 0.10 0.07 0.06 0.08 0.09 0.09 0.10 0.10 0.11 0.11 0.11 0.10 0.08 0.07 0.06 0.07 0.08 0.08 0.08 0.10 0.14 0.19 0.22 0.27 0.30 0.32 0.32 0.34 0.37 0.38 0.40 0.47 0.51 0.55 0.65
0.09 0.08 0.07 0.07 0.06 0.07 0.09 0.10 0.11 0.10 0.09 0.07 0.07 0.07 0.08 0.09 0.10 0.10 0.11 0.10 0.09 0.07 0.06 0.06 0.06 0.07 0.09 0.09 0.10 0.14 0.20 0.24 0.28 0.29 0.32 0.36 0.39 0.43 0.41 0.38 0.39 0.40 0.43 0.51
0.06 0.07 0.09 0.07 0.07 0.07 0.09 0.09 0.09 0.09 0.08 0.07 0.06 0.06 0.07 0.07 0.08 0.09 0.09 0.09 0.07 0.05 0.05 0.06 0.07 0.07 0.09 0.10 0.11 0.14 0.20 0.27 0.32 0.31 0.32 0.36 0.39 0.42 0.45 0.47 0.46 0.41 0.41 0.48
0.06 0.07 0.08 0.07 0.07 0.07 0.07 0.07 0.07 0.07 0.06 0.04 0.04 0.05 0.07 0.08 0.09 0.09 0.09 0.07 0.05 0.05 0.05 0.05 0.07 0.07 0.08 0.10 0.13 0.16 0.21 0.28 0.35 0.37 0.37 0.39 0.39 0.40 0.43 0.43 0.44 0.42 0.43 0.52
0.08 0.08 0.07 0.07 0.06 0.06 0.06 0.07 0.08 0.07 0.06 0.05 0.05 0.06 0.07 0.08 0.09 0.09 0.07 0.05 0.05 0.05 0.05 0.07 0.09 0.09 0.09 0.12 0.16 0.18 0.22 0.31 0.40 0.43 0.43 0.43 0.43 0.43 0.46 0.46 0.44 0.44 0.50 0.56
0.10 0.08 0.07 0.06 0.05 0.06 0.07 0.07 0.08 0.09 0.07 0.06 0.07 0.07 0.08 0.08 0.08 0.07 0.07 0.06 0.05 0.05 0.06 0.08 0.10 0.11 0.12 0.15 0.19 0.21 0.25 0.30 0.39 0.44 0.45 0.46 0.50 0.50 0.50 0.52 0.53 0.50 0.48 0.53
0.10 0.10 0.09 0.08 0.08 0.08 0.08 0.07 0.08 0.08 0.08 0.07 0.08 0.09 0.10 0.10 0.09 0.08 0.08 0.07 0.06 0.06 0.06 0.07 0.11 0.13 0.14 0.18 0.22 0.24 0.29 0.34 0.40 0.46 0.48 0.49 0.55 0.55 0.54 0.54 0.53 0.53 0.50 0.52
0.08 0.09 0.09 0.09 0.10 0.11 0.10 0.07 0.07 0.09 0.09 0.09 0.10 0.12 0.12 0.12 0.11 0.11 0.09 0.08 0.08 0.08 0.08 0.09 0.14 0.14 0.16 0.20 0.29 0.32 0.38 0.42 0.46 0.46 0.46 0.53 0.56 0.54 0.55 0.56 0.57 0.56 0.54 0.55
0.09 0.09 0.09 0.11 0.11 0.12 0.11 0.10 0.09 0.10 0.11 0.11 0.12 0.13 0.14 0.14 0.14 0.13 0.13 0.12 0.11 0.12 0.10 0.12 0.14 0.15 0.19 0.26 0.37 0.43 0.45 0.47 0.51 0.51 0.50 0.54 0.58 0.59 0.59 0.60 0.62 0.61 0.59 0.59
0.11 0.11 0.11 0.12 0.11 0.11 0.12 0.13 0.13 0.13 0.13 0.13 0.15 0.17 0.17 0.17 0.16 0.16 0.15 0.15 0.14 0.15 0.14 0.15 0.16 0.22 0.30 0.39 0.45 0.44 0.45 0.51 0.56 0.59 0.60 0.61 0.63 0.63 0.63 0.64 0.66 0.68 0.68 0.67
0.13 0.13 0.14 0.14 0.12 0.11 0.12 0.12 0.14 0.15 0.15 0.16 0.17 0.19 0.20 0.20 0.19 0.18 0.18 0.17 0.17 0.21 0.21 0.19 0.22 0.33 0.40 0.44 0.41 0.43 0.46 0.52 0.59 0.64 0.66 0.66 0.69 0.72 0.70 0.70 0.74 0.74 0.74 0.73
0.16 0.17 0.17 0.16 0.15 0.14 0.12 0.12 0.14 0.15 0.17 0.18 0.20 0.21 0.22 0.23 0.23 0.23 0.23 0.20 0.21 0.26 0.26 0.25 0.32 0.39 0.43 0.41 0.39 0.43 0.49 0.55 0.62 0.69 0.72 0.73 0.74 0.78 0.80 0.79 0.80 0.80 0.79 0.78
0.19 0.18 0.17 0.16 0.16 0.15 0.15 0.15 0.15 0.16 0.17 0.17 0.19 0.21 0.23 0.23 0.22 0.22 0.25 0.26 0.28 0.30 0.30 0.33 0.38 0.41 0.43 0.42 0.44 0.49 0.57 0.65 0.72 0.78 0.80 0.81 0.80 0.81 0.85 0.87 0.88 0.84 0.82 0.81
0.22 0.21 0.19 0.18 0.18 0.19 0.18 0.17 0.16 0.16 0.17 0.17 0.18 0.20 0.23 0.26 0.28 0.28 0.28 0.31 0.34 0.35 0.36 0.38 0.41 0.44 0.44 0.46 0.53 0.60 0.68 0.76 0.87 0.93 0.92 0.90 0.86 0.87 0.88 0.91 0.92 0.89 0.86 0.83
0.26 0.26 0.24 0.23 0.24 0.24 0.23 0.22 0.21 0.20 0.20 0.21 0.22 0.23 0.25 0.29 0.31 0.32 0.32 0.35 0.38 0.39 0.39 0.42 0.45 0.48 0.52 0.57 0.62 0.68 0.72 0.75 0.81 0.88 0.89 0.90 0.89 0.89 0.91 0.94 0.93 0.91 0.88 0.85
0.28 0.27 0.25 0.24 0.25 0.26 0.27 0.28 0.29 0.29 0.29 0.30 0.31 0.31 0.31 0.33 0.35 0.35 0.36 0.39 0.42 0.43 0.43 0.46 0.49 0.53 0.58 0.65 0.69 0.72 0.75 0.77 0.82 0.90 0.94 0.94 0.92 0.94 0.95 0.95 0.95 0.92 0.90 0.87

GEFSNGP_prec_meanprecacc_234.txt.gz
Total_Precipitation_Accumulation
0.40 0.31 0.40 0.44 0.38 0.40 0.56 0.55 0.44 0.21 0.14 0.12 0.11 0.10 0.09 0.07 0.07 0.06 0.08 0.08 0.08 0.10 0.13 0.19 0.28 0.36 0.47 0.51 0.45 0.43 0.48 0.57 0.68 0.72 0.75 0.78 0.87 0.98 1.03 1.09 1.12 1.11 1.13 1.09
0.40 0.26 0.31 0.33 0.26 0.28 0.32 0.29 0.25 0.16 0.15 0.10 0.08 0.08 0.08 0.08 0.08 0.07 0.07 0.07 0.07 0.09 0.11 0.15 0.27 0.39 0.48 0.55 0.55 0.55 0.63 0.68 0.75 0.80 0.80 0.81 0.87 1.00 1.08 1.12 1.18 1.20 1.17 1.13
0.58 0.33 0.50 0.49 0.26 0.24 0.25 0.22 0.22 0.22 0.16 0.10 0.08 0.09 0.09 0.10 0.11 0.11 0.08 0.08 0.08 0.09 0.11 0.16 0.31 0.44 0.47 0.54 0.60 0.65 0.71 0.72 0.70 0.75 0.80 0.79 0.78 0.89 1.01 1.04 1.01 1.02 1.04 1.03
0.79 0.60 0.87 0.41 0.19 0.17 0.19 0.22 0.24 0.24 0.18 0.12 0.10 0.09 0.10 0.11 0.12 0.11 0.10 0.11 0.11 0.12 0.12 0.16 0.26 0.33 0.35 0.44 0.54 0.60 0.63 0.69 0.71 0.71 0.75 0.80 0.78 0.74 0.77 0.84 0.91 0.88 0.82 0.80
1.05 0.79 0.46 0.19 0.17 0.21 0.23 0.27 0.28 0.25 0.21 0.16 0.12 0.09 0.11 0.12 0.11 0.10 0.10 0.10 0.10 0.11 0.13 0.16 0.20 0.25 0.27 0.33 0.41 0.48 0.52 0.55 0.60 0.62 0.65 0.69 0.74 0.70 0.65 0.66 0.72 0.76 0.75 0.70
1.18 0.87 0.42 0.25 0.17 0.16 0.20 0.31 0.27 0.22 0.22 0.21 0.21 0.34 0.26 0.18 0.13 0.10 0.07 0.06 0.06 0.07 0.08 0.11 0.16 0.21 0.25 0.29 0.30 0.35 0.38 0.39 0.40 0.43 0.48 0.48 0.50 0.53 0.53 0.56 0.59 0.61 0.66 0.67
1.01 0.77 0.32 0.16 0.13 0.16 0.36 0.46 0.30 0.25 0.23 0.24 0.33 0.42 0.30 0.20 0.15 0.10 0.07 0.06 0.05 0.06 0.08 0.12 0.16 0.19 0.22 0.25 0.25 0.29 0.29 0.26 0.26 0.30 0.33 0.34 0.36 0.40 0.42 0.45 0.49 0.55 0.58 0.61
0.77 0.87 0.43 0.17 0.18 0.34 0.48 0.31 0.25 0.24 0.22 0.24 0.22 0.17 0.16 0.14 0.12 0.10 0.09 0.08 0.07 0.08 0.10 0.13 0.15 0.16 0.19 0.22 0.23 0.25 0.27 0.23 0.22 0.24 0.29 0.31 0.33 0.36 0.39 0.42 0.47 0.50 0.54 0.60
0.57 0.49 0.29 0.23 0.27 0.27 0.24 0.22 0.20 0.22 0.20 0.22 0.20 0.15 0.14 0.12 0.11 0.10 0.10 0.10 0.10 0.11 0.12 0.11 0.11 0.12 0.15 0.16 0.18 0.20 0.23 0.23 0.22 0.24 0.27 0.33 0.38 0.39 0.41 0.42 0.48 0.52 0.54 0.57
0.34 0.25 0.22 0.20 0.19 0.18 0.16 0.16 0.16 0.16 0.20 0.21 0.19 0.15 0.12 0.10 0.09 0.08 0.08 0.09 0.12 0.12 0.11 0.11 0.10 0.10 0.11 0.11 0.14 0.18 0.22 0.25 0.25 0.25 0.28 0.32 0.37 0.41 0.45 0.51 0.59 0.63 0.62 0.60
0.23 0.15 0.14 0.15 0.14 0.14 0.12 0.10 0.09 0.08 0.10 0.13 0.14 0.13 0.11 0.10 0.09 0.10 0.11 0.11 0.11 0.11 0.11 0.10 0.10 0.11 0.11 0.10 0.13 0.17 0.20 0.24 0.28 0.29 0.30 0.32 0.34 0.37 0.43 0.48 0.65 0.83 0.74 0.72
0.19 0.12 0.11 0.11 0.09 0.10 0.10 0.09 0.11 0.11 0.08 0.07 0.09 0.10 0.11 0.11 0.12 0.13 0.13 0.13 0.12 0.10 0.08 0.07 0.08 0.09 0.10 0.10 0.12 0.16 0.20 0.22 0.27 0.31 0.33 0.33 0.35 0.38 0.39 0.42 0.48 0.52 0.57 0.68
0.10 0.08 0.07 0.07 0.06 0.07 0.09 0.10 0.11 0.11 0.09 0.08 0.08 0.09 0.10 0.11 0.11 0.12 0.12 0.12 0.11 0.09 0.07 0.07 0.08 0.09 0.11 0.10 0.11 0.15 0.21 0.25 0.29 0.30 0.33 0.37 0.40 0.44 0.43 0.39 0.40 0.41 0.45 0.53
0.07 0.08 0.09 0.08 0.07 0.08 0.09 0.09 0.09 0.09 0.08 0.07 0.07 0.08 0.09 0.09 0.09 0.10 0.10 0.10 0.08 0.07 0.06 0.07 0.08 0.09 0.10 0.11 0.12 0.15 0.21 0.28 0.32 0.32 0.33 0.37 0.41 0.44 0.47 0.48 0.47 0.42 0.42 0.49
0.07 0.08 0.08 0.07 0.07 0.07 0.07 0.07 0.08 0.08 0.06 0.05 0.05 0.06 0.08 0.09 0.10 0.11 0.10 0.08 0.06 0.06 0.06 0.07 0.08 0.09 0.09 0.11 0.14 0.17 0.21 0.29 0.35 0.38 0.38 0.40 0.40 0.42 0.45 0.45 0.45 0.44 0.45 0.53
0.09 0.08 0.07 0.07 0.07 0.07 0.07 0.07 0.09 0.08 0.06 0.05 0.06 0.07 0.08 0.09 0.10 0.10 0.08 0.07 0.06 0.06 0.07 0.09 0.10 0.11 0.11 0.13 0.16 0.19 0.22 0.32 0.41 0.44 0.44 0.45 0.44 0.45 0.47 0.47 0.46 0.46 0.52 0.57
0.11 0.09 0.07 0.07 0.06 0.07 0.08 0.08 0.09 0.09 0.07 0.06 0.07 0.08 0.10 0.10 0.09 0.09 0.08 0.07 0.06 0.06 0.07 0.09 0.11 0.12 0.13 0.16 0.20 0.22 0.25 0.31 0.40 0.45 0.46 0.47 0.51 0.51 0.51 0.54 0.54 0.52 0.50 0.54
0.12 0.11 0.10 0.09 0.09 0.09 0.09 0.08 0.09 0.09 0.08 0.07 0.08 0.10 0.11 0.11 0.10 0.10 0.09 0.08 0.08 0.07 0.07 0.09 0.12 0.15 0.15 0.18 0.23 0.25 0.29 0.34 0.41 0.48 0.49 0.51 0.56 0.57 0.56 0.56 0.55 0.55 0.51 0.54
0.09 0.10 0.10 0.10 0.12 0.13 0.11 0.08 0.08 0.09 0.10 0.10 0.11 0.12 0.13 0.13 0.12 0.12 0.11 0.09 0.09 0.09 0.09 0.11 0.15 0.15 0.16 0.21 0.29 0.32 0.38 0.43 0.47 0.48 0.48 0.55 0.58 0.55 0.57 0.58 0.58 0.58 0.56 0.57
0.10 0.10 0.11 0.12 0.13 0.14 0.13 0.11 0.10 0.10 0.11 0.12 0.12 0.14 0.15 0.15 0.15 0.15 0.14 0.13 0.12 0.13 0.11 0.14 0.15 0.16 0.19 0.26 0.38 0.43 0.46 0.48 0.52 0.52 0.52 0.55 0.59 0.60 0.60 0.62 0.63 0.63 0.60 0.60
0.12 0.12 0.13 0.13 0.12 0.12 0.13 0.13 0.13 0.13 0.13 0.14 0.16 0.18 0.18 0.19 0.18 0.17 0.17 0.16 0.15 0.16 0.15 0.15 0.16 0.23 0.31 0.40 0.45 0.44 0.46 0.51 0.57 0.60 0.61 0.62 0.64 0.64 0.64 0.65 0.67 0.69 0.69 0.68
0.15 0.15 0.15 0.15 0.14 0.12 0.13 0.13 0.14 0.15 0.15 0.16 0.18 0.19 0.21 0.21 0.20 0.20 0.19 0.18 0.18 0.22 0.22 0.19 0.22 0.34 0.41 0.46 0.42 0.44 0.47 0.54 0.60 0.64 0.67 0.66 0.70 0.73 0.71 0.71 0.76 0.75 0.76 0.75
0.18 0.18 0.18 0.17 0.16 0.14 0.13 0.13 0.14 0.16 0.18 0.19 0.20 0.22 0.23 0.23 0.23 0.24 0.24 0.21 0.21 0.26 0.26 0.26 0.32 0.40 0.44 0.43 0.41 0.44 0.50 0.56 0.63 0.70 0.73 0.73 0.75 0.78 0.81 0.80 0.81 0.81 0.81 0.80
0.20 0.19 0.18 0.18 0.17 0.16 0.15 0.15 0.15 0.16 0.17 0.18 0.19 0.21 0.23 0.24 0.23 0.22 0.25 0.27 0.28 0.31 0.30 0.34 0.39 0.43 0.45 0.44 0.45 0.50 0.58 0.66 0.73 0.79 0.81 0.82 0.81 0.82 0.86 0.89 0.89 0.85 0.83 0.82
0.24 0.22 0.20 0.19 0.19 0.19 0.19 0.18 0.17 0.16 0.17 0.17 0.18 0.20 0.23 0.26 0.28 0.28 0.28 0.31 0.34 0.36 0.36 0.39 0.42 0.45 0.45 0.48 0.54 0.61 0.69 0.77 0.87 0.94 0.93 0.91 0.87 0.88 0.90 0.92 0.93 0.91 0.88 0.85
0.28 0.27 0.25 0.24 0.25 0.24 0.23 0.22 0.21 0.20 0.21 0.22 0.22 0.23 0.26 0.29 0.31 0.32 0.33 0.36 0.38 0.40 0.40 0.43 0.46 0.49 0.53 0.58 0.64 0.69 0.73 0.76 0.82 0.89 0.90 0.91 0.90 0.90 0.92 0.95 0.94 0.92 0.90 0.86
0.29 0.28 0.26 0.24 0.26 0.27 0.27 0.28 0.29 0.29 0.29 0.30 0.32 0.31 0.32 0.34 0.35 0.36 0.36 0.39 0.42 0.44 0.44 0.47 0.50 0.54 0.59 0.66 0.70 0.73 0.76 0.78 0.83 0.91 0.95 0.94 0.93 0.95 0.96 0.96 0.96 0.94 0.91 0.88

GEFSNGP_prec_meanprecacc_240.txt.gz
Total_Precipitation_Accumulation
0.43 0.34 0.41 0.46 0.39 0.42 0.58 0.57 0.46 0.22 0.15 0.14 0.13 0.13 0.11 0.10 0.08 0.07 0.08 0.08 0.08 0.11 0.14 0.20 0.28 0.36 0.47 0.51 0.45 0.43 0.48 0.57 0.68 0.73 0.75 0.79 0.88 0.98 1.04 1.10 1.13 1.12 1.14 1.11
0.42 0.27 0.32 0.35 0.27 0.29 0.34 0.31 0.27 0.18 0.17 0.13 0.11 0.11 0.10 0.10 0.10 0.08 0.08 0.08 0.08 0.10 0.11 0.16 0.27 0.39 0.48 0.55 0.55 0.55 0.63 0.68 0.75 0.80 0.80 0.81 0.87 1.00 1.08 1.12 1.19 1.21 1.18 1.14
0.60 0.34 0.51 0.51 0.28 0.26 0.28 0.24 0.24 0.24 0.19 0.13 0.12 0.12 0.13 0.13 0.13 0.12 0.09 0.08 0.08 0.10 0.11 0.16 0.32 0.44 0.47 0.54 0.60 0.65 0.71 0.73 0.71 0.75 0.81 0.79 0.79 0.90 1.02 1.04 1.01 1.02 1.04 1.04
0.82 0.62 0.90 0.45 0.22 0.20 0.22 0.25 0.27 0.27 0.21 0.15 0.13 0.14 0.16 0.17 0.16 0.14 0.11 0.12 0.12 0.12 0.12 0.16 0.26 0.33 0.35 0.45 0.55 0.61 0.64 0.71 0.73 0.72 0.76 0.80 0.78 0.75 0.77 0.84 0.91 0.88 0.82 0.80
1.08 0.82 0.48 0.21 0.19 0.23 0.25 0.31 0.32 0.28 0.24 0.19 0.15 0.12 0.15 0.17 0.16 0.14 0.12 0.11 0.11 0.11 0.13 0.16 0.20 0.25 0.28 0.34 0.42 0.50 0.55 0.57 0.62 0.64 0.67 0.70 0.75 0.70 0.65 0.67 0.73 0.77 0.75 0.70
1.21 0.90 0.44 0.27 0.19 0.18 0.21 0.34 0.30 0.26 0.25 0.24 0.24 0.36 0.31 0.22 0.16 0.13 0.10 0.09 0.08 0.08 0.09 0.12 0.17 0.22 0.26 0.30 0.31 0.37 0.41 0.41 0.41 0.44 0.49 0.50 0.52 0.55 0.54 0.57 0.60 0.61 0.66 0.68
1.03 0.80 0.33 0.18 0.13 0.16 0.38 0.49 0.32 0.27 0.26 0.27 0.35 0.45 0.34 0.23 0.19 0.15 0.11 0.08 0.06 0.07 0.09 0.13 0.17 0.20 0.23 0.26 0.26 0.30 0.31 0.28 0.29 0.31 0.34 0.36 0.39 0.42 0.44 0.46 0.50 0.55 0.58 0.62
0.79 0.90 0.45 0.19 0.19 0.35 0.51 0.33 0.27 0.26 0.24 0.26 0.24 0.20 0.19 0.18 0.16 0.14 0.12 0.10 0.09 0.09 0.11 0.14 0.17 0.18 0.20 0.23 0.24 0.26 0.29 0.25 0.24 0.27 0.31 0.33 0.35 0.38 0.40 0.43 0.48 0.51 0.55 0.61
0.59 0.51 0.31 0.25 0.29 0.30 0.26 0.24 0.22 0.23 0.22 0.24 0.22 0.18 0.16 0.15 0.13 0.12 0.11 0.12 0.12 0.13 0.13 0.13 0.13 0.15 0.17 0.18 0.19 0.22 0.25 0.26 0.25 0.26 0.29 0.34 0.39 0.41 0.42 0.43 0.49 0.53 0.55 0.59
0.35 0.26 0.23 0.21 0.20 0.19 0.17 0.17 0.17 0.18 0.21 0.22 0.21 0.16 0.13 0.11 0.10 0.10 0.09 0.11 0.13 0.13 0.12 0.12 0.12 0.12 0.13 0.13 0.15 0.20 0.24 0.27 0.27 0.27 0.30 0.34 0.39 0.43 0.47 0.52 0.60 0.64 0.63 0.62
0.24 0.16 0.15 0.16 0.15 0.14 0.12 0.10 0.10 0.09 0.11 0.15 0.15 0.14 0.13 0.11 0.10 0.11 0.12 0.12 0.12 0.12 0.12 0.11 0.11 0.12 0.12 0.12 0.14 0.18 0.21 0.26 0.29 0.30 0.32 0.34 0.36 0.39 0.46 0.50 0.67 0.85 0.77 0.74
0.20 0.13 0.12 0.12 0.10 0.10 0.10 0.10 0.11 0.11 0.09 0.08 0.10 0.11 0.12 0.12 0.13 0.14 0.14 0.14 0.13 0.11 0.09 0.08 0.09 0.11 0.11 0.11 0.13 0.17 0.21 0.24 0.28 0.32 0.34 0.34 0.37 0.40 0.42 0.44 0.51 0.55 0.59 0.70
0.12 0.09 0.08 0.08 0.07 0.07 0.09 0.10 0.11 0.11 0.10 0.08 0.08 0.10 0.11 0.11 0.12 0.12 0.13 0.13 0.12 0.10 0.09 0.09 0.09 0.10 0.12 0.12 0.13 0.17 0.23 0.27 0.30 0.30 0.34 0.38 0.41 0.46 0.45 0.42 0.43 0.44 0.47 0.55
0.08 0.08 0.10 0.08 0.07 0.08 0.09 0.09 0.09 0.09 0.08 0.08 0.07 0.08 0.09 0.10 0.10 0.11 0.11 0.11 0.09 0.08 0.07 0.08 0.09 0.10 0.12 0.12 0.13 0.16 0.22 0.29 0.33 0.32 0.34 0.38 0.41 0.45 0.48 0.50 0.49 0.44 0.44 0.51
0.08 0.09 0.09 0.08 0.08 0.08 0.07 0.07 0.08 0.08 0.06 0.05 0.05 0.07 0.09 0.10 0.11 0.12 0.11 0.10 0.08 0.07 0.07 0.08 0.09 0.10 0.11 0.13 0.15 0.18 0.22 0.29 0.36 0.38 0.39 0.41 0.41 0.43 0.46 0.46 0.46 0.45 0.46 0.55
0.09 0.09 0.08 0.08 0.07 0.07 0.07 0.08 0.09 0.08 0.06 0.05 0.06 0.07 0.09 0.10 0.11 0.11 0.09 0.08 0.07 0.07 0.08 0.09 0.11 0.11 0.12 0.14 0.18 0.20 0.23 0.33 0.42 0.45 0.44 0.46 0.45 0.46 0.48 0.49 0.47 0.47 0.52 0.59
0.12 0.10 0.08 0.07 0.06 0.08 0.08 0.09 0.10 0.10 0.08 0.06 0.07 0.09 0.10 0.10 0.10 0.09 0.09 0.08 0.07 0.07 0.08 0.09 0.12 0.13 0.14 0.17 0.21 0.23 0.27 0.32 0.41 0.46 0.46 0.48 0.52 0.52 0.52 0.55 0.55 0.53 0.51 0.55
0.13 0.13 0.11 0.10 0.10 0.10 0.10 0.09 0.09 0.10 0.09 0.08 0.09 0.11 0.12 0.12 0.11 0.11 0.10 0.09 0.08 0.08 0.08 0.09 0.13 0.16 0.16 0.20 0.24 0.26 0.31 0.36 0.42 0.49 0.50 0.52 0.57 0.58 0.57 0.57 0.56 0.56 0.52 0.55
0.10 0.11 0.11 0.11 0.13 0.14 0.12 0.10 0.09 0.10 0.11 0.11 0.12 0.13 0.13 0.14 0.13 0.13 0.11 0.10 0.09 0.10 0.10 0.12 0.16 0.16 0.18 0.22 0.31 0.34 0.39 0.44 0.48 0.49 0.49 0.56 0.59 0.56 0.58 0.59 0.60 0.59 0.57 0.58
0.11 0.11 0.11 0.13 0.14 0.15 0.14 0.12 0.11 0.12 0.12 0.13 0.14 0.15 0.16 0.16 0.16 0.16 0.14 0.14 0.13 0.13 0.12 0.14 0.16 0.17 0.20 0.27 0.39 0.44 0.47 0.49 0.53 0.53 0.53 0.56 0.60 0.61 0.61 0.63 0.65 0.64 0.62 0.62
0.14 0.14 0.14 0.14 0.14 0.14 0.14 0.15 0.14 0.14 0.14 0.15 0.16 0.19 0.19 0.19 0.19 0.18 0.18 0.17 0.16 0.17 0.16 0.16 0.17 0.23 0.31 0.41 0.46 0.45 0.47 0.53 0.58 0.61 0.62 0.63 0.65 0.65 0.65 0.67 0.69 0.71 0.71 0.69
0.16 0.16 0.17 0.17 0.15 0.14 0.14 0.14 0.15 0.16 0.16 0.16 0.18 0.20 0.21 0.22 0.21 0.20 0.19 0.19 0.19 0.23 0.23 0.20 0.23 0.35 0.42 0.47 0.44 0.45 0.48 0.54 0.61 0.65 0.68 0.67 0.72 0.74 0.72 0.72 0.77 0.77 0.77 0.76
0.20 0.20 0.19 0.19 0.17 0.16 0.14 0.14 0.14 0.16 0.18 0.19 0.21 0.22 0.23 0.24 0.24 0.24 0.24 0.22 0.22 0.27 0.27 0.26 0.33 0.41 0.46 0.45 0.42 0.45 0.50 0.57 0.64 0.71 0.74 0.75 0.76 0.80 0.82 0.81 0.82 0.82 0.82 0.80
0.22 0.20 0.19 0.19 0.18 0.17 0.16 0.16 0.16 0.17 0.17 0.18 0.20 0.22 0.24 0.24 0.23 0.23 0.25 0.27 0.29 0.31 0.31 0.35 0.40 0.44 0.46 0.45 0.46 0.51 0.58 0.66 0.74 0.80 0.82 0.83 0.82 0.84 0.87 0.90 0.90 0.86 0.84 0.82
0.25 0.24 0.21 0.20 0.20 0.20 0.19 0.19 0.17 0.17 0.17 0.18 0.19 0.21 0.23 0.26 0.29 0.28 0.29 0.32 0.35 0.36 0.37 0.39 0.43 0.46 0.46 0.48 0.55 0.62 0.70 0.78 0.89 0.95 0.95 0.92 0.89 0.89 0.90 0.93 0.94 0.92 0.88 0.85
0.29 0.28 0.27 0.25 0.26 0.25 0.24 0.23 0.22 0.21 0.21 0.22 0.22 0.24 0.26 0.29 0.32 0.32 0.33 0.36 0.39 0.40 0.41 0.43 0.46 0.50 0.54 0.59 0.65 0.70 0.74 0.77 0.83 0.90 0.91 0.92 0.91 0.92 0.93 0.96 0.95 0.93 0.90 0.87
0.31 0.29 0.27 0.26 0.27 0.28 0.28 0.29 0.30 0.29 0.29 0.31 0.32 0.31 0.32 0.34 0.36 0.36 0.37 0.40 0.43 0.44 0.45 0.48 0.51 0.55 0.60 0.67 0.71 0.74 0.77 0.79 0.84 0.92 0.96 0.95 0.94 0.96 0.97 0.97 0.97 0.94 0.91 0.88

GEFSNGP_prec_meanprecacc_246.txt.gz
Total_Precipitation_Accumulation
0.45 0.35 0.42 0.47 0.41 0.45 0.60 0.59 0.47 0.24 0.16 0.16 0.15 0.15 0.13 0.12 0.09 0.08 0.09 0.09 0.09 0.11 0.14 0.20 0.28 0.36 0.48 0.52 0.45 0.44 0.49 0.58 0.69 0.74 0.76 0.79 0.88 0.99 1.04 1.10 1.14 1.14 1.16 1.14
0.43 0.29 0.33 0.35 0.29 0.31 0.37 0.33 0.29 0.19 0.19 0.15 0.13 0.13 0.13 0.13 0.12 0.10 0.10 0.10 0.10 0.11 0.11 0.16 0.28 0.39 0.49 0.56 0.56 0.55 0.63 0.69 0.76 0.81 0.81 0.81 0.87 1.00 1.09 1.12 1.20 1.22 1.19 1.15
0.61 0.34 0.52 0.53 0.31 0.28 0.30 0.28 0.26 0.26 0.21 0.15 0.14 0.15 0.17 0.17 0.17 0.16 0.13 0.11 0.11 0.12 0.12 0.17 0.32 0.45 0.48 0.56 0.61 0.66 0.72 0.73 0.72 0.76 0.81 0.79 0.79 0.90 1.02 1.04 1.01 1.03 1.04 1.04
0.83 0.63 0.93 0.48 0.24 0.21 0.23 0.27 0.29 0.29 0.23 0.18 0.16 0.17 0.20 0.22 0.22 0.19 0.16 0.16 0.15 0.15 0.14 0.17 0.28 0.34 0.36 0.46 0.56 0.61 0.65 0.71 0.73 0.72 0.76 0.80 0.78 0.75 0.77 0.84 0.91 0.88 0.83 0.80
1.10 0.83 0.49 0.22 0.20 0.25 0.27 0.33 0.35 0.31 0.26 0.21 0.17 0.14 0.19 0.21 0.21 0.19 0.18 0.17 0.16 0.15 0.15 0.18 0.22 0.26 0.29 0.36 0.44 0.51 0.55 0.58 0.63 0.64 0.67 0.71 0.75 0.71 0.65 0.67 0.73 0.77 0.75 0.71
1.23 0.91 0.45 0.28 0.20 0.20 0.23 0.36 0.33 0.28 0.28 0.26 0.25 0.38 0.34 0.26 0.19 0.17 0.15 0.13 0.12 0.11 0.12 0.15 0.19 0.23 0.27 0.32 0.33 0.38 0.41 0.42 0.43 0.45 0.51 0.51 0.53 0.55 0.54 0.57 0.60 0.61 0.66 0.68
1.05 0.81 0.34 0.18 0.14 0.17 0.39 0.52 0.35 0.29 0.28 0.29 0.37 0.47 0.37 0.26 0.21 0.18 0.14 0.11 0.09 0.09 0.11 0.15 0.19 0.22 0.25 0.28 0.28 0.31 0.32 0.29 0.29 0.33 0.35 0.37 0.40 0.43 0.45 0.47 0.51 0.56 0.59 0.63
0.80 0.92 0.47 0.19 0.19 0.37 0.53 0.34 0.29 0.28 0.26 0.28 0.26 0.23 0.21 0.20 0.18 0.16 0.15 0.13 0.11 0.11 0.12 0.15 0.17 0.19 0.21 0.25 0.26 0.27 0.29 0.26 0.25 0.28 0.32 0.35 0.37 0.39 0.42 0.45 0.50 0.53 0.57 0.62
0.60 0.53 0.33 0.26 0.30 0.32 0.28 0.26 0.24 0.25 0.24 0.26 0.24 0.20 0.18 0.17 0.15 0.14 0.14 0.14 0.14 0.14 0.14 0.14 0.15 0.15 0.18 0.19 0.20 0.22 0.26 0.26 0.26 0.27 0.30 0.36 0.41 0.42 0.44 0.45 0.51 0.56 0.57 0.61
0.36 0.28 0.25 0.23 0.22 0.21 0.18 0.19 0.19 0.19 0.23 0.24 0.22 0.18 0.15 0.12 0.11 0.11 0.11 0.12 0.15 0.14 0.13 0.14 0.13 0.13 0.13 0.13 0.16 0.20 0.25 0.28 0.28 0.28 0.31 0.35 0.40 0.44 0.48 0.54 0.61 0.66 0.65 0.64
0.25 0.17 0.16 0.17 0.17 0.15 0.13 0.11 0.11 0.10 0.12 0.16 0.16 0.15 0.14 0.12 0.11 0.12 0.13 0.14 0.13 0.13 0.12 0.12 0.12 0.13 0.13 0.12 0.14 0.19 0.22 0.26 0.30 0.31 0.32 0.35 0.37 0.41 0.47 0.51 0.69 0.86 0.78 0.75
0.21 0.14 0.13 0.13 0.11 0.10 0.11 0.10 0.12 0.12 0.10 0.09 0.10 0.12 0.12 0.13 0.14 0.15 0.15 0.15 0.14 0.12 0.10 0.09 0.10 0.12 0.12 0.12 0.13 0.17 0.21 0.24 0.29 0.33 0.34 0.35 0.38 0.41 0.43 0.45 0.52 0.56 0.61 0.72
0.12 0.09 0.09 0.08 0.07 0.07 0.09 0.11 0.12 0.11 0.10 0.09 0.09 0.10 0.11 0.12 0.13 0.13 0.13 0.14 0.13 0.11 0.10 0.10 0.10 0.11 0.13 0.13 0.13 0.17 0.23 0.27 0.30 0.31 0.34 0.38 0.41 0.46 0.45 0.43 0.44 0.45 0.48 0.57
0.08 0.09 0.10 0.09 0.08 0.08 0.09 0.09 0.10 0.09 0.09 0.08 0.08 0.08 0.09 0.10 0.10 0.11 0.12 0.12 0.10 0.09 0.08 0.09 0.10 0.11 0.12 0.13 0.14 0.17 0.23 0.29 0.34 0.33 0.35 0.39 0.42 0.46 0.49 0.50 0.50 0.45 0.45 0.52
0.08 0.09 0.10 0.08 0.08 0.08 0.07 0.07 0.08 0.08 0.06 0.05 0.05 0.07 0.09 0.10 0.11 0.12 0.11 0.10 0.08 0.08 0.08 0.08 0.10 0.11 0.11 0.13 0.15 0.18 0.23 0.30 0.37 0.39 0.39 0.41 0.42 0.44 0.47 0.47 0.47 0.46 0.47 0.56
0.10 0.09 0.08 0.08 0.08 0.07 0.07 0.08 0.09 0.08 0.06 0.05 0.06 0.07 0.09 0.10 0.11 0.11 0.10 0.09 0.08 0.08 0.09 0.10 0.12 0.12 0.12 0.15 0.18 0.20 0.24 0.34 0.43 0.46 0.45 0.47 0.46 0.47 0.49 0.49 0.48 0.48 0.53 0.60
0.12 0.10 0.09 0.08 0.07 0.08 0.09 0.10 0.10 0.10 0.08 0.06 0.08 0.09 0.10 0.10 0.10 0.10 0.09 0.09 0.08 0.08 0.09 0.11 0.13 0.14 0.15 0.18 0.22 0.24 0.27 0.33 0.42 0.47 0.48 0.49 0.53 0.53 0.53 0.55 0.56 0.53 0.52 0.56
0.13 0.14 0.13 0.12 0.11 0.11 0.10 0.09 0.10 0.10 0.09 0.09 0.09 0.11 0.12 0.12 0.12 0.11 0.10 0.10 0.09 0.09 0.10 0.11 0.14 0.16 0.17 0.20 0.25 0.27 0.32 0.37 0.44 0.50 0.52 0.53 0.58 0.59 0.58 0.58 0.57 0.57 0.53 0.55
0.11 0.12 0.12 0.12 0.13 0.14 0.13 0.10 0.10 0.11 0.11 0.11 0.12 0.13 0.14 0.15 0.14 0.14 0.12 0.10 0.10 0.11 0.12 0.13 0.17 0.17 0.18 0.23 0.31 0.35 0.40 0.45 0.50 0.50 0.50 0.58 0.61 0.57 0.59 0.60 0.61 0.60 0.58 0.59
0.12 0.11 0.12 0.13 0.14 0.15 0.14 0.12 0.11 0.12 0.13 0.14 0.14 0.16 0.17 0.17 0.17 0.17 0.16 0.15 0.14 0.15 0.13 0.15 0.17 0.17 0.21 0.28 0.40 0.45 0.48 0.50 0.54 0.55 0.54 0.58 0.62 0.63 0.63 0.65 0.66 0.65 0.63 0.63
0.14 0.14 0.15 0.15 0.14 0.14 0.15 0.15 0.15 0.15 0.15 0.15 0.17 0.20 0.20 0.21 0.20 0.19 0.19 0.18 0.18 0.18 0.17 0.17 0.18 0.24 0.32 0.42 0.47 0.46 0.48 0.54 0.59 0.63 0.63 0.64 0.67 0.68 0.68 0.69 0.70 0.72 0.72 0.71
0.17 0.17 0.18 0.18 0.16 0.15 0.15 0.15 0.16 0.16 0.17 0.17 0.19 0.21 0.22 0.23 0.22 0.21 0.20 0.20 0.20 0.24 0.23 0.20 0.24 0.36 0.43 0.49 0.45 0.46 0.49 0.55 0.62 0.66 0.69 0.69 0.73 0.76 0.74 0.74 0.78 0.78 0.78 0.77
0.20 0.21 0.20 0.20 0.18 0.17 0.15 0.14 0.15 0.17 0.19 0.20 0.22 0.23 0.24 0.25 0.25 0.25 0.25 0.23 0.23 0.28 0.28 0.27 0.34 0.42 0.47 0.46 0.43 0.45 0.51 0.57 0.64 0.71 0.75 0.76 0.78 0.81 0.83 0.83 0.83 0.83 0.83 0.81
0.22 0.21 0.21 0.20 0.19 0.18 0.17 0.17 0.17 0.18 0.18 0.19 0.21 0.22 0.24 0.25 0.24 0.23 0.26 0.28 0.29 0.32 0.31 0.35 0.41 0.45 0.47 0.46 0.47 0.51 0.59 0.67 0.74 0.80 0.83 0.84 0.83 0.85 0.88 0.91 0.91 0.87 0.84 0.83
0.26 0.25 0.23 0.22 0.22 0.22 0.21 0.20 0.18 0.18 0.18 0.18 0.19 0.21 0.24 0.27 0.29 0.29 0.29 0.32 0.35 0.37 0.37 0.40 0.43 0.46 0.46 0.49 0.55 0.63 0.70 0.78 0.89 0.96 0.96 0.93 0.90 0.90 0.91 0.94 0.95 0.92 0.89 0.86
0.30 0.30 0.28 0.27 0.27 0.27 0.25 0.24 0.23 0.21 0.22 0.22 0.23 0.24 0.26 0.30 0.32 0.33 0.34 0.37 0.39 0.41 0.41 0.44 0.47 0.50 0.54 0.59 0.65 0.70 0.74 0.78 0.84 0.91 0.92 0.93 0.92 0.92 0.94 0.96 0.95 0.93 0.91 0.87
0.31 0.30 0.28 0.27 0.28 0.29 0.29 0.30 0.30 0.30 0.30 0.31 0.32 0.32 0.32 0.34 0.36 0.36 0.37 0.40 0.43 0.45 0.46 0.49 0.52 0.55 0.61 0.68 0.72 0.75 0.78 0.80 0.85 0.93 0.97 0.96 0.95 0.96 0.97 0.97 0.97 0.95 0.92 0.89

GEFSNGP_prec_meanprecacc_252.txt.gz
Total_Precipitation_Accumulation
0.46 0.36 0.43 0.48 0.43 0.46 0.62 0.62 0.50 0.26 0.18 0.18 0.17 0.17 0.14 0.12 0.10 0.08 0.10 0.10 0.10 0.12 0.14 0.20 0.28 0.36 0.48 0.52 0.45 0.44 0.49 0.58 0.69 0.75 0.77 0.80 0.89 1.00 1.05 1.11 1.15 1.15 1.17 1.16
0.44 0.30 0.33 0.36 0.30 0.33 0.39 0.36 0.32 0.21 0.22 0.18 0.15 0.14 0.14 0.14 0.13 0.11 0.11 0.11 0.11 0.12 0.12 0.16 0.28 0.39 0.49 0.56 0.56 0.55 0.63 0.69 0.76 0.82 0.82 0.82 0.88 1.01 1.10 1.13 1.20 1.22 1.19 1.16
0.62 0.36 0.53 0.54 0.32 0.30 0.32 0.30 0.29 0.29 0.24 0.17 0.16 0.16 0.18 0.19 0.18 0.17 0.14 0.13 0.13 0.14 0.13 0.17 0.33 0.46 0.49 0.56 0.62 0.66 0.72 0.74 0.72 0.78 0.83 0.81 0.80 0.91 1.03 1.05 1.02 1.04 1.05 1.05
0.85 0.65 0.96 0.50 0.25 0.23 0.24 0.28 0.31 0.31 0.25 0.20 0.18 0.19 0.21 0.23 0.23 0.21 0.18 0.18 0.18 0.17 0.16 0.19 0.29 0.35 0.37 0.47 0.56 0.62 0.66 0.73 0.75 0.74 0.79 0.83 0.80 0.76 0.78 0.85 0.92 0.89 0.83 0.81
1.12 0.85 0.51 0.23 0.21 0.26 0.28 0.34 0.36 0.33 0.28 0.23 0.18 0.16 0.20 0.23 0.22 0.21 0.20 0.20 0.20 0.19 0.19 0.21 0.25 0.29 0.31 0.38 0.45 0.52 0.57 0.60 0.65 0.66 0.69 0.72 0.77 0.72 0.66 0.68 0.74 0.78 0.76 0.71
1.25 0.93 0.47 0.29 0.20 0.20 0.24 0.39 0.35 0.30 0.29 0.28 0.27 0.40 0.36 0.27 0.21 0.19 0.17 0.16 0.16 0.16 0.16 0.19 0.22 0.26 0.30 0.35 0.36 0.41 0.44 0.45 0.45 0.47 0.52 0.52 0.54 0.56 0.55 0.58 0.60 0.62 0.67 0.68
1.07 0.83 0.36 0.19 0.14 0.17 0.41 0.54 0.36 0.31 0.30 0.31 0.40 0.49 0.38 0.28 0.23 0.20 0.16 0.14 0.12 0.12 0.15 0.19 0.23 0.25 0.27 0.32 0.32 0.35 0.36 0.32 0.32 0.34 0.37 0.39 0.42 0.45 0.46 0.47 0.52 0.57 0.59 0.63
0.82 0.93 0.48 0.20 0.20 0.38 0.54 0.35 0.30 0.30 0.28 0.30 0.29 0.25 0.23 0.22 0.20 0.18 0.16 0.15 0.14 0.14 0.16 0.19 0.22 0.23 0.25 0.28 0.29 0.31 0.33 0.30 0.27 0.29 0.33 0.36 0.38 0.41 0.43 0.46 0.51 0.53 0.57 0.63
0.62 0.54 0.34 0.27 0.32 0.33 0.29 0.27 0.25 0.27 0.26 0.28 0.26 0.22 0.21 0.19 0.17 0.16 0.15 0.16 0.16 0.16 0.17 0.17 0.17 0.18 0.21 0.22 0.24 0.25 0.29 0.29 0.27 0.28 0.31 0.37 0.42 0.43 0.45 0.47 0.53 0.57 0.59 0.62
0.37 0.29 0.26 0.25 0.23 0.22 0.20 0.20 0.20 0.21 0.25 0.25 0.24 0.20 0.17 0.14 0.13 0.13 0.13 0.14 0.16 0.16 0.15 0.15 0.15 0.15 0.16 0.16 0.19 0.23 0.28 0.29 0.29 0.29 0.32 0.36 0.41 0.45 0.49 0.55 0.63 0.68 0.67 0.66
0.26 0.18 0.17 0.19 0.18 0.17 0.15 0.12 0.12 0.12 0.13 0.17 0.17 0.16 0.15 0.14 0.13 0.13 0.14 0.15 0.14 0.14 0.14 0.14 0.14 0.16 0.16 0.15 0.18 0.22 0.25 0.27 0.31 0.31 0.33 0.36 0.38 0.42 0.48 0.53 0.70 0.88 0.80 0.78
0.22 0.14 0.14 0.14 0.12 0.11 0.12 0.11 0.12 0.13 0.11 0.10 0.11 0.13 0.13 0.14 0.15 0.15 0.16 0.16 0.14 0.13 0.11 0.11 0.12 0.14 0.15 0.14 0.16 0.20 0.24 0.25 0.29 0.33 0.35 0.36 0.38 0.41 0.44 0.47 0.53 0.57 0.62 0.74
0.13 0.10 0.09 0.09 0.07 0.08 0.10 0.11 0.12 0.12 0.11 0.10 0.10 0.11 0.12 0.13 0.13 0.13 0.14 0.14 0.14 0.12 0.10 0.10 0.11 0.13 0.15 0.15 0.16 0.20 0.25 0.28 0.31 0.32 0.35 0.39 0.42 0.47 0.46 0.44 0.45 0.46 0.50 0.58
0.08 0.09 0.11 0.09 0.08 0.08 0.09 0.10 0.10 0.10 0.09 0.08 0.08 0.09 0.10 0.10 0.11 0.11 0.12 0.12 0.10 0.09 0.08 0.09 0.10 0.11 0.14 0.15 0.16 0.19 0.24 0.31 0.35 0.34 0.35 0.39 0.42 0.46 0.50 0.51 0.51 0.46 0.46 0.54
0.08 0.09 0.10 0.09 0.08 0.08 0.07 0.08 0.09 0.08 0.07 0.05 0.05 0.07 0.09 0.10 0.11 0.12 0.12 0.10 0.08 0.08 0.08 0.09 0.10 0.11 0.12 0.14 0.16 0.19 0.24 0.31 0.38 0.40 0.40 0.42 0.43 0.45 0.48 0.48 0.49 0.47 0.48 0.57
0.10 0.09 0.08 0.08 0.08 0.08 0.08 0.09 0.10 0.09 0.07 0.05 0.06 0.07 0.09 0.10 0.11 0.12 0.10 0.09 0.08 0.08 0.09 0.10 0.12 0.13 0.13 0.16 0.19 0.21 0.24 0.34 0.44 0.47 0.46 0.47 0.47 0.48 0.50 0.50 0.49 0.49 0.54 0.61
0.13 0.11 0.09 0.08 0.07 0.08 0.09 0.10 0.10 0.10 0.08 0.07 0.08 0.09 0.10 0.11 0.11 0.11 0.10 0.09 0.09 0.09 0.09 0.11 0.14 0.15 0.15 0.18 0.22 0.24 0.28 0.33 0.43 0.48 0.48 0.50 0.54 0.54 0.54 0.56 0.57 0.54 0.53 0.57
0.14 0.14 0.13 0.12 0.11 0.11 0.10 0.09 0.10 0.10 0.09 0.09 0.09 0.11 0.12 0.13 0.12 0.12 0.11 0.10 0.10 0.10 0.10 0.12 0.15 0.17 0.18 0.21 0.26 0.27 0.32 0.37 0.44 0.51 0.52 0.54 0.59 0.60 0.59 0.59 0.58 0.58 0.54 0.56
0.11 0.12 0.12 0.12 0.14 0.15 0.13 0.10 0.10 0.11 0.11 0.11 0.12 0.14 0.14 0.15 0.15 0.14 0.12 0.11 0.11 0.11 0.13 0.14 0.18 0.18 0.19 0.23 0.32 0.35 0.41 0.46 0.50 0.50 0.51 0.58 0.61 0.59 0.60 0.61 0.62 0.61 0.59 0.60
0.12 0.12 0.12 0.14 0.15 0.16 0.15 0.13 0.12 0.12 0.13 0.14 0.15 0.16 0.17 0.18 0.18 0.18 0.16 0.16 0.15 0.16 0.15 0.17 0.18 0.18 0.22 0.29 0.40 0.46 0.48 0.51 0.55 0.55 0.55 0.59 0.63 0.64 0.64 0.66 0.67 0.66 0.64 0.64
0.14 0.14 0.15 0.15 0.15 0.14 0.15 0.15 0.15 0.16 0.15 0.16 0.18 0.20 0.21 0.21 0.21 0.20 0.19 0.19 0.20 0.20 0.19 0.19 0.19 0.26 0.34 0.43 0.48 0.47 0.49 0.54 0.60 0.63 0.64 0.65 0.68 0.68 0.69 0.70 0.72 0.73 0.73 0.72
0.17 0.17 0.18 0.18 0.16 0.15 0.15 0.15 0.16 0.17 0.18 0.18 0.20 0.22 0.23 0.23 0.23 0.22 0.21 0.21 0.22 0.26 0.25 0.22 0.25 0.37 0.45 0.50 0.47 0.47 0.50 0.56 0.63 0.67 0.70 0.69 0.74 0.77 0.75 0.75 0.80 0.79 0.79 0.78
0.21 0.21 0.21 0.20 0.18 0.17 0.15 0.15 0.16 0.18 0.20 0.21 0.22 0.24 0.24 0.25 0.25 0.26 0.26 0.24 0.24 0.29 0.29 0.28 0.35 0.43 0.49 0.47 0.44 0.46 0.52 0.58 0.65 0.72 0.75 0.76 0.79 0.82 0.84 0.84 0.85 0.85 0.84 0.83
0.23 0.22 0.21 0.21 0.20 0.18 0.17 0.18 0.17 0.18 0.19 0.20 0.21 0.23 0.25 0.26 0.24 0.24 0.27 0.29 0.30 0.33 0.32 0.36 0.42 0.46 0.48 0.46 0.47 0.52 0.60 0.68 0.75 0.81 0.84 0.85 0.84 0.85 0.89 0.92 0.92 0.88 0.86 0.85
0.27 0.26 0.23 0.22 0.23 0.22 0.22 0.21 0.19 0.18 0.19 0.19 0.20 0.22 0.25 0.27 0.30 0.29 0.30 0.33 0.35 0.37 0.38 0.40 0.44 0.47 0.47 0.49 0.56 0.63 0.71 0.79 0.90 0.97 0.96 0.94 0.90 0.90 0.92 0.95 0.96 0.93 0.90 0.87
0.31 0.30 0.29 0.28 0.28 0.28 0.26 0.25 0.23 0.22 0.22 0.23 0.23 0.25 0.27 0.30 0.33 0.33 0.34 0.37 0.39 0.41 0.42 0.44 0.47 0.50 0.54 0.60 0.65 0.70 0.75 0.78 0.85 0.91 0.93 0.93 0.92 0.93 0.94 0.97 0.96 0.94 0.91 0.88
0.32 0.31 0.29 0.28 0.29 0.30 0.30 0.30 0.31 0.31 0.31 0.32 0.33 0.32 0.33 0.35 0.36 0.37 0.37 0.40 0.44 0.45 0.46 0.49 0.52 0.56 0.61 0.68 0.72 0.75 0.78 0.80 0.85 0.93 0.97 0.97 0.95 0.97 0.98 0.98 0.98 0.95 0.92 0.89

GEFSNGP_prec_meanprecacc_258.txt.gz
Total_Precipitation_Accumulation
0.48 0.37 0.44 0.49 0.44 0.47 0.63 0.65 0.54 0.29 0.22 0.21 0.19 0.18 0.16 0.14 0.11 0.09 0.10 0.11 0.11 0.12 0.14 0.20 0.29 0.37 0.49 0.52 0.46 0.44 0.49 0.59 0.70 0.76 0.78 0.81 0.91 1.02 1.08 1.14 1.18 1.17 1.19 1.17
0.45 0.31 0.33 0.36 0.31 0.33 0.39 0.37 0.33 0.23 0.25 0.22 0.17 0.15 0.15 0.15 0.13 0.12 0.11 0.11 0.12 0.13 0.13 0.17 0.28 0.40 0.50 0.57 0.57 0.56 0.64 0.69 0.77 0.83 0.83 0.84 0.89 1.02 1.11 1.15 1.22 1.24 1.21 1.18
0.64 0.37 0.54 0.55 0.33 0.31 0.33 0.31 0.30 0.30 0.26 0.20 0.18 0.18 0.20 0.19 0.19 0.18 0.15 0.13 0.14 0.15 0.15 0.19 0.34 0.46 0.50 0.57 0.63 0.67 0.73 0.75 0.73 0.79 0.84 0.82 0.81 0.92 1.04 1.06 1.03 1.05 1.07 1.06
0.87 0.67 0.98 0.52 0.26 0.24 0.25 0.29 0.32 0.32 0.26 0.21 0.20 0.20 0.22 0.24 0.24 0.22 0.19 0.19 0.20 0.19 0.18 0.21 0.30 0.37 0.38 0.48 0.58 0.64 0.67 0.74 0.76 0.75 0.80 0.84 0.81 0.78 0.80 0.87 0.94 0.91 0.85 0.83
1.15 0.87 0.53 0.24 0.21 0.27 0.29 0.35 0.37 0.33 0.28 0.23 0.19 0.17 0.22 0.23 0.23 0.23 0.21 0.22 0.22 0.21 0.22 0.23 0.27 0.31 0.33 0.39 0.47 0.54 0.59 0.63 0.67 0.67 0.70 0.74 0.78 0.73 0.68 0.70 0.76 0.80 0.78 0.73
1.27 0.95 0.48 0.30 0.20 0.21 0.25 0.40 0.36 0.30 0.30 0.28 0.27 0.41 0.37 0.28 0.22 0.20 0.18 0.18 0.18 0.18 0.19 0.21 0.25 0.28 0.32 0.37 0.38 0.44 0.47 0.48 0.47 0.49 0.54 0.54 0.55 0.57 0.56 0.60 0.63 0.64 0.69 0.70
1.08 0.84 0.37 0.20 0.14 0.18 0.42 0.55 0.37 0.32 0.30 0.32 0.40 0.50 0.39 0.29 0.24 0.21 0.18 0.15 0.14 0.15 0.18 0.22 0.26 0.28 0.30 0.34 0.34 0.38 0.38 0.35 0.34 0.37 0.40 0.41 0.44 0.46 0.47 0.50 0.55 0.59 0.61 0.65
0.83 0.95 0.49 0.20 0.20 0.38 0.54 0.35 0.31 0.31 0.29 0.31 0.30 0.26 0.24 0.23 0.21 0.19 0.18 0.17 0.16 0.16 0.19 0.23 0.26 0.26 0.28 0.31 0.32 0.34 0.36 0.32 0.30 0.32 0.36 0.39 0.41 0.44 0.45 0.49 0.55 0.56 0.59 0.65
0.63 0.56 0.35 0.28 0.33 0.34 0.29 0.27 0.26 0.28 0.27 0.29 0.27 0.23 0.22 0.20 0.19 0.18 0.17 0.18 0.18 0.19 0.19 0.20 0.21 0.22 0.25 0.26 0.27 0.28 0.32 0.32 0.31 0.32 0.36 0.41 0.46 0.47 0.48 0.50 0.56 0.60 0.61 0.64
0.38 0.30 0.27 0.26 0.24 0.23 0.20 0.21 0.21 0.22 0.26 0.27 0.25 0.21 0.18 0.16 0.15 0.15 0.15 0.16 0.19 0.18 0.17 0.19 0.19 0.19 0.20 0.21 0.23 0.27 0.31 0.32 0.31 0.33 0.36 0.40 0.45 0.48 0.52 0.58 0.66 0.71 0.70 0.68
0.27 0.19 0.18 0.20 0.20 0.18 0.16 0.13 0.13 0.13 0.15 0.18 0.18 0.18 0.17 0.15 0.15 0.16 0.17 0.17 0.17 0.17 0.17 0.17 0.18 0.19 0.19 0.18 0.21 0.26 0.28 0.30 0.33 0.34 0.36 0.39 0.41 0.44 0.50 0.55 0.73 0.92 0.84 0.80
0.24 0.16 0.15 0.16 0.14 0.13 0.13 0.12 0.13 0.14 0.12 0.11 0.12 0.14 0.15 0.16 0.17 0.17 0.18 0.17 0.16 0.15 0.14 0.14 0.15 0.17 0.19 0.18 0.19 0.24 0.27 0.28 0.33 0.36 0.38 0.38 0.40 0.44 0.46 0.49 0.56 0.60 0.65 0.76
0.14 0.10 0.10 0.10 0.08 0.08 0.10 0.12 0.13 0.13 0.12 0.11 0.11 0.12 0.13 0.14 0.14 0.14 0.14 0.15 0.15 0.13 0.12 0.12 0.13 0.16 0.20 0.20 0.20 0.23 0.28 0.32 0.34 0.35 0.38 0.41 0.43 0.49 0.48 0.46 0.47 0.48 0.52 0.59
0.09 0.10 0.11 0.09 0.09 0.08 0.10 0.10 0.10 0.10 0.10 0.09 0.09 0.10 0.11 0.11 0.11 0.12 0.13 0.13 0.11 0.10 0.09 0.10 0.11 0.13 0.17 0.20 0.21 0.23 0.28 0.34 0.37 0.36 0.38 0.40 0.43 0.47 0.51 0.53 0.53 0.48 0.48 0.55
0.09 0.10 0.10 0.09 0.09 0.09 0.08 0.08 0.09 0.09 0.07 0.06 0.06 0.07 0.09 0.10 0.12 0.12 0.12 0.11 0.09 0.08 0.08 0.09 0.11 0.12 0.14 0.17 0.20 0.23 0.28 0.34 0.41 0.43 0.42 0.44 0.44 0.47 0.49 0.49 0.50 0.49 0.50 0.58
0.11 0.10 0.09 0.09 0.09 0.08 0.08 0.09 0.10 0.09 0.07 0.06 0.06 0.08 0.10 0.10 0.11 0.12 0.10 0.09 0.09 0.08 0.09 0.10 0.13 0.13 0.14 0.16 0.20 0.23 0.27 0.37 0.47 0.50 0.49 0.50 0.49 0.50 0.52 0.52 0.50 0.50 0.55 0.62
0.13 0.11 0.10 0.09 0.08 0.08 0.09 0.10 0.11 0.10 0.08 0.07 0.08 0.09 0.10 0.11 0.11 0.11 0.10 0.09 0.09 0.09 0.09 0.11 0.14 0.15 0.16 0.19 0.23 0.25 0.29 0.35 0.45 0.49 0.50 0.52 0.57 0.57 0.57 0.59 0.59 0.57 0.54 0.59
0.14 0.14 0.13 0.12 0.12 0.11 0.11 0.10 0.10 0.11 0.09 0.09 0.10 0.11 0.12 0.13 0.13 0.12 0.11 0.10 0.10 0.10 0.11 0.12 0.15 0.17 0.18 0.21 0.26 0.28 0.33 0.38 0.45 0.52 0.53 0.55 0.61 0.62 0.61 0.61 0.60 0.60 0.56 0.58
0.12 0.13 0.13 0.13 0.14 0.15 0.13 0.10 0.10 0.11 0.11 0.12 0.13 0.14 0.15 0.16 0.15 0.14 0.13 0.11 0.11 0.12 0.13 0.14 0.19 0.18 0.19 0.24 0.33 0.35 0.41 0.46 0.50 0.51 0.51 0.59 0.62 0.59 0.61 0.62 0.63 0.62 0.60 0.61
0.13 0.12 0.13 0.14 0.15 0.16 0.15 0.13 0.12 0.12 0.13 0.14 0.15 0.16 0.18 0.18 0.18 0.18 0.17 0.16 0.16 0.17 0.15 0.17 0.18 0.19 0.22 0.29 0.41 0.46 0.48 0.51 0.55 0.56 0.55 0.59 0.64 0.65 0.65 0.66 0.68 0.67 0.65 0.65
0.15 0.15 0.15 0.16 0.15 0.15 0.15 0.16 0.15 0.16 0.16 0.16 0.18 0.21 0.21 0.22 0.21 0.20 0.20 0.20 0.20 0.20 0.19 0.19 0.19 0.26 0.34 0.44 0.49 0.48 0.50 0.55 0.61 0.64 0.65 0.66 0.68 0.69 0.69 0.70 0.72 0.74 0.74 0.73
0.18 0.18 0.18 0.18 0.16 0.15 0.15 0.16 0.16 0.17 0.18 0.19 0.20 0.22 0.23 0.24 0.23 0.22 0.22 0.21 0.23 0.26 0.25 0.22 0.25 0.37 0.45 0.51 0.47 0.48 0.51 0.57 0.64 0.68 0.71 0.70 0.75 0.78 0.76 0.76 0.80 0.80 0.80 0.79
0.21 0.21 0.21 0.20 0.19 0.17 0.16 0.15 0.16 0.18 0.20 0.21 0.23 0.24 0.25 0.26 0.26 0.26 0.27 0.24 0.25 0.30 0.29 0.29 0.36 0.44 0.49 0.48 0.45 0.47 0.53 0.59 0.66 0.73 0.76 0.77 0.79 0.83 0.85 0.85 0.85 0.85 0.85 0.83
0.23 0.22 0.22 0.21 0.20 0.19 0.18 0.18 0.18 0.19 0.20 0.20 0.22 0.24 0.25 0.26 0.25 0.25 0.27 0.29 0.31 0.33 0.33 0.37 0.43 0.47 0.49 0.47 0.48 0.53 0.61 0.69 0.76 0.82 0.85 0.86 0.85 0.86 0.90 0.92 0.93 0.89 0.86 0.85
0.27 0.26 0.24 0.23 0.23 0.23 0.22 0.21 0.20 0.19 0.19 0.20 0.21 0.23 0.25 0.28 0.30 0.30 0.30 0.33 0.36 0.37 0.38 0.41 0.45 0.48 0.48 0.50 0.57 0.64 0.71 0.80 0.91 0.98 0.97 0.95 0.91 0.91 0.93 0.95 0.96 0.94 0.91 0.87
0.31 0.31 0.29 0.28 0.28 0.28 0.27 0.25 0.24 0.23 0.23 0.24 0.24 0.25 0.27 0.31 0.33 0.33 0.34 0.37 0.40 0.41 0.42 0.45 0.48 0.51 0.55 0.61 0.66 0.71 0.75 0.79 0.85 0.92 0.93 0.94 0.93 0.93 0.95 0.97 0.96 0.95 0.92 0.89
0.33 0.31 0.30 0.28 0.30 0.30 0.30 0.31 0.32 0.31 0.31 0.33 0.34 0.33 0.34 0.36 0.37 0.38 0.38 0.41 0.44 0.46 0.47 0.50 0.53 0.57 0.62 0.69 0.73 0.76 0.79 0.81 0.85 0.94 0.97 0.97 0.96 0.97 0.98 0.99 0.98 0.96 0.93 0.90

GEFSNGP_prec_meanprecacc_264.txt.gz
Total_Precipitation_Accumulation
0.48 0.38 0.44 0.50 0.45 0.47 0.64 0.66 0.56 0.30 0.23 0.22 0.20 0.19 0.17 0.15 0.13 0.10 0.11 0.12 0.12 0.13 0.15 0.21 0.30 0.39 0.51 0.54 0.48 0.46 0.51 0.60 0.72 0.78 0.80 0.83 0.92 1.03 1.10 1.17 1.22 1.22 1.25 1.23
0.46 0.31 0.34 0.37 0.32 0.34 0.40 0.37 0.34 0.24 0.26 0.23 0.18 0.16 0.16 0.15 0.15 0.14 0.14 0.13 0.14 0.14 0.14 0.19 0.30 0.42 0.52 0.58 0.59 0.58 0.66 0.72 0.78 0.84 0.84 0.85 0.90 1.04 1.12 1.17 1.24 1.27 1.25 1.22
0.65 0.38 0.55 0.56 0.34 0.32 0.33 0.31 0.30 0.30 0.26 0.21 0.19 0.19 0.21 0.20 0.20 0.20 0.17 0.16 0.17 0.17 0.17 0.20 0.35 0.48 0.51 0.59 0.65 0.69 0.75 0.78 0.76 0.80 0.85 0.83 0.82 0.93 1.06 1.08 1.05 1.07 1.09 1.09
0.90 0.69 1.00 0.52 0.26 0.24 0.26 0.29 0.32 0.32 0.26 0.21 0.20 0.21 0.23 0.25 0.25 0.23 0.20 0.21 0.21 0.20 0.20 0.22 0.32 0.38 0.40 0.50 0.59 0.66 0.70 0.76 0.78 0.77 0.81 0.85 0.82 0.79 0.81 0.88 0.95 0.92 0.87 0.85
1.18 0.89 0.54 0.24 0.21 0.27 0.30 0.36 0.37 0.33 0.28 0.23 0.19 0.17 0.22 0.24 0.24 0.24 0.22 0.23 0.23 0.22 0.23 0.25 0.28 0.32 0.34 0.40 0.49 0.56 0.61 0.65 0.69 0.69 0.72 0.75 0.79 0.74 0.69 0.71 0.77 0.81 0.79 0.74
1.30 0.96 0.49 0.31 0.20 0.21 0.26 0.41 0.36 0.31 0.30 0.28 0.28 0.41 0.38 0.29 0.23 0.21 0.19 0.19 0.20 0.19 0.20 0.23 0.27 0.29 0.33 0.38 0.40 0.46 0.50 0.50 0.49 0.51 0.56 0.56 0.57 0.59 0.58 0.62 0.65 0.66 0.71 0.72
1.10 0.86 0.38 0.20 0.15 0.18 0.43 0.56 0.37 0.33 0.31 0.32 0.41 0.50 0.40 0.29 0.25 0.21 0.18 0.16 0.15 0.16 0.19 0.24 0.28 0.30 0.31 0.36 0.36 0.40 0.40 0.37 0.36 0.39 0.42 0.43 0.46 0.48 0.49 0.52 0.57 0.62 0.64 0.68
0.84 0.96 0.49 0.21 0.21 0.39 0.55 0.36 0.32 0.32 0.29 0.31 0.30 0.26 0.25 0.24 0.22 0.20 0.18 0.17 0.17 0.17 0.20 0.24 0.27 0.29 0.29 0.33 0.34 0.35 0.38 0.35 0.33 0.34 0.38 0.41 0.43 0.45 0.47 0.51 0.57 0.58 0.62 0.68
0.64 0.56 0.35 0.28 0.33 0.35 0.30 0.28 0.27 0.29 0.29 0.30 0.28 0.24 0.23 0.21 0.19 0.18 0.17 0.19 0.19 0.20 0.21 0.21 0.23 0.24 0.27 0.28 0.29 0.30 0.34 0.35 0.34 0.35 0.38 0.43 0.48 0.49 0.50 0.52 0.58 0.63 0.64 0.67
0.39 0.30 0.28 0.26 0.25 0.24 0.21 0.22 0.22 0.23 0.27 0.28 0.26 0.22 0.19 0.17 0.16 0.16 0.15 0.17 0.20 0.20 0.19 0.20 0.21 0.22 0.23 0.23 0.25 0.29 0.33 0.34 0.35 0.36 0.39 0.43 0.47 0.51 0.55 0.61 0.69 0.73 0.72 0.71
0.27 0.19 0.19 0.20 0.20 0.19 0.17 0.14 0.14 0.14 0.16 0.19 0.19 0.19 0.17 0.16 0.16 0.17 0.18 0.18 0.18 0.19 0.19 0.19 0.20 0.22 0.21 0.21 0.24 0.28 0.30 0.32 0.36 0.38 0.39 0.42 0.44 0.47 0.53 0.58 0.76 0.95 0.86 0.83
0.24 0.16 0.16 0.16 0.15 0.14 0.13 0.12 0.14 0.14 0.13 0.12 0.13 0.16 0.16 0.17 0.18 0.18 0.19 0.18 0.17 0.16 0.16 0.16 0.17 0.19 0.21 0.20 0.21 0.25 0.29 0.30 0.35 0.39 0.41 0.41 0.43 0.47 0.49 0.52 0.59 0.63 0.67 0.78
0.14 0.11 0.10 0.10 0.09 0.09 0.11 0.12 0.13 0.13 0.13 0.12 0.12 0.13 0.14 0.15 0.15 0.15 0.16 0.16 0.16 0.15 0.14 0.14 0.15 0.18 0.22 0.22 0.21 0.24 0.29 0.33 0.35 0.36 0.40 0.43 0.46 0.51 0.51 0.49 0.50 0.51 0.54 0.62
0.09 0.10 0.12 0.10 0.09 0.09 0.10 0.10 0.11 0.11 0.10 0.10 0.10 0.11 0.12 0.12 0.13 0.13 0.14 0.14 0.13 0.12 0.11 0.12 0.13 0.15 0.19 0.21 0.22 0.24 0.28 0.34 0.38 0.38 0.40 0.43 0.47 0.50 0.54 0.57 0.57 0.52 0.52 0.58
0.09 0.10 0.11 0.09 0.09 0.09 0.08 0.09 0.10 0.09 0.08 0.07 0.07 0.09 0.11 0.12 0.13 0.14 0.13 0.12 0.10 0.09 0.09 0.10 0.12 0.13 0.15 0.18 0.21 0.24 0.29 0.35 0.42 0.44 0.44 0.45 0.46 0.49 0.52 0.52 0.53 0.52 0.54 0.62
0.11 0.10 0.10 0.09 0.09 0.09 0.09 0.10 0.11 0.10 0.08 0.07 0.07 0.09 0.11 0.12 0.13 0.13 0.11 0.10 0.10 0.09 0.09 0.11 0.13 0.14 0.14 0.18 0.21 0.24 0.28 0.39 0.48 0.51 0.50 0.51 0.51 0.52 0.54 0.54 0.52 0.52 0.58 0.65
0.14 0.12 0.10 0.09 0.08 0.09 0.10 0.11 0.12 0.11 0.09 0.08 0.09 0.10 0.12 0.12 0.12 0.12 0.11 0.10 0.10 0.09 0.10 0.11 0.14 0.15 0.16 0.19 0.24 0.26 0.31 0.37 0.46 0.51 0.52 0.53 0.58 0.59 0.59 0.61 0.61 0.59 0.57 0.61
0.15 0.15 0.14 0.13 0.13 0.12 0.12 0.11 0.11 0.12 0.10 0.10 0.10 0.12 0.13 0.14 0.14 0.13 0.12 0.11 0.11 0.10 0.11 0.12 0.15 0.18 0.18 0.22 0.26 0.29 0.34 0.40 0.46 0.53 0.55 0.57 0.64 0.65 0.64 0.63 0.62 0.62 0.58 0.60
0.13 0.14 0.14 0.14 0.15 0.16 0.14 0.11 0.11 0.12 0.12 0.12 0.13 0.15 0.15 0.16 0.16 0.15 0.13 0.12 0.12 0.12 0.14 0.15 0.19 0.18 0.20 0.24 0.33 0.36 0.42 0.47 0.51 0.52 0.53 0.61 0.65 0.62 0.63 0.64 0.65 0.64 0.62 0.63
0.14 0.14 0.14 0.15 0.16 0.17 0.15 0.13 0.12 0.13 0.14 0.15 0.15 0.17 0.18 0.19 0.19 0.18 0.17 0.16 0.16 0.17 0.16 0.18 0.19 0.19 0.23 0.29 0.41 0.46 0.49 0.52 0.56 0.57 0.56 0.61 0.66 0.67 0.67 0.68 0.69 0.68 0.66 0.66
0.16 0.16 0.16 0.17 0.16 0.15 0.16 0.16 0.16 0.16 0.16 0.16 0.19 0.21 0.22 0.22 0.21 0.20 0.20 0.20 0.20 0.20 0.19 0.20 0.20 0.26 0.34 0.44 0.49 0.48 0.50 0.56 0.61 0.65 0.65 0.66 0.69 0.70 0.70 0.72 0.73 0.75 0.75 0.74
0.18 0.18 0.19 0.19 0.17 0.16 0.16 0.16 0.16 0.17 0.18 0.19 0.20 0.22 0.23 0.24 0.23 0.22 0.22 0.22 0.23 0.26 0.25 0.23 0.26 0.38 0.46 0.51 0.48 0.49 0.52 0.58 0.64 0.68 0.71 0.71 0.75 0.78 0.77 0.77 0.81 0.81 0.81 0.80
0.22 0.22 0.22 0.21 0.20 0.18 0.16 0.16 0.17 0.18 0.20 0.21 0.23 0.24 0.25 0.26 0.26 0.26 0.27 0.25 0.25 0.30 0.30 0.29 0.36 0.44 0.50 0.49 0.45 0.48 0.53 0.59 0.66 0.73 0.77 0.78 0.80 0.84 0.86 0.85 0.86 0.86 0.86 0.84
0.24 0.23 0.23 0.22 0.21 0.20 0.19 0.19 0.18 0.19 0.20 0.21 0.22 0.24 0.26 0.26 0.25 0.25 0.28 0.30 0.31 0.34 0.33 0.38 0.43 0.47 0.50 0.48 0.49 0.54 0.61 0.69 0.77 0.83 0.86 0.86 0.86 0.87 0.91 0.93 0.94 0.90 0.88 0.86
0.28 0.27 0.24 0.24 0.24 0.24 0.23 0.22 0.20 0.20 0.20 0.20 0.21 0.23 0.26 0.29 0.31 0.30 0.30 0.33 0.36 0.38 0.39 0.42 0.45 0.48 0.48 0.51 0.57 0.65 0.72 0.80 0.92 0.99 0.98 0.95 0.92 0.92 0.94 0.96 0.97 0.95 0.91 0.88
0.32 0.31 0.30 0.29 0.29 0.29 0.28 0.26 0.25 0.23 0.24 0.24 0.25 0.26 0.28 0.32 0.34 0.34 0.35 0.38 0.40 0.42 0.43 0.46 0.49 0.53 0.56 0.62 0.67 0.72 0.77 0.80 0.86 0.93 0.94 0.95 0.94 0.94 0.95 0.98 0.97 0.95 0.93 0.89
0.33 0.32 0.30 0.29 0.30 0.31 0.31 0.32 0.32 0.32 0.32 0.33 0.35 0.34 0.35 0.37 0.39 0.39 0.40 0.43 0.46 0.47 0.48 0.51 0.55 0.58 0.63 0.70 0.74 0.77 0.80 0.82 0.86 0.95 0.98 0.98 0.97 0.98 0.99 0.99 0.99 0.97 0.94 0.91

GEFSNGP_prec_meanprecacc_270.txt.gz
Total_Precipitation_Accumulation
0.48 0.38 0.44 0.50 0.45 0.48 0.65 0.66 0.56 0.31 0.23 0.22 0.20 0.20 0.17 0.15 0.13 0.11 0.13 0.13 0.13 0.15 0.17 0.23 0.32 0.41 0.53 0.57 0.52 0.51 0.55 0.64 0.75 0.81 0.82 0.85 0.95 1.06 1.13 1.21 1.26 1.26 1.29 1.27
0.46 0.31 0.34 0.37 0.32 0.34 0.40 0.37 0.34 0.24 0.26 0.23 0.19 0.17 0.16 0.16 0.16 0.15 0.15 0.15 0.15 0.16 0.16 0.21 0.32 0.44 0.54 0.61 0.62 0.62 0.71 0.76 0.81 0.87 0.87 0.87 0.93 1.06 1.15 1.20 1.28 1.30 1.27 1.25
0.67 0.39 0.56 0.57 0.34 0.33 0.33 0.31 0.30 0.30 0.27 0.21 0.20 0.20 0.21 0.21 0.20 0.20 0.18 0.17 0.18 0.19 0.19 0.23 0.38 0.50 0.54 0.61 0.67 0.73 0.79 0.80 0.78 0.83 0.88 0.86 0.85 0.96 1.08 1.11 1.08 1.10 1.12 1.11
0.92 0.71 1.02 0.53 0.27 0.25 0.26 0.29 0.32 0.32 0.27 0.22 0.21 0.21 0.23 0.25 0.25 0.24 0.21 0.22 0.22 0.21 0.21 0.24 0.34 0.40 0.42 0.52 0.62 0.69 0.73 0.79 0.81 0.79 0.83 0.87 0.85 0.82 0.84 0.91 0.98 0.94 0.89 0.87
1.21 0.91 0.55 0.25 0.21 0.27 0.31 0.36 0.38 0.34 0.29 0.24 0.20 0.18 0.22 0.24 0.24 0.24 0.23 0.24 0.24 0.23 0.24 0.26 0.30 0.34 0.36 0.43 0.52 0.60 0.65 0.68 0.71 0.71 0.74 0.77 0.82 0.77 0.72 0.73 0.79 0.83 0.81 0.76
1.32 0.98 0.50 0.31 0.21 0.21 0.26 0.42 0.37 0.31 0.30 0.29 0.28 0.42 0.38 0.29 0.23 0.21 0.20 0.20 0.20 0.20 0.21 0.24 0.29 0.31 0.36 0.41 0.43 0.49 0.53 0.53 0.51 0.53 0.58 0.58 0.59 0.62 0.61 0.64 0.67 0.68 0.73 0.74
1.12 0.87 0.38 0.20 0.15 0.19 0.43 0.57 0.38 0.33 0.31 0.32 0.41 0.51 0.40 0.29 0.25 0.22 0.19 0.17 0.16 0.16 0.20 0.25 0.30 0.32 0.34 0.38 0.39 0.43 0.43 0.40 0.39 0.41 0.44 0.45 0.48 0.51 0.52 0.55 0.59 0.63 0.65 0.69
0.85 0.97 0.50 0.21 0.21 0.39 0.55 0.36 0.32 0.32 0.30 0.32 0.31 0.27 0.25 0.24 0.22 0.20 0.19 0.18 0.17 0.18 0.21 0.25 0.29 0.31 0.32 0.35 0.35 0.37 0.40 0.38 0.35 0.37 0.41 0.44 0.45 0.48 0.50 0.53 0.59 0.60 0.63 0.69
0.65 0.57 0.36 0.29 0.34 0.35 0.30 0.28 0.27 0.30 0.29 0.31 0.29 0.25 0.23 0.21 0.20 0.19 0.18 0.19 0.20 0.20 0.22 0.22 0.24 0.26 0.29 0.30 0.30 0.32 0.36 0.37 0.37 0.39 0.42 0.46 0.51 0.52 0.53 0.54 0.60 0.64 0.65 0.68
0.40 0.31 0.28 0.27 0.25 0.24 0.22 0.22 0.23 0.24 0.28 0.29 0.27 0.23 0.20 0.17 0.17 0.16 0.16 0.18 0.21 0.20 0.20 0.22 0.22 0.23 0.25 0.25 0.26 0.30 0.34 0.36 0.37 0.40 0.43 0.46 0.50 0.53 0.57 0.63 0.70 0.75 0.74 0.72
0.28 0.20 0.19 0.21 0.21 0.20 0.17 0.15 0.15 0.15 0.16 0.20 0.20 0.19 0.18 0.18 0.17 0.18 0.18 0.18 0.18 0.19 0.20 0.21 0.21 0.23 0.23 0.22 0.25 0.29 0.31 0.33 0.38 0.41 0.43 0.45 0.46 0.49 0.56 0.60 0.77 0.96 0.88 0.84
0.24 0.16 0.16 0.16 0.15 0.14 0.14 0.13 0.14 0.15 0.14 0.13 0.14 0.17 0.17 0.18 0.20 0.20 0.20 0.19 0.18 0.17 0.17 0.17 0.18 0.21 0.22 0.21 0.22 0.26 0.30 0.31 0.36 0.42 0.44 0.44 0.46 0.50 0.52 0.55 0.61 0.64 0.69 0.80
0.14 0.11 0.10 0.10 0.09 0.09 0.11 0.13 0.14 0.14 0.13 0.13 0.13 0.14 0.15 0.16 0.17 0.17 0.17 0.18 0.17 0.16 0.15 0.16 0.16 0.19 0.23 0.23 0.22 0.25 0.30 0.34 0.37 0.38 0.42 0.45 0.47 0.53 0.53 0.52 0.52 0.52 0.56 0.64
0.09 0.10 0.12 0.10 0.09 0.09 0.10 0.11 0.11 0.11 0.11 0.11 0.11 0.12 0.13 0.13 0.14 0.15 0.16 0.16 0.15 0.14 0.13 0.14 0.15 0.17 0.20 0.23 0.23 0.25 0.29 0.36 0.39 0.39 0.42 0.45 0.48 0.52 0.56 0.59 0.58 0.53 0.53 0.60
0.10 0.11 0.11 0.10 0.09 0.09 0.09 0.09 0.10 0.10 0.08 0.07 0.08 0.09 0.11 0.13 0.14 0.15 0.15 0.14 0.12 0.11 0.12 0.12 0.13 0.15 0.16 0.19 0.22 0.25 0.30 0.36 0.43 0.45 0.45 0.47 0.48 0.50 0.54 0.54 0.54 0.54 0.56 0.65
0.11 0.10 0.10 0.10 0.09 0.09 0.09 0.10 0.11 0.10 0.08 0.07 0.08 0.10 0.12 0.13 0.14 0.14 0.13 0.12 0.11 0.11 0.12 0.13 0.14 0.15 0.15 0.19 0.22 0.25 0.29 0.40 0.49 0.52 0.51 0.52 0.52 0.53 0.56 0.56 0.53 0.54 0.60 0.67
0.14 0.12 0.10 0.10 0.09 0.10 0.10 0.12 0.12 0.12 0.10 0.09 0.10 0.11 0.13 0.13 0.13 0.13 0.13 0.12 0.11 0.11 0.11 0.13 0.15 0.16 0.17 0.20 0.25 0.27 0.32 0.38 0.47 0.52 0.53 0.54 0.59 0.61 0.61 0.62 0.62 0.60 0.59 0.63
0.15 0.16 0.15 0.14 0.13 0.13 0.12 0.11 0.12 0.12 0.11 0.11 0.11 0.13 0.14 0.15 0.15 0.14 0.13 0.13 0.12 0.11 0.12 0.13 0.16 0.18 0.19 0.22 0.27 0.29 0.35 0.41 0.47 0.54 0.56 0.58 0.65 0.66 0.65 0.65 0.63 0.64 0.60 0.62
0.13 0.14 0.14 0.15 0.16 0.17 0.15 0.12 0.11 0.12 0.12 0.13 0.14 0.15 0.16 0.17 0.17 0.16 0.14 0.13 0.13 0.13 0.14 0.15 0.19 0.19 0.20 0.24 0.33 0.36 0.43 0.48 0.52 0.53 0.54 0.62 0.66 0.64 0.65 0.66 0.67 0.66 0.63 0.64
0.14 0.14 0.15 0.16 0.17 0.17 0.16 0.14 0.13 0.13 0.14 0.15 0.16 0.17 0.19 0.19 0.19 0.19 0.18 0.17 0.17 0.18 0.17 0.19 0.20 0.19 0.23 0.30 0.41 0.46 0.49 0.52 0.57 0.57 0.57 0.62 0.67 0.68 0.68 0.70 0.71 0.70 0.67 0.67
0.16 0.16 0.17 0.17 0.16 0.16 0.17 0.16 0.16 0.16 0.16 0.17 0.19 0.21 0.22 0.22 0.22 0.21 0.20 0.20 0.21 0.21 0.20 0.20 0.20 0.27 0.35 0.45 0.50 0.49 0.51 0.56 0.62 0.66 0.66 0.67 0.70 0.71 0.71 0.73 0.75 0.76 0.76 0.75
0.18 0.19 0.19 0.19 0.18 0.17 0.17 0.17 0.17 0.18 0.18 0.19 0.21 0.23 0.24 0.24 0.23 0.23 0.22 0.22 0.23 0.26 0.26 0.23 0.26 0.38 0.46 0.52 0.49 0.49 0.52 0.58 0.65 0.69 0.71 0.71 0.76 0.79 0.77 0.78 0.82 0.82 0.82 0.81
0.22 0.22 0.22 0.22 0.20 0.19 0.17 0.17 0.17 0.19 0.21 0.22 0.24 0.25 0.25 0.26 0.26 0.26 0.27 0.25 0.25 0.30 0.30 0.30 0.37 0.45 0.51 0.50 0.46 0.49 0.54 0.60 0.67 0.74 0.77 0.78 0.80 0.84 0.86 0.86 0.87 0.87 0.87 0.85
0.25 0.24 0.23 0.23 0.22 0.20 0.20 0.20 0.19 0.20 0.21 0.21 0.23 0.25 0.26 0.27 0.26 0.25 0.28 0.30 0.31 0.34 0.34 0.38 0.44 0.48 0.50 0.49 0.50 0.54 0.62 0.70 0.77 0.83 0.86 0.87 0.86 0.88 0.91 0.94 0.95 0.91 0.88 0.87
0.28 0.27 0.25 0.24 0.25 0.25 0.24 0.23 0.21 0.20 0.21 0.21 0.22 0.24 0.27 0.29 0.31 0.31 0.31 0.34 0.37 0.38 0.39 0.42 0.46 0.49 0.49 0.52 0.58 0.66 0.73 0.81 0.92 0.99 0.99 0.96 0.93 0.93 0.95 0.97 0.98 0.96 0.92 0.89
0.32 0.32 0.30 0.29 0.30 0.30 0.28 0.27 0.26 0.24 0.24 0.25 0.26 0.27 0.29 0.32 0.35 0.35 0.35 0.38 0.41 0.43 0.44 0.46 0.50 0.53 0.57 0.63 0.68 0.73 0.77 0.81 0.87 0.94 0.95 0.96 0.95 0.95 0.96 0.99 0.98 0.96 0.94 0.90
0.34 0.32 0.31 0.30 0.31 0.32 0.32 0.32 0.33 0.33 0.33 0.34 0.36 0.35 0.36 0.37 0.39 0.39 0.40 0.43 0.46 0.48 0.49 0.52 0.56 0.59 0.65 0.71 0.75 0.78 0.81 0.83 0.87 0.96 0.99 0.99 0.98 0.99 1.00 1.00 1.00 0.98 0.95 0.92

GEFSNGP_prec_meanprecacc_276.txt.gz
Total_Precipitation_Accumulation
0.49 0.39 0.45 0.50 0.45 0.48 0.65 0.67 0.57 0.31 0.23 0.23 0.21 0.20 0.17 0.16 0.14 0.12 0.13 0.14 0.14 0.15 0.17 0.24 0.33 0.42 0.56 0.59 0.54 0.55 0.60 0.70 0.82 0.86 0.87 0.90 0.99 1.10 1.17 1.25 1.29 1.28 1.31 1.29
0.47 0.32 0.35 0.38 0.32 0.35 0.40 0.37 0.35 0.24 0.27 0.23 0.19 0.17 0.16 0.16 0.16 0.15 0.16 0.16 0.16 0.17 0.17 0.21 0.33 0.46 0.57 0.64 0.64 0.65 0.75 0.81 0.89 0.93 0.93 0.91 0.96 1.09 1.19 1.24 1.32 1.34 1.30 1.27
0.69 0.40 0.57 0.59 0.35 0.33 0.34 0.31 0.30 0.31 0.27 0.21 0.20 0.20 0.21 0.21 0.21 0.21 0.18 0.18 0.20 0.20 0.20 0.24 0.39 0.52 0.56 0.65 0.71 0.76 0.83 0.85 0.84 0.89 0.94 0.91 0.89 1.00 1.13 1.16 1.13 1.14 1.15 1.14
0.95 0.73 1.05 0.54 0.27 0.25 0.27 0.29 0.32 0.33 0.27 0.22 0.21 0.22 0.24 0.25 0.25 0.24 0.22 0.22 0.24 0.23 0.22 0.25 0.34 0.41 0.44 0.55 0.65 0.71 0.77 0.84 0.86 0.86 0.91 0.94 0.90 0.87 0.90 0.98 1.05 1.01 0.93 0.91
1.25 0.93 0.57 0.25 0.22 0.28 0.31 0.37 0.38 0.34 0.29 0.24 0.20 0.18 0.23 0.25 0.24 0.24 0.24 0.24 0.25 0.25 0.26 0.28 0.31 0.35 0.38 0.45 0.55 0.63 0.68 0.72 0.77 0.78 0.81 0.84 0.87 0.81 0.78 0.81 0.87 0.90 0.87 0.80
1.36 1.01 0.52 0.32 0.21 0.22 0.27 0.43 0.37 0.31 0.31 0.29 0.28 0.42 0.38 0.29 0.23 0.21 0.20 0.20 0.21 0.21 0.23 0.26 0.30 0.33 0.37 0.42 0.45 0.53 0.57 0.57 0.56 0.59 0.65 0.65 0.65 0.66 0.65 0.69 0.73 0.74 0.78 0.78
1.15 0.90 0.40 0.21 0.15 0.19 0.44 0.59 0.38 0.33 0.32 0.32 0.41 0.51 0.40 0.30 0.25 0.22 0.19 0.17 0.16 0.17 0.21 0.26 0.32 0.34 0.35 0.39 0.40 0.45 0.46 0.43 0.43 0.45 0.49 0.51 0.53 0.55 0.55 0.58 0.64 0.68 0.69 0.73
0.88 1.00 0.52 0.22 0.21 0.41 0.56 0.37 0.33 0.32 0.30 0.32 0.31 0.27 0.25 0.24 0.23 0.21 0.19 0.18 0.17 0.18 0.22 0.26 0.30 0.32 0.34 0.37 0.37 0.39 0.43 0.41 0.38 0.41 0.45 0.48 0.50 0.52 0.53 0.57 0.63 0.64 0.67 0.72
0.66 0.59 0.38 0.30 0.34 0.36 0.31 0.29 0.28 0.30 0.30 0.31 0.29 0.25 0.24 0.22 0.20 0.19 0.18 0.19 0.20 0.21 0.22 0.23 0.25 0.28 0.31 0.32 0.33 0.34 0.38 0.40 0.40 0.42 0.44 0.49 0.54 0.55 0.56 0.58 0.64 0.68 0.68 0.71
0.41 0.32 0.29 0.28 0.26 0.25 0.22 0.23 0.23 0.25 0.29 0.29 0.27 0.23 0.20 0.18 0.17 0.17 0.16 0.18 0.21 0.21 0.20 0.22 0.23 0.24 0.27 0.27 0.29 0.34 0.38 0.39 0.41 0.43 0.46 0.48 0.52 0.55 0.59 0.65 0.73 0.78 0.76 0.74
0.28 0.20 0.20 0.22 0.22 0.21 0.18 0.15 0.15 0.15 0.17 0.21 0.21 0.20 0.19 0.18 0.18 0.19 0.19 0.19 0.19 0.19 0.21 0.21 0.21 0.24 0.24 0.24 0.27 0.32 0.34 0.37 0.41 0.43 0.45 0.48 0.48 0.52 0.58 0.62 0.79 0.98 0.89 0.86
0.25 0.17 0.17 0.17 0.16 0.14 0.14 0.13 0.15 0.15 0.14 0.14 0.15 0.18 0.18 0.19 0.20 0.21 0.21 0.20 0.18 0.17 0.17 0.18 0.19 0.21 0.23 0.22 0.24 0.28 0.32 0.34 0.39 0.43 0.46 0.46 0.48 0.52 0.55 0.57 0.63 0.66 0.70 0.81
0.15 0.11 0.11 0.11 0.09 0.09 0.11 0.13 0.14 0.14 0.14 0.13 0.14 0.15 0.16 0.17 0.18 0.18 0.18 0.19 0.19 0.17 0.16 0.17 0.17 0.20 0.24 0.25 0.24 0.27 0.33 0.36 0.39 0.40 0.44 0.47 0.49 0.55 0.55 0.54 0.54 0.54 0.57 0.65
0.10 0.11 0.12 0.10 0.09 0.09 0.10 0.11 0.11 0.11 0.11 0.11 0.11 0.12 0.14 0.14 0.15 0.15 0.17 0.17 0.16 0.15 0.14 0.15 0.16 0.19 0.23 0.25 0.25 0.27 0.32 0.38 0.41 0.41 0.44 0.47 0.49 0.53 0.57 0.61 0.60 0.55 0.55 0.62
0.10 0.11 0.11 0.10 0.09 0.09 0.09 0.09 0.10 0.10 0.09 0.08 0.08 0.10 0.12 0.14 0.15 0.16 0.16 0.15 0.13 0.12 0.13 0.14 0.15 0.17 0.19 0.21 0.24 0.27 0.31 0.38 0.44 0.46 0.47 0.49 0.49 0.52 0.55 0.56 0.56 0.55 0.57 0.66
0.11 0.11 0.10 0.10 0.10 0.09 0.09 0.10 0.11 0.11 0.09 0.08 0.08 0.10 0.13 0.14 0.15 0.15 0.14 0.12 0.12 0.12 0.13 0.14 0.16 0.17 0.17 0.20 0.24 0.26 0.30 0.41 0.50 0.53 0.52 0.54 0.54 0.55 0.58 0.57 0.55 0.55 0.61 0.68
0.14 0.12 0.11 0.10 0.09 0.10 0.11 0.12 0.12 0.12 0.10 0.09 0.10 0.12 0.13 0.14 0.14 0.14 0.14 0.13 0.12 0.12 0.13 0.14 0.17 0.17 0.18 0.21 0.26 0.28 0.33 0.39 0.48 0.53 0.54 0.56 0.61 0.62 0.62 0.64 0.64 0.61 0.60 0.64
0.16 0.16 0.15 0.14 0.13 0.13 0.13 0.12 0.12 0.12 0.11 0.11 0.12 0.14 0.15 0.16 0.16 0.15 0.14 0.14 0.13 0.13 0.13 0.14 0.17 0.19 0.20 0.23 0.28 0.30 0.36 0.41 0.48 0.55 0.57 0.59 0.66 0.67 0.67 0.66 0.65 0.65 0.61 0.63
0.13 0.14 0.14 0.15 0.16 0.17 0.15 0.12 0.11 0.12 0.13 0.13 0.14 0.16 0.17 0.18 0.18 0.17 0.16 0.14 0.14 0.14 0.16 0.17 0.21 0.20 0.21 0.25 0.34 0.37 0.43 0.48 0.53 0.54 0.55 0.63 0.67 0.65 0.66 0.67 0.69 0.68 0.65 0.66
0.14 0.14 0.15 0.16 0.17 0.17 0.16 0.14 0.13 0.13 0.14 0.15 0.16 0.18 0.19 0.20 0.20 0.20 0.19 0.18 0.18 0.19 0.18 0.20 0.21 0.21 0.24 0.31 0.42 0.47 0.50 0.53 0.57 0.58 0.58 0.63 0.68 0.69 0.70 0.71 0.73 0.72 0.69 0.69
0.16 0.16 0.17 0.17 0.17 0.16 0.17 0.17 0.16 0.16 0.16 0.17 0.19 0.22 0.22 0.23 0.22 0.22 0.21 0.21 0.22 0.22 0.21 0.21 0.21 0.28 0.36 0.45 0.50 0.49 0.51 0.57 0.63 0.66 0.67 0.68 0.71 0.72 0.73 0.74 0.76 0.78 0.78 0.77
0.18 0.19 0.19 0.19 0.18 0.17 0.17 0.17 0.17 0.18 0.18 0.19 0.21 0.23 0.24 0.25 0.24 0.23 0.23 0.23 0.24 0.28 0.27 0.24 0.27 0.39 0.47 0.53 0.50 0.50 0.53 0.59 0.65 0.69 0.72 0.72 0.77 0.80 0.79 0.79 0.84 0.83 0.84 0.83
0.22 0.22 0.22 0.22 0.20 0.19 0.17 0.17 0.18 0.19 0.21 0.22 0.24 0.25 0.26 0.27 0.27 0.27 0.28 0.26 0.26 0.31 0.31 0.30 0.37 0.45 0.51 0.50 0.47 0.50 0.55 0.61 0.68 0.75 0.78 0.79 0.81 0.85 0.87 0.87 0.88 0.88 0.88 0.87
0.25 0.24 0.23 0.23 0.22 0.21 0.20 0.20 0.20 0.20 0.21 0.21 0.23 0.25 0.27 0.27 0.26 0.26 0.29 0.31 0.32 0.35 0.34 0.39 0.44 0.49 0.51 0.49 0.50 0.55 0.63 0.70 0.78 0.84 0.87 0.88 0.87 0.88 0.92 0.95 0.96 0.92 0.89 0.88
0.28 0.27 0.25 0.24 0.25 0.25 0.24 0.24 0.22 0.21 0.21 0.21 0.22 0.24 0.27 0.30 0.32 0.32 0.32 0.35 0.38 0.39 0.40 0.43 0.46 0.50 0.49 0.52 0.59 0.66 0.74 0.82 0.93 1.01 1.00 0.98 0.94 0.94 0.96 0.98 0.99 0.97 0.94 0.90
0.32 0.32 0.30 0.29 0.30 0.30 0.29 0.28 0.26 0.25 0.25 0.26 0.26 0.28 0.30 0.33 0.36 0.36 0.36 0.39 0.42 0.43 0.44 0.47 0.50 0.54 0.58 0.63 0.69 0.74 0.78 0.82 0.88 0.95 0.96 0.97 0.96 0.96 0.98 1.00 0.99 0.98 0.95 0.92
0.34 0.33 0.31 0.30 0.31 0.32 0.32 0.33 0.34 0.34 0.34 0.35 0.37 0.36 0.37 0.38 0.40 0.41 0.41 0.44 0.47 0.49 0.50 0.53 0.56 0.60 0.65 0.72 0.76 0.79 0.82 0.84 0.88 0.97 1.00 1.00 0.99 1.00 1.01 1.02 1.01 0.99 0.96 0.93

GEFSNGP_prec_meanprecacc_282.txt.gz
Total_Precipitation_Accumulation
0.50 0.39 0.46 0.52 0.46 0.49 0.67 0.70 0.59 0.33 0.24 0.24 0.21 0.21 0.18 0.16 0.15 0.13 0.15 0.16 0.17 0.19 0.20 0.25 0.34 0.44 0.58 0.63 0.57 0.59 0.65 0.76 0.89 0.94 0.94 0.98 1.07 1.19 1.25 1.30 1.32 1.31 1.35 1.33
0.48 0.32 0.36 0.39 0.33 0.35 0.41 0.38 0.36 0.25 0.28 0.24 0.19 0.18 0.17 0.17 0.17 0.16 0.16 0.18 0.19 0.21 0.20 0.24 0.35 0.47 0.58 0.66 0.68 0.69 0.80 0.87 0.96 1.01 1.01 0.99 1.04 1.17 1.27 1.32 1.39 1.39 1.34 1.30
0.70 0.40 0.59 0.61 0.36 0.34 0.35 0.32 0.31 0.32 0.28 0.22 0.20 0.20 0.22 0.21 0.21 0.21 0.19 0.19 0.22 0.23 0.23 0.26 0.40 0.53 0.57 0.66 0.73 0.79 0.87 0.90 0.91 0.97 1.02 0.98 0.94 1.05 1.20 1.23 1.20 1.22 1.22 1.19
0.98 0.74 1.07 0.56 0.27 0.26 0.28 0.30 0.33 0.34 0.28 0.23 0.22 0.22 0.24 0.26 0.26 0.25 0.22 0.23 0.25 0.25 0.25 0.27 0.36 0.42 0.45 0.56 0.67 0.74 0.80 0.87 0.90 0.91 0.97 1.00 0.95 0.92 0.95 1.04 1.12 1.08 1.00 0.97
1.29 0.96 0.59 0.26 0.22 0.29 0.33 0.39 0.39 0.35 0.29 0.24 0.20 0.18 0.23 0.25 0.25 0.25 0.24 0.25 0.26 0.26 0.27 0.30 0.33 0.36 0.38 0.47 0.58 0.66 0.71 0.75 0.79 0.81 0.85 0.89 0.91 0.86 0.83 0.86 0.93 0.97 0.94 0.86
1.38 1.03 0.54 0.33 0.21 0.22 0.28 0.44 0.37 0.31 0.31 0.29 0.28 0.43 0.39 0.30 0.24 0.22 0.21 0.21 0.21 0.22 0.24 0.28 0.32 0.34 0.38 0.44 0.48 0.57 0.60 0.59 0.58 0.61 0.68 0.68 0.68 0.70 0.70 0.75 0.79 0.81 0.86 0.86
1.16 0.92 0.41 0.22 0.16 0.19 0.45 0.60 0.39 0.34 0.32 0.33 0.42 0.52 0.41 0.30 0.26 0.22 0.20 0.18 0.17 0.17 0.22 0.27 0.33 0.35 0.37 0.41 0.42 0.48 0.50 0.47 0.45 0.47 0.51 0.54 0.56 0.59 0.60 0.63 0.68 0.73 0.76 0.80
0.89 1.02 0.54 0.22 0.22 0.42 0.57 0.37 0.33 0.33 0.31 0.33 0.31 0.27 0.26 0.24 0.23 0.21 0.20 0.19 0.18 0.19 0.22 0.27 0.31 0.34 0.36 0.39 0.39 0.41 0.46 0.45 0.42 0.44 0.48 0.50 0.52 0.55 0.57 0.61 0.68 0.70 0.73 0.79
0.67 0.60 0.39 0.31 0.36 0.37 0.32 0.29 0.29 0.31 0.30 0.32 0.30 0.26 0.24 0.22 0.21 0.20 0.19 0.20 0.20 0.21 0.23 0.24 0.26 0.29 0.33 0.34 0.35 0.36 0.40 0.42 0.43 0.46 0.48 0.52 0.56 0.58 0.60 0.62 0.69 0.73 0.73 0.76
0.42 0.33 0.31 0.30 0.28 0.26 0.23 0.24 0.24 0.25 0.29 0.30 0.28 0.24 0.21 0.19 0.18 0.17 0.17 0.18 0.21 0.21 0.21 0.24 0.24 0.25 0.28 0.29 0.31 0.36 0.40 0.42 0.44 0.47 0.49 0.51 0.54 0.58 0.63 0.69 0.77 0.81 0.79 0.77
0.29 0.21 0.21 0.24 0.23 0.22 0.19 0.16 0.15 0.15 0.18 0.21 0.21 0.21 0.20 0.19 0.19 0.19 0.19 0.19 0.19 0.20 0.21 0.22 0.23 0.25 0.26 0.25 0.29 0.34 0.36 0.39 0.44 0.46 0.48 0.50 0.51 0.54 0.60 0.64 0.82 1.02 0.93 0.89
0.26 0.18 0.18 0.18 0.17 0.15 0.15 0.14 0.15 0.16 0.14 0.14 0.16 0.18 0.19 0.20 0.21 0.22 0.22 0.21 0.19 0.18 0.18 0.19 0.20 0.22 0.24 0.24 0.25 0.30 0.34 0.37 0.41 0.46 0.48 0.48 0.50 0.54 0.58 0.60 0.66 0.69 0.74 0.85
0.15 0.12 0.11 0.11 0.09 0.10 0.12 0.14 0.15 0.15 0.14 0.14 0.14 0.16 0.17 0.18 0.18 0.18 0.19 0.20 0.19 0.18 0.17 0.18 0.18 0.21 0.25 0.26 0.26 0.28 0.34 0.38 0.41 0.42 0.46 0.49 0.51 0.56 0.58 0.56 0.57 0.57 0.60 0.68
0.10 0.11 0.13 0.10 0.10 0.09 0.11 0.12 0.12 0.12 0.12 0.12 0.12 0.13 0.14 0.15 0.15 0.16 0.17 0.18 0.17 0.16 0.15 0.16 0.17 0.19 0.23 0.26 0.27 0.29 0.34 0.40 0.44 0.44 0.47 0.50 0.52 0.55 0.59 0.63 0.62 0.57 0.57 0.64
0.10 0.11 0.12 0.10 0.09 0.10 0.10 0.10 0.11 0.10 0.09 0.09 0.09 0.11 0.13 0.14 0.16 0.17 0.16 0.15 0.14 0.13 0.14 0.15 0.16 0.18 0.20 0.22 0.25 0.29 0.33 0.40 0.47 0.49 0.50 0.52 0.52 0.54 0.57 0.58 0.58 0.57 0.58 0.67
0.11 0.11 0.10 0.10 0.10 0.10 0.10 0.11 0.12 0.11 0.09 0.09 0.09 0.11 0.14 0.15 0.16 0.16 0.15 0.13 0.13 0.13 0.14 0.15 0.17 0.18 0.19 0.22 0.25 0.28 0.32 0.43 0.52 0.55 0.55 0.56 0.56 0.57 0.60 0.59 0.57 0.57 0.62 0.70
0.14 0.13 0.11 0.10 0.09 0.10 0.11 0.12 0.13 0.13 0.11 0.10 0.11 0.13 0.14 0.15 0.15 0.15 0.14 0.14 0.13 0.13 0.14 0.15 0.18 0.19 0.19 0.23 0.27 0.30 0.35 0.41 0.50 0.54 0.56 0.58 0.63 0.64 0.64 0.66 0.66 0.63 0.62 0.66
0.16 0.16 0.15 0.14 0.13 0.13 0.13 0.12 0.12 0.13 0.12 0.12 0.13 0.14 0.16 0.17 0.16 0.16 0.15 0.14 0.14 0.13 0.14 0.15 0.18 0.20 0.21 0.24 0.29 0.32 0.37 0.43 0.50 0.57 0.59 0.61 0.67 0.69 0.68 0.68 0.67 0.67 0.63 0.65
0.13 0.14 0.15 0.15 0.16 0.17 0.15 0.12 0.12 0.13 0.13 0.14 0.15 0.16 0.17 0.19 0.18 0.18 0.16 0.15 0.15 0.15 0.16 0.18 0.22 0.21 0.22 0.26 0.35 0.38 0.44 0.50 0.54 0.55 0.56 0.64 0.68 0.66 0.68 0.69 0.70 0.69 0.67 0.67
0.14 0.14 0.15 0.16 0.17 0.18 0.16 0.14 0.13 0.13 0.15 0.15 0.16 0.18 0.19 0.20 0.21 0.20 0.19 0.19 0.19 0.20 0.19 0.21 0.22 0.22 0.25 0.32 0.43 0.48 0.51 0.54 0.58 0.59 0.59 0.63 0.69 0.70 0.71 0.73 0.74 0.74 0.71 0.70
0.17 0.17 0.17 0.17 0.17 0.16 0.17 0.17 0.16 0.17 0.17 0.17 0.19 0.22 0.23 0.23 0.23 0.22 0.22 0.22 0.23 0.23 0.22 0.23 0.23 0.29 0.37 0.47 0.52 0.51 0.52 0.58 0.63 0.67 0.68 0.69 0.72 0.73 0.74 0.76 0.78 0.80 0.80 0.79
0.19 0.19 0.20 0.20 0.18 0.17 0.17 0.17 0.17 0.18 0.19 0.19 0.21 0.23 0.24 0.25 0.24 0.24 0.23 0.23 0.25 0.28 0.28 0.25 0.28 0.40 0.48 0.54 0.51 0.51 0.54 0.60 0.66 0.70 0.73 0.73 0.77 0.81 0.80 0.80 0.85 0.85 0.85 0.84
0.23 0.23 0.23 0.22 0.21 0.19 0.17 0.17 0.18 0.19 0.21 0.22 0.24 0.25 0.26 0.27 0.27 0.27 0.29 0.26 0.27 0.32 0.32 0.32 0.39 0.48 0.53 0.52 0.48 0.51 0.56 0.62 0.69 0.76 0.79 0.80 0.82 0.86 0.88 0.89 0.90 0.90 0.90 0.88
0.25 0.24 0.23 0.23 0.22 0.21 0.20 0.20 0.20 0.20 0.21 0.21 0.23 0.25 0.27 0.28 0.27 0.26 0.29 0.31 0.33 0.36 0.36 0.40 0.46 0.50 0.52 0.51 0.51 0.56 0.63 0.71 0.79 0.85 0.88 0.89 0.88 0.89 0.93 0.96 0.97 0.93 0.91 0.90
0.28 0.27 0.25 0.24 0.25 0.25 0.25 0.24 0.22 0.21 0.21 0.21 0.23 0.25 0.27 0.30 0.33 0.32 0.33 0.36 0.39 0.41 0.42 0.45 0.48 0.51 0.51 0.53 0.60 0.67 0.74 0.83 0.94 1.02 1.01 0.98 0.95 0.95 0.97 1.00 1.01 0.98 0.95 0.92
0.32 0.32 0.30 0.30 0.30 0.30 0.29 0.28 0.26 0.25 0.25 0.26 0.27 0.28 0.30 0.34 0.36 0.37 0.38 0.41 0.43 0.45 0.45 0.48 0.51 0.55 0.59 0.64 0.70 0.75 0.79 0.83 0.89 0.96 0.97 0.98 0.97 0.98 0.99 1.02 1.01 0.99 0.97 0.94
0.34 0.33 0.31 0.30 0.31 0.32 0.33 0.33 0.34 0.34 0.34 0.35 0.37 0.37 0.37 0.39 0.41 0.42 0.43 0.46 0.48 0.50 0.51 0.54 0.57 0.61 0.66 0.73 0.77 0.80 0.83 0.85 0.89 0.98 1.02 1.01 1.00 1.02 1.02 1.03 1.03 1.00 0.98 0.94

GEFSNGP_prec_meanprecacc_288.txt.gz
Total_Precipitation_Accumulation
0.50 0.40 0.47 0.53 0.48 0.50 0.69 0.72 0.61 0.34 0.25 0.25 0.22 0.22 0.19 0.18 0.17 0.15 0.17 0.19 0.21 0.24 0.27 0.32 0.40 0.51 0.67 0.71 0.64 0.64 0.70 0.81 0.96 1.02 1.02 1.06 1.18 1.33 1.39 1.41 1.41 1.38 1.40 1.37
0.49 0.33 0.37 0.40 0.33 0.36 0.42 0.40 0.37 0.27 0.29 0.25 0.20 0.19 0.18 0.18 0.18 0.18 0.18 0.20 0.23 0.26 0.26 0.30 0.41 0.54 0.66 0.74 0.76 0.76 0.86 0.92 1.02 1.08 1.09 1.10 1.16 1.32 1.44 1.48 1.52 1.48 1.39 1.34
0.72 0.41 0.60 0.62 0.37 0.34 0.36 0.33 0.33 0.33 0.29 0.23 0.22 0.22 0.23 0.23 0.23 0.23 0.21 0.22 0.25 0.28 0.29 0.33 0.47 0.60 0.64 0.73 0.80 0.86 0.94 0.97 0.98 1.05 1.10 1.08 1.07 1.19 1.35 1.41 1.38 1.36 1.32 1.26
1.01 0.77 1.10 0.57 0.28 0.26 0.29 0.32 0.35 0.35 0.29 0.25 0.23 0.24 0.26 0.27 0.27 0.26 0.24 0.25 0.28 0.31 0.30 0.33 0.43 0.49 0.51 0.63 0.73 0.80 0.87 0.94 0.96 0.99 1.06 1.10 1.07 1.05 1.10 1.18 1.27 1.24 1.16 1.09
1.33 0.99 0.60 0.27 0.23 0.30 0.35 0.41 0.40 0.36 0.31 0.26 0.22 0.20 0.25 0.26 0.26 0.26 0.26 0.27 0.28 0.30 0.33 0.36 0.40 0.42 0.43 0.51 0.63 0.71 0.76 0.80 0.84 0.87 0.93 0.97 1.01 0.97 0.94 0.97 1.03 1.08 1.07 1.00
1.43 1.06 0.56 0.34 0.22 0.24 0.30 0.46 0.38 0.32 0.32 0.30 0.29 0.45 0.41 0.31 0.24 0.22 0.22 0.22 0.23 0.24 0.28 0.33 0.40 0.39 0.41 0.47 0.52 0.64 0.67 0.65 0.62 0.66 0.75 0.76 0.76 0.77 0.77 0.82 0.86 0.88 0.93 0.95
1.20 0.95 0.42 0.23 0.17 0.21 0.48 0.62 0.40 0.34 0.33 0.34 0.43 0.53 0.42 0.31 0.26 0.23 0.20 0.18 0.18 0.19 0.24 0.30 0.38 0.40 0.40 0.44 0.46 0.54 0.58 0.53 0.51 0.53 0.58 0.60 0.63 0.66 0.66 0.68 0.74 0.79 0.83 0.87
0.92 1.05 0.55 0.23 0.23 0.43 0.60 0.38 0.34 0.34 0.31 0.33 0.32 0.28 0.26 0.25 0.23 0.21 0.20 0.19 0.18 0.19 0.23 0.28 0.34 0.38 0.39 0.42 0.43 0.46 0.53 0.52 0.48 0.49 0.52 0.55 0.57 0.60 0.62 0.67 0.74 0.76 0.79 0.86
0.69 0.62 0.40 0.32 0.37 0.38 0.33 0.30 0.29 0.32 0.31 0.32 0.30 0.26 0.24 0.22 0.21 0.20 0.19 0.20 0.20 0.22 0.25 0.26 0.28 0.31 0.36 0.37 0.38 0.40 0.46 0.49 0.49 0.51 0.52 0.55 0.60 0.62 0.64 0.66 0.74 0.78 0.78 0.81
0.43 0.35 0.32 0.31 0.29 0.27 0.24 0.25 0.25 0.26 0.30 0.30 0.29 0.24 0.21 0.19 0.18 0.18 0.17 0.18 0.21 0.22 0.22 0.25 0.26 0.27 0.30 0.31 0.34 0.38 0.43 0.47 0.49 0.52 0.54 0.55 0.58 0.62 0.66 0.72 0.80 0.84 0.82 0.80
0.31 0.22 0.22 0.25 0.25 0.23 0.20 0.16 0.16 0.16 0.18 0.22 0.22 0.21 0.20 0.19 0.19 0.20 0.20 0.20 0.20 0.21 0.22 0.24 0.24 0.26 0.26 0.27 0.31 0.36 0.39 0.43 0.49 0.51 0.52 0.54 0.55 0.59 0.64 0.67 0.85 1.04 0.95 0.91
0.27 0.19 0.19 0.20 0.18 0.16 0.16 0.14 0.16 0.16 0.15 0.14 0.16 0.19 0.19 0.20 0.22 0.22 0.23 0.22 0.20 0.19 0.19 0.20 0.22 0.24 0.26 0.25 0.26 0.32 0.37 0.40 0.45 0.50 0.52 0.52 0.54 0.59 0.62 0.63 0.68 0.71 0.76 0.87
0.16 0.13 0.12 0.12 0.10 0.10 0.12 0.14 0.15 0.15 0.15 0.14 0.15 0.17 0.18 0.19 0.20 0.20 0.20 0.20 0.20 0.19 0.18 0.19 0.20 0.23 0.27 0.27 0.27 0.30 0.36 0.41 0.44 0.46 0.50 0.52 0.54 0.59 0.61 0.59 0.59 0.58 0.62 0.70
0.11 0.12 0.13 0.11 0.10 0.10 0.11 0.12 0.13 0.13 0.13 0.13 0.13 0.14 0.16 0.16 0.17 0.17 0.18 0.19 0.18 0.17 0.16 0.17 0.18 0.21 0.25 0.27 0.28 0.30 0.35 0.42 0.46 0.46 0.50 0.53 0.54 0.57 0.61 0.65 0.64 0.59 0.58 0.66
0.10 0.11 0.12 0.11 0.10 0.11 0.10 0.11 0.12 0.11 0.10 0.10 0.10 0.12 0.14 0.15 0.17 0.17 0.17 0.16 0.14 0.14 0.15 0.16 0.17 0.19 0.21 0.23 0.26 0.30 0.34 0.42 0.48 0.51 0.52 0.54 0.54 0.56 0.59 0.59 0.59 0.58 0.60 0.69
0.12 0.11 0.11 0.10 0.10 0.10 0.10 0.11 0.13 0.12 0.10 0.10 0.10 0.12 0.14 0.15 0.16 0.17 0.15 0.14 0.14 0.13 0.15 0.16 0.18 0.19 0.20 0.23 0.26 0.29 0.34 0.44 0.53 0.57 0.56 0.58 0.58 0.59 0.61 0.61 0.59 0.58 0.64 0.71
0.15 0.13 0.11 0.10 0.09 0.10 0.11 0.12 0.13 0.13 0.11 0.10 0.12 0.14 0.15 0.15 0.15 0.15 0.15 0.15 0.14 0.14 0.15 0.16 0.19 0.19 0.20 0.23 0.28 0.31 0.36 0.43 0.52 0.56 0.57 0.59 0.65 0.66 0.66 0.67 0.67 0.65 0.63 0.67
0.16 0.16 0.15 0.14 0.14 0.13 0.13 0.12 0.13 0.13 0.12 0.12 0.13 0.15 0.17 0.17 0.17 0.17 0.16 0.16 0.15 0.15 0.15 0.16 0.19 0.21 0.22 0.26 0.31 0.33 0.38 0.44 0.51 0.58 0.60 0.62 0.69 0.71 0.70 0.70 0.68 0.68 0.64 0.66
0.14 0.14 0.15 0.15 0.16 0.17 0.15 0.12 0.12 0.13 0.13 0.14 0.15 0.17 0.19 0.20 0.20 0.19 0.17 0.16 0.16 0.16 0.17 0.18 0.22 0.21 0.23 0.28 0.37 0.40 0.46 0.51 0.56 0.56 0.57 0.66 0.70 0.68 0.70 0.70 0.72 0.71 0.68 0.68
0.15 0.14 0.15 0.16 0.17 0.18 0.17 0.15 0.14 0.14 0.15 0.16 0.17 0.19 0.21 0.22 0.22 0.22 0.20 0.20 0.20 0.20 0.19 0.22 0.23 0.22 0.26 0.33 0.45 0.50 0.52 0.55 0.60 0.60 0.60 0.65 0.71 0.72 0.73 0.74 0.75 0.75 0.72 0.71
0.17 0.17 0.18 0.18 0.17 0.17 0.18 0.17 0.17 0.17 0.17 0.18 0.20 0.23 0.23 0.24 0.24 0.23 0.22 0.22 0.23 0.24 0.22 0.23 0.23 0.29 0.38 0.48 0.53 0.52 0.54 0.59 0.65 0.68 0.69 0.70 0.73 0.74 0.75 0.77 0.79 0.81 0.81 0.80
0.20 0.20 0.20 0.20 0.18 0.17 0.17 0.17 0.18 0.18 0.19 0.20 0.21 0.23 0.25 0.26 0.25 0.24 0.24 0.24 0.25 0.29 0.28 0.26 0.29 0.41 0.50 0.56 0.52 0.52 0.56 0.62 0.68 0.72 0.74 0.74 0.78 0.82 0.81 0.81 0.87 0.86 0.87 0.86
0.23 0.23 0.23 0.22 0.21 0.20 0.18 0.17 0.18 0.19 0.21 0.22 0.24 0.25 0.26 0.27 0.27 0.28 0.29 0.27 0.27 0.32 0.32 0.32 0.40 0.49 0.54 0.53 0.49 0.52 0.58 0.64 0.70 0.77 0.80 0.81 0.83 0.87 0.89 0.90 0.91 0.92 0.91 0.90
0.25 0.24 0.24 0.23 0.22 0.21 0.20 0.20 0.20 0.20 0.21 0.22 0.23 0.25 0.27 0.28 0.27 0.27 0.30 0.32 0.34 0.37 0.37 0.42 0.48 0.52 0.54 0.52 0.53 0.57 0.64 0.72 0.80 0.86 0.89 0.90 0.89 0.91 0.94 0.97 0.98 0.95 0.93 0.91
0.29 0.28 0.25 0.25 0.25 0.25 0.25 0.24 0.22 0.21 0.21 0.22 0.23 0.25 0.28 0.31 0.33 0.33 0.33 0.37 0.40 0.42 0.44 0.47 0.49 0.52 0.52 0.54 0.60 0.68 0.75 0.84 0.96 1.03 1.02 0.99 0.96 0.96 0.98 1.01 1.02 1.00 0.97 0.94
0.32 0.32 0.30 0.30 0.30 0.30 0.29 0.28 0.27 0.25 0.26 0.26 0.27 0.29 0.31 0.34 0.37 0.37 0.39 0.42 0.44 0.46 0.46 0.49 0.52 0.56 0.60 0.65 0.71 0.76 0.80 0.84 0.90 0.97 0.98 0.99 0.98 0.99 1.00 1.03 1.02 1.01 0.98 0.95
0.34 0.33 0.31 0.30 0.31 0.32 0.33 0.33 0.34 0.34 0.35 0.36 0.38 0.37 0.38 0.40 0.42 0.42 0.43 0.46 0.49 0.51 0.52 0.55 0.58 0.62 0.67 0.74 0.78 0.81 0.84 0.86 0.90 0.99 1.03 1.02 1.01 1.03 1.03 1.04 1.04 1.02 0.99 0.96

GEFSNGP_prec_meanprecacc_294.txt.gz
Total_Precipitation_Accumulation
0.51 0.40 0.49 0.55 0.49 0.52 0.71 0.74 0.63 0.35 0.26 0.26 0.24 0.24 0.22 0.20 0.18 0.16 0.19 0.21 0.24 0.28 0.32 0.40 0.52 0.66 0.80 0.80 0.71 0.72 0.81 0.95 1.12 1.17 1.12 1.13 1.25 1.41 1.47 1.50 1.51 1.50 1.52 1.46
0.50 0.34 0.38 0.41 0.34 0.37 0.43 0.41 0.38 0.27 0.29 0.26 0.22 0.22 0.21 0.20 0.20 0.19 0.21 0.23 0.26 0.29 0.30 0.36 0.51 0.69 0.81 0.86 0.84 0.83 0.94 1.04 1.16 1.25 1.23 1.21 1.26 1.42 1.56 1.61 1.65 1.61 1.52 1.46
0.73 0.42 0.62 0.64 0.38 0.35 0.36 0.34 0.34 0.34 0.30 0.24 0.23 0.25 0.27 0.25 0.25 0.26 0.24 0.25 0.29 0.31 0.32 0.38 0.55 0.72 0.79 0.85 0.90 0.95 1.03 1.06 1.09 1.17 1.23 1.21 1.18 1.31 1.48 1.55 1.56 1.56 1.50 1.41
1.04 0.79 1.13 0.59 0.29 0.27 0.29 0.32 0.36 0.37 0.31 0.26 0.25 0.27 0.29 0.30 0.30 0.29 0.28 0.30 0.32 0.34 0.34 0.38 0.49 0.59 0.63 0.73 0.82 0.89 0.95 1.02 1.05 1.08 1.15 1.21 1.19 1.16 1.20 1.29 1.40 1.39 1.32 1.26
1.37 1.01 0.62 0.28 0.24 0.31 0.36 0.42 0.41 0.38 0.32 0.27 0.23 0.22 0.27 0.28 0.28 0.28 0.28 0.31 0.32 0.33 0.36 0.40 0.45 0.49 0.53 0.62 0.73 0.81 0.85 0.88 0.92 0.95 1.00 1.05 1.11 1.08 1.04 1.06 1.12 1.18 1.18 1.14
1.48 1.10 0.58 0.35 0.24 0.25 0.32 0.48 0.40 0.34 0.33 0.31 0.30 0.46 0.42 0.33 0.26 0.24 0.23 0.25 0.26 0.27 0.31 0.37 0.44 0.44 0.50 0.57 0.62 0.73 0.75 0.72 0.71 0.74 0.83 0.84 0.84 0.87 0.86 0.91 0.96 0.97 1.04 1.06
1.24 0.98 0.44 0.24 0.18 0.22 0.51 0.65 0.42 0.36 0.34 0.35 0.44 0.54 0.43 0.32 0.27 0.24 0.21 0.20 0.20 0.20 0.26 0.34 0.43 0.44 0.48 0.52 0.54 0.62 0.66 0.61 0.58 0.61 0.67 0.69 0.71 0.73 0.73 0.76 0.82 0.86 0.92 0.97
0.94 1.07 0.57 0.24 0.24 0.45 0.62 0.41 0.36 0.36 0.33 0.34 0.33 0.28 0.27 0.25 0.24 0.22 0.21 0.20 0.19 0.20 0.25 0.31 0.37 0.42 0.45 0.50 0.52 0.55 0.60 0.59 0.55 0.56 0.60 0.62 0.65 0.68 0.70 0.74 0.82 0.83 0.87 0.95
0.71 0.64 0.41 0.34 0.39 0.41 0.35 0.33 0.31 0.33 0.32 0.33 0.31 0.27 0.25 0.23 0.21 0.21 0.19 0.20 0.21 0.23 0.26 0.27 0.30 0.34 0.41 0.44 0.47 0.50 0.54 0.56 0.56 0.58 0.58 0.62 0.68 0.71 0.73 0.74 0.81 0.85 0.85 0.89
0.45 0.37 0.34 0.34 0.32 0.30 0.27 0.27 0.26 0.27 0.31 0.31 0.29 0.25 0.22 0.19 0.19 0.18 0.17 0.19 0.22 0.22 0.23 0.26 0.27 0.29 0.34 0.37 0.40 0.46 0.53 0.54 0.55 0.58 0.60 0.63 0.66 0.70 0.75 0.80 0.87 0.90 0.87 0.85
0.32 0.24 0.24 0.27 0.28 0.25 0.21 0.17 0.17 0.16 0.18 0.22 0.22 0.22 0.21 0.20 0.20 0.20 0.21 0.20 0.20 0.22 0.24 0.25 0.26 0.28 0.30 0.31 0.36 0.42 0.45 0.50 0.55 0.57 0.58 0.61 0.62 0.65 0.69 0.72 0.90 1.09 0.99 0.95
0.29 0.20 0.20 0.21 0.19 0.17 0.16 0.15 0.16 0.17 0.15 0.15 0.17 0.19 0.19 0.21 0.22 0.23 0.24 0.22 0.21 0.20 0.20 0.22 0.23 0.26 0.28 0.28 0.30 0.36 0.41 0.45 0.51 0.56 0.58 0.58 0.59 0.65 0.68 0.69 0.73 0.75 0.79 0.89
0.17 0.14 0.13 0.13 0.11 0.11 0.13 0.14 0.15 0.15 0.15 0.15 0.15 0.17 0.18 0.19 0.20 0.20 0.21 0.21 0.21 0.20 0.19 0.20 0.21 0.24 0.29 0.30 0.29 0.33 0.40 0.45 0.48 0.51 0.56 0.59 0.60 0.65 0.68 0.67 0.65 0.63 0.65 0.73
0.11 0.12 0.14 0.12 0.11 0.11 0.12 0.13 0.13 0.13 0.13 0.13 0.14 0.15 0.16 0.17 0.17 0.18 0.19 0.20 0.19 0.18 0.17 0.18 0.19 0.22 0.27 0.29 0.30 0.32 0.38 0.45 0.49 0.50 0.55 0.58 0.60 0.63 0.66 0.70 0.70 0.64 0.63 0.69
0.11 0.12 0.13 0.11 0.10 0.11 0.11 0.11 0.12 0.12 0.11 0.10 0.11 0.12 0.15 0.16 0.17 0.18 0.18 0.17 0.15 0.15 0.16 0.17 0.18 0.21 0.23 0.25 0.27 0.31 0.37 0.44 0.51 0.54 0.56 0.58 0.59 0.60 0.64 0.64 0.64 0.63 0.65 0.73
0.12 0.12 0.11 0.11 0.11 0.10 0.11 0.12 0.13 0.12 0.10 0.10 0.11 0.13 0.15 0.16 0.17 0.18 0.16 0.15 0.14 0.14 0.16 0.18 0.19 0.21 0.22 0.25 0.28 0.31 0.35 0.47 0.56 0.59 0.59 0.61 0.62 0.63 0.65 0.65 0.63 0.62 0.67 0.74
0.15 0.13 0.11 0.10 0.10 0.10 0.11 0.12 0.13 0.13 0.11 0.11 0.13 0.14 0.16 0.16 0.16 0.17 0.16 0.16 0.15 0.15 0.17 0.18 0.21 0.22 0.23 0.25 0.29 0.32 0.37 0.44 0.54 0.58 0.60 0.62 0.68 0.69 0.69 0.71 0.71 0.68 0.66 0.69
0.16 0.16 0.15 0.15 0.14 0.14 0.13 0.12 0.13 0.13 0.13 0.13 0.14 0.16 0.18 0.18 0.18 0.18 0.18 0.17 0.17 0.16 0.18 0.19 0.22 0.24 0.24 0.27 0.31 0.34 0.39 0.45 0.52 0.60 0.62 0.64 0.71 0.73 0.73 0.73 0.72 0.71 0.67 0.68
0.14 0.15 0.15 0.15 0.17 0.18 0.16 0.13 0.13 0.14 0.14 0.15 0.16 0.19 0.20 0.21 0.21 0.21 0.19 0.18 0.17 0.18 0.19 0.20 0.24 0.23 0.24 0.28 0.37 0.40 0.46 0.52 0.57 0.58 0.59 0.68 0.72 0.70 0.72 0.73 0.74 0.73 0.70 0.70
0.15 0.15 0.16 0.17 0.18 0.19 0.17 0.15 0.14 0.15 0.16 0.17 0.18 0.20 0.22 0.23 0.23 0.23 0.22 0.21 0.21 0.21 0.20 0.23 0.24 0.24 0.27 0.34 0.45 0.51 0.53 0.56 0.61 0.62 0.62 0.66 0.72 0.74 0.74 0.76 0.77 0.77 0.73 0.73
0.18 0.18 0.18 0.19 0.18 0.17 0.18 0.18 0.18 0.18 0.18 0.18 0.20 0.23 0.24 0.25 0.24 0.24 0.23 0.23 0.24 0.24 0.24 0.24 0.24 0.31 0.39 0.49 0.54 0.53 0.54 0.60 0.66 0.70 0.70 0.71 0.75 0.76 0.77 0.79 0.81 0.83 0.83 0.81
0.20 0.20 0.21 0.21 0.19 0.18 0.17 0.17 0.18 0.19 0.19 0.20 0.22 0.24 0.25 0.26 0.25 0.25 0.24 0.24 0.26 0.30 0.29 0.27 0.30 0.42 0.51 0.57 0.53 0.53 0.57 0.63 0.69 0.73 0.76 0.75 0.80 0.83 0.82 0.83 0.88 0.88 0.88 0.87
0.23 0.24 0.23 0.23 0.21 0.20 0.18 0.17 0.18 0.19 0.21 0.22 0.24 0.26 0.27 0.28 0.28 0.28 0.30 0.27 0.28 0.33 0.33 0.33 0.42 0.50 0.55 0.54 0.50 0.53 0.59 0.65 0.72 0.78 0.82 0.83 0.85 0.88 0.91 0.91 0.93 0.93 0.93 0.91
0.25 0.24 0.24 0.23 0.22 0.21 0.20 0.20 0.20 0.21 0.21 0.22 0.24 0.26 0.28 0.29 0.27 0.27 0.30 0.33 0.35 0.38 0.38 0.43 0.49 0.53 0.55 0.53 0.53 0.58 0.65 0.74 0.81 0.88 0.91 0.92 0.91 0.92 0.96 0.99 1.00 0.96 0.94 0.93
0.29 0.28 0.25 0.25 0.25 0.25 0.25 0.24 0.22 0.21 0.21 0.22 0.23 0.25 0.28 0.31 0.34 0.33 0.34 0.38 0.41 0.43 0.45 0.48 0.50 0.53 0.52 0.55 0.61 0.69 0.76 0.85 0.97 1.04 1.04 1.01 0.97 0.97 0.99 1.02 1.03 1.01 0.98 0.95
0.32 0.32 0.30 0.30 0.30 0.30 0.29 0.28 0.27 0.26 0.26 0.27 0.28 0.29 0.31 0.35 0.37 0.38 0.39 0.43 0.45 0.46 0.47 0.50 0.53 0.57 0.61 0.66 0.72 0.77 0.81 0.85 0.92 0.99 1.00 1.00 0.99 1.00 1.02 1.05 1.04 1.02 0.99 0.96
0.34 0.33 0.31 0.30 0.31 0.33 0.33 0.33 0.34 0.35 0.35 0.36 0.38 0.38 0.38 0.40 0.42 0.43 0.44 0.47 0.50 0.52 0.53 0.56 0.59 0.63 0.68 0.75 0.79 0.82 0.85 0.86 0.91 1.00 1.04 1.03 1.02 1.04 1.05 1.05 1.05 1.03 1.00 0.97

GEFSNGP_prec_meanprecacc_300.txt.gz
Total_Precipitation_Accumulation
0.51 0.41 0.49 0.56 0.50 0.53 0.73 0.75 0.65 0.36 0.28 0.28 0.27 0.28 0.24 0.22 0.19 0.18 0.21 0.26 0.29 0.34 0.38 0.47 0.62 0.80 0.96 0.98 0.88 0.89 0.95 1.08 1.25 1.31 1.25 1.23 1.35 1.49 1.55 1.58 1.59 1.59 1.61 1.53
0.50 0.34 0.38 0.42 0.35 0.38 0.44 0.42 0.40 0.28 0.30 0.27 0.25 0.25 0.24 0.24 0.22 0.21 0.23 0.27 0.31 0.34 0.35 0.43 0.60 0.80 0.94 1.00 1.01 0.99 1.08 1.15 1.27 1.39 1.37 1.32 1.34 1.50 1.63 1.68 1.72 1.69 1.61 1.55
0.75 0.42 0.63 0.66 0.39 0.36 0.37 0.35 0.35 0.36 0.31 0.26 0.26 0.28 0.30 0.28 0.27 0.28 0.27 0.29 0.33 0.36 0.38 0.44 0.62 0.81 0.90 0.97 1.03 1.10 1.17 1.19 1.21 1.30 1.36 1.32 1.27 1.39 1.56 1.64 1.64 1.65 1.60 1.51
1.06 0.80 1.16 0.60 0.29 0.28 0.30 0.33 0.37 0.38 0.33 0.28 0.28 0.30 0.32 0.32 0.32 0.31 0.31 0.34 0.37 0.39 0.40 0.43 0.55 0.66 0.72 0.83 0.93 1.01 1.08 1.14 1.16 1.19 1.27 1.33 1.29 1.25 1.30 1.38 1.48 1.47 1.41 1.35
1.40 1.04 0.63 0.29 0.24 0.31 0.37 0.43 0.43 0.39 0.33 0.29 0.25 0.25 0.30 0.31 0.30 0.31 0.32 0.36 0.36 0.38 0.43 0.46 0.51 0.56 0.61 0.70 0.82 0.89 0.94 0.98 1.02 1.04 1.11 1.16 1.22 1.17 1.13 1.15 1.21 1.25 1.24 1.20
1.51 1.12 0.59 0.36 0.25 0.26 0.33 0.50 0.41 0.35 0.35 0.33 0.33 0.49 0.46 0.37 0.29 0.27 0.26 0.29 0.30 0.31 0.36 0.44 0.51 0.51 0.57 0.64 0.70 0.80 0.82 0.80 0.79 0.83 0.92 0.93 0.93 0.96 0.94 0.98 1.03 1.05 1.11 1.13
1.27 1.00 0.45 0.25 0.18 0.22 0.52 0.67 0.43 0.38 0.37 0.38 0.48 0.58 0.47 0.36 0.30 0.26 0.24 0.23 0.24 0.25 0.30 0.39 0.49 0.50 0.54 0.60 0.62 0.70 0.74 0.68 0.65 0.68 0.74 0.76 0.79 0.82 0.82 0.83 0.88 0.94 0.99 1.05
0.95 1.10 0.58 0.25 0.25 0.47 0.65 0.43 0.39 0.38 0.36 0.38 0.37 0.32 0.30 0.28 0.26 0.24 0.23 0.21 0.21 0.23 0.28 0.35 0.43 0.47 0.50 0.57 0.60 0.63 0.68 0.66 0.62 0.62 0.67 0.69 0.72 0.76 0.79 0.83 0.89 0.90 0.94 1.03
0.72 0.66 0.43 0.35 0.41 0.43 0.38 0.35 0.34 0.36 0.35 0.36 0.34 0.29 0.27 0.25 0.23 0.22 0.21 0.21 0.22 0.24 0.28 0.31 0.33 0.39 0.45 0.50 0.53 0.57 0.62 0.63 0.64 0.65 0.66 0.69 0.74 0.78 0.82 0.83 0.89 0.94 0.93 0.96
0.46 0.38 0.35 0.35 0.33 0.31 0.28 0.29 0.28 0.29 0.33 0.33 0.31 0.26 0.23 0.21 0.20 0.19 0.19 0.21 0.24 0.24 0.25 0.28 0.29 0.33 0.38 0.41 0.45 0.52 0.58 0.61 0.63 0.66 0.68 0.71 0.74 0.77 0.83 0.88 0.95 0.99 0.95 0.92
0.33 0.25 0.25 0.28 0.28 0.26 0.22 0.19 0.18 0.18 0.19 0.23 0.23 0.22 0.21 0.21 0.21 0.22 0.22 0.22 0.22 0.23 0.25 0.27 0.28 0.30 0.33 0.35 0.39 0.46 0.51 0.56 0.62 0.65 0.66 0.69 0.69 0.72 0.77 0.80 0.97 1.18 1.07 1.01
0.29 0.21 0.21 0.22 0.20 0.19 0.18 0.16 0.17 0.18 0.16 0.16 0.18 0.20 0.20 0.22 0.23 0.24 0.25 0.24 0.23 0.22 0.22 0.23 0.25 0.27 0.30 0.30 0.33 0.39 0.45 0.49 0.56 0.62 0.64 0.64 0.66 0.73 0.76 0.77 0.81 0.83 0.86 0.95
0.19 0.15 0.14 0.14 0.12 0.12 0.13 0.15 0.16 0.16 0.15 0.15 0.16 0.18 0.19 0.20 0.21 0.21 0.21 0.22 0.22 0.21 0.20 0.21 0.22 0.25 0.30 0.31 0.31 0.35 0.43 0.49 0.52 0.55 0.60 0.64 0.65 0.70 0.74 0.74 0.72 0.69 0.71 0.77
0.13 0.13 0.15 0.12 0.12 0.11 0.12 0.13 0.13 0.13 0.13 0.13 0.14 0.16 0.17 0.18 0.18 0.18 0.20 0.21 0.19 0.18 0.18 0.19 0.20 0.23 0.28 0.30 0.31 0.34 0.41 0.49 0.53 0.54 0.59 0.63 0.64 0.67 0.71 0.75 0.75 0.70 0.68 0.75
0.12 0.13 0.13 0.12 0.11 0.11 0.11 0.11 0.12 0.12 0.11 0.10 0.11 0.13 0.15 0.16 0.18 0.19 0.19 0.18 0.16 0.15 0.17 0.18 0.19 0.22 0.25 0.27 0.29 0.33 0.39 0.48 0.55 0.58 0.60 0.62 0.62 0.64 0.68 0.68 0.68 0.67 0.70 0.80
0.13 0.12 0.12 0.11 0.11 0.11 0.11 0.12 0.13 0.12 0.10 0.10 0.11 0.13 0.16 0.17 0.18 0.18 0.16 0.16 0.15 0.15 0.17 0.19 0.20 0.23 0.24 0.26 0.29 0.33 0.38 0.50 0.60 0.63 0.63 0.65 0.66 0.67 0.69 0.68 0.66 0.66 0.71 0.79
0.16 0.13 0.11 0.11 0.10 0.11 0.11 0.13 0.13 0.13 0.11 0.11 0.13 0.15 0.16 0.17 0.17 0.17 0.17 0.17 0.16 0.16 0.17 0.19 0.22 0.24 0.24 0.27 0.31 0.34 0.39 0.47 0.57 0.62 0.64 0.66 0.71 0.72 0.72 0.74 0.74 0.72 0.70 0.73
0.17 0.17 0.16 0.15 0.14 0.14 0.13 0.13 0.13 0.14 0.13 0.13 0.15 0.17 0.18 0.19 0.19 0.18 0.18 0.18 0.17 0.17 0.18 0.19 0.23 0.25 0.25 0.28 0.33 0.35 0.40 0.47 0.54 0.63 0.65 0.67 0.74 0.76 0.76 0.76 0.75 0.75 0.70 0.72
0.14 0.15 0.15 0.16 0.17 0.18 0.16 0.13 0.13 0.14 0.14 0.15 0.17 0.19 0.20 0.22 0.22 0.21 0.20 0.19 0.18 0.18 0.20 0.21 0.26 0.25 0.25 0.29 0.38 0.41 0.48 0.53 0.58 0.60 0.61 0.70 0.75 0.73 0.75 0.76 0.78 0.77 0.73 0.73
0.15 0.15 0.16 0.17 0.18 0.19 0.18 0.16 0.15 0.15 0.16 0.17 0.19 0.21 0.22 0.23 0.23 0.24 0.22 0.21 0.21 0.22 0.21 0.24 0.25 0.25 0.28 0.34 0.46 0.52 0.54 0.57 0.62 0.63 0.64 0.69 0.75 0.76 0.77 0.79 0.80 0.80 0.77 0.76
0.18 0.18 0.19 0.19 0.18 0.17 0.18 0.18 0.18 0.18 0.18 0.18 0.21 0.24 0.24 0.25 0.25 0.24 0.23 0.23 0.25 0.25 0.24 0.25 0.25 0.32 0.40 0.50 0.55 0.54 0.55 0.61 0.67 0.71 0.72 0.73 0.77 0.78 0.79 0.81 0.83 0.85 0.86 0.84
0.20 0.20 0.21 0.21 0.19 0.18 0.18 0.18 0.18 0.19 0.19 0.20 0.22 0.24 0.25 0.26 0.26 0.25 0.25 0.25 0.26 0.30 0.30 0.27 0.31 0.43 0.52 0.58 0.54 0.54 0.57 0.63 0.70 0.74 0.77 0.77 0.82 0.85 0.84 0.85 0.90 0.90 0.91 0.90
0.23 0.24 0.23 0.23 0.21 0.20 0.18 0.17 0.18 0.19 0.21 0.22 0.24 0.26 0.27 0.28 0.28 0.29 0.30 0.28 0.28 0.34 0.34 0.34 0.42 0.51 0.57 0.55 0.51 0.53 0.59 0.65 0.72 0.79 0.83 0.84 0.86 0.90 0.92 0.92 0.94 0.95 0.95 0.93
0.25 0.24 0.24 0.24 0.23 0.21 0.21 0.20 0.20 0.21 0.21 0.22 0.24 0.26 0.28 0.29 0.28 0.28 0.31 0.33 0.35 0.38 0.39 0.44 0.50 0.54 0.56 0.54 0.54 0.58 0.66 0.74 0.82 0.89 0.92 0.93 0.92 0.93 0.97 1.00 1.01 0.98 0.95 0.94
0.29 0.28 0.25 0.25 0.25 0.25 0.25 0.24 0.23 0.22 0.22 0.22 0.23 0.25 0.28 0.31 0.34 0.34 0.34 0.38 0.42 0.44 0.45 0.48 0.51 0.54 0.54 0.56 0.62 0.70 0.77 0.86 0.98 1.05 1.05 1.02 0.98 0.98 1.00 1.03 1.05 1.02 1.00 0.97
0.32 0.32 0.31 0.30 0.30 0.30 0.29 0.28 0.27 0.26 0.26 0.27 0.28 0.29 0.31 0.35 0.38 0.38 0.40 0.43 0.45 0.47 0.47 0.51 0.54 0.58 0.62 0.67 0.73 0.78 0.82 0.86 0.93 1.00 1.01 1.01 1.00 1.01 1.03 1.06 1.05 1.04 1.01 0.98
0.34 0.33 0.31 0.30 0.31 0.33 0.33 0.33 0.35 0.35 0.35 0.37 0.38 0.38 0.39 0.41 0.43 0.43 0.44 0.47 0.50 0.52 0.53 0.56 0.60 0.64 0.69 0.76 0.80 0.83 0.85 0.87 0.92 1.01 1.05 1.04 1.03 1.05 1.06 1.07 1.07 1.04 1.02 0.98